<?xml version="1.0" encoding="UTF-8" standalone="no" ?>
<gpx xmlns="http://www.topografix.com/GPX/1/1" xmlns:xsi="http://www.w3.org/2001/XMLSchema-instance" xsi:schemaLocation="http://www.topografix.com/GPX/1/1 http://www.topografix.com/GPX/1/1/gpx.xsd" version="1.1" creator="VisuGPX - https://www.visugpx.com">
  <metadata>
    <name>Etape 4, St Bonnet le Froid, Tence.gpx</name>
  </metadata>
  <trk>
    <name><![CDATA[St Bonnet le Froid, Tence]]></name>
    <extensions>
      <line xmlns="http://www.topografix.com/GPX/gpx_style/0/2">
        <color>0000FF</color>
        <width>4</width>
      </line>
    </extensions>
    <trkseg>
      <trkpt lat="45.14202" lon="4.43521">
        <ele>1118</ele>
        <time>2024-05-23T06:32:25Z</time>
      </trkpt>
      <trkpt lat="45.14202" lon="4.43521">
        <ele>1118</ele>
        <time>2024-05-23T06:32:26Z</time>
      </trkpt>
      <trkpt lat="45.14206" lon="4.4353">
        <ele>1118</ele>
        <time>2024-05-23T06:32:38Z</time>
      </trkpt>
      <trkpt lat="45.14211" lon="4.43532">
        <ele>1118</ele>
        <time>2024-05-23T06:32:50Z</time>
      </trkpt>
      <trkpt lat="45.1422" lon="4.43564">
        <ele>1117</ele>
        <time>2024-05-23T06:33:16Z</time>
      </trkpt>
      <trkpt lat="45.14223" lon="4.43569">
        <ele>1117</ele>
        <time>2024-05-23T06:33:20Z</time>
      </trkpt>
      <trkpt lat="45.1423" lon="4.43578">
        <ele>1117</ele>
        <time>2024-05-23T06:33:28Z</time>
      </trkpt>
      <trkpt lat="45.14232" lon="4.43592">
        <ele>1117</ele>
        <time>2024-05-23T06:33:39Z</time>
      </trkpt>
      <trkpt lat="45.14238" lon="4.43604">
        <ele>1116</ele>
        <time>2024-05-23T06:33:49Z</time>
      </trkpt>
      <trkpt lat="45.14242" lon="4.43599">
        <ele>1116</ele>
        <time>2024-05-23T06:33:52Z</time>
      </trkpt>
      <trkpt lat="45.14247" lon="4.436">
        <ele>1116</ele>
        <time>2024-05-23T06:33:57Z</time>
      </trkpt>
      <trkpt lat="45.14251" lon="4.43602">
        <ele>1116</ele>
        <time>2024-05-23T06:34:00Z</time>
      </trkpt>
      <trkpt lat="45.14255" lon="4.43604">
        <ele>1116</ele>
        <time>2024-05-23T06:34:03Z</time>
      </trkpt>
      <trkpt lat="45.14265" lon="4.43617">
        <ele>1115</ele>
        <time>2024-05-23T06:34:14Z</time>
      </trkpt>
      <trkpt lat="45.14276" lon="4.43642">
        <ele>1115</ele>
        <time>2024-05-23T06:34:34Z</time>
      </trkpt>
      <trkpt lat="45.14281" lon="4.43647">
        <ele>1115</ele>
        <time>2024-05-23T06:34:41Z</time>
      </trkpt>
      <trkpt lat="45.14288" lon="4.43649">
        <ele>1115</ele>
        <time>2024-05-23T06:34:51Z</time>
      </trkpt>
      <trkpt lat="45.14292" lon="4.43649">
        <ele>1115</ele>
        <time>2024-05-23T06:34:55Z</time>
      </trkpt>
      <trkpt lat="45.14302" lon="4.43653">
        <ele>1116</ele>
        <time>2024-05-23T06:35:03Z</time>
      </trkpt>
      <trkpt lat="45.14308" lon="4.43654">
        <ele>1116</ele>
        <time>2024-05-23T06:35:07Z</time>
      </trkpt>
      <trkpt lat="45.14313" lon="4.43658">
        <ele>1116</ele>
        <time>2024-05-23T06:35:13Z</time>
      </trkpt>
      <trkpt lat="45.14317" lon="4.43662">
        <ele>1115</ele>
        <time>2024-05-23T06:35:16Z</time>
      </trkpt>
      <trkpt lat="45.14322" lon="4.43664">
        <ele>1115</ele>
        <time>2024-05-23T06:35:20Z</time>
      </trkpt>
      <trkpt lat="45.14347" lon="4.43669">
        <ele>1114</ele>
        <time>2024-05-23T06:35:42Z</time>
      </trkpt>
      <trkpt lat="45.14351" lon="4.43669">
        <ele>1114</ele>
        <time>2024-05-23T06:35:46Z</time>
      </trkpt>
      <trkpt lat="45.14356" lon="4.43669">
        <ele>1114</ele>
        <time>2024-05-23T06:35:50Z</time>
      </trkpt>
      <trkpt lat="45.14361" lon="4.4367">
        <ele>1114</ele>
        <time>2024-05-23T06:35:54Z</time>
      </trkpt>
      <trkpt lat="45.14366" lon="4.43672">
        <ele>1114</ele>
        <time>2024-05-23T06:35:58Z</time>
      </trkpt>
      <trkpt lat="45.1438" lon="4.43676">
        <ele>1114</ele>
        <time>2024-05-23T06:36:11Z</time>
      </trkpt>
      <trkpt lat="45.14385" lon="4.43677">
        <ele>1113</ele>
        <time>2024-05-23T06:36:15Z</time>
      </trkpt>
      <trkpt lat="45.14394" lon="4.43681">
        <ele>1113</ele>
        <time>2024-05-23T06:36:23Z</time>
      </trkpt>
      <trkpt lat="45.14399" lon="4.4368">
        <ele>1113</ele>
        <time>2024-05-23T06:36:27Z</time>
      </trkpt>
      <trkpt lat="45.14414" lon="4.43676">
        <ele>1112</ele>
        <time>2024-05-23T06:36:41Z</time>
      </trkpt>
      <trkpt lat="45.14419" lon="4.43676">
        <ele>1112</ele>
        <time>2024-05-23T06:36:45Z</time>
      </trkpt>
      <trkpt lat="45.14428" lon="4.43674">
        <ele>1111</ele>
        <time>2024-05-23T06:36:53Z</time>
      </trkpt>
      <trkpt lat="45.14438" lon="4.43673">
        <ele>1111</ele>
        <time>2024-05-23T06:37:01Z</time>
      </trkpt>
      <trkpt lat="45.14462" lon="4.43666">
        <ele>1108</ele>
        <time>2024-05-23T06:37:21Z</time>
      </trkpt>
      <trkpt lat="45.14467" lon="4.43668">
        <ele>1108</ele>
        <time>2024-05-23T06:37:25Z</time>
      </trkpt>
      <trkpt lat="45.14476" lon="4.43664">
        <ele>1106</ele>
        <time>2024-05-23T06:37:33Z</time>
      </trkpt>
      <trkpt lat="45.14481" lon="4.43663">
        <ele>1106</ele>
        <time>2024-05-23T06:37:37Z</time>
      </trkpt>
      <trkpt lat="45.1449" lon="4.4366">
        <ele>1105</ele>
        <time>2024-05-23T06:37:45Z</time>
      </trkpt>
      <trkpt lat="45.14495" lon="4.4366">
        <ele>1104</ele>
        <time>2024-05-23T06:37:49Z</time>
      </trkpt>
      <trkpt lat="45.14499" lon="4.4366">
        <ele>1104</ele>
        <time>2024-05-23T06:37:53Z</time>
      </trkpt>
      <trkpt lat="45.14504" lon="4.43657">
        <ele>1103</ele>
        <time>2024-05-23T06:37:57Z</time>
      </trkpt>
      <trkpt lat="45.14513" lon="4.43657">
        <ele>1101</ele>
        <time>2024-05-23T06:38:05Z</time>
      </trkpt>
      <trkpt lat="45.14517" lon="4.43656">
        <ele>1101</ele>
        <time>2024-05-23T06:38:09Z</time>
      </trkpt>
      <trkpt lat="45.1453" lon="4.43657">
        <ele>1099</ele>
        <time>2024-05-23T06:38:21Z</time>
      </trkpt>
      <trkpt lat="45.14543" lon="4.43665">
        <ele>1097</ele>
        <time>2024-05-23T06:38:33Z</time>
      </trkpt>
      <trkpt lat="45.14547" lon="4.43666">
        <ele>1096</ele>
        <time>2024-05-23T06:38:37Z</time>
      </trkpt>
      <trkpt lat="45.14551" lon="4.43669">
        <ele>1096</ele>
        <time>2024-05-23T06:38:41Z</time>
      </trkpt>
      <trkpt lat="45.14583" lon="4.4368">
        <ele>1091</ele>
        <time>2024-05-23T06:39:10Z</time>
      </trkpt>
      <trkpt lat="45.14591" lon="4.43679">
        <ele>1089</ele>
        <time>2024-05-23T06:39:18Z</time>
      </trkpt>
      <trkpt lat="45.14595" lon="4.43677">
        <ele>1088</ele>
        <time>2024-05-23T06:39:22Z</time>
      </trkpt>
      <trkpt lat="45.146" lon="4.43677">
        <ele>1087</ele>
        <time>2024-05-23T06:39:27Z</time>
      </trkpt>
      <trkpt lat="45.14605" lon="4.43676">
        <ele>1086</ele>
        <time>2024-05-23T06:39:32Z</time>
      </trkpt>
      <trkpt lat="45.14609" lon="4.4367">
        <ele>1085</ele>
        <time>2024-05-23T06:39:36Z</time>
      </trkpt>
      <trkpt lat="45.14614" lon="4.43668">
        <ele>1084</ele>
        <time>2024-05-23T06:39:41Z</time>
      </trkpt>
      <trkpt lat="45.14618" lon="4.43669">
        <ele>1083</ele>
        <time>2024-05-23T06:39:45Z</time>
      </trkpt>
      <trkpt lat="45.14629" lon="4.43663">
        <ele>1081</ele>
        <time>2024-05-23T06:39:56Z</time>
      </trkpt>
      <trkpt lat="45.14635" lon="4.43654">
        <ele>1080</ele>
        <time>2024-05-23T06:40:04Z</time>
      </trkpt>
      <trkpt lat="45.14641" lon="4.43654">
        <ele>1079</ele>
        <time>2024-05-23T06:40:10Z</time>
      </trkpt>
      <trkpt lat="45.14645" lon="4.4365">
        <ele>1078</ele>
        <time>2024-05-23T06:40:14Z</time>
      </trkpt>
      <trkpt lat="45.1465" lon="4.43649">
        <ele>1078</ele>
        <time>2024-05-23T06:40:19Z</time>
      </trkpt>
      <trkpt lat="45.14654" lon="4.43645">
        <ele>1077</ele>
        <time>2024-05-23T06:40:23Z</time>
      </trkpt>
      <trkpt lat="45.14658" lon="4.43644">
        <ele>1077</ele>
        <time>2024-05-23T06:40:27Z</time>
      </trkpt>
      <trkpt lat="45.14662" lon="4.4364">
        <ele>1076</ele>
        <time>2024-05-23T06:40:31Z</time>
      </trkpt>
      <trkpt lat="45.14668" lon="4.4364">
        <ele>1076</ele>
        <time>2024-05-23T06:40:35Z</time>
      </trkpt>
      <trkpt lat="45.14671" lon="4.43638">
        <ele>1076</ele>
        <time>2024-05-23T06:40:38Z</time>
      </trkpt>
      <trkpt lat="45.14682" lon="4.43634">
        <ele>1074</ele>
        <time>2024-05-23T06:40:46Z</time>
      </trkpt>
      <trkpt lat="45.14693" lon="4.43635">
        <ele>1074</ele>
        <time>2024-05-23T06:40:57Z</time>
      </trkpt>
      <trkpt lat="45.147" lon="4.43635">
        <ele>1074</ele>
        <time>2024-05-23T06:41:06Z</time>
      </trkpt>
      <trkpt lat="45.14709" lon="4.43634">
        <ele>1073</ele>
        <time>2024-05-23T06:41:14Z</time>
      </trkpt>
      <trkpt lat="45.14746" lon="4.43638">
        <ele>1073</ele>
        <time>2024-05-23T06:41:46Z</time>
      </trkpt>
      <trkpt lat="45.14784" lon="4.4364">
        <ele>1072</ele>
        <time>2024-05-23T06:42:20Z</time>
      </trkpt>
      <trkpt lat="45.14794" lon="4.43646">
        <ele>1072</ele>
        <time>2024-05-23T06:42:28Z</time>
      </trkpt>
      <trkpt lat="45.14798" lon="4.43646">
        <ele>1072</ele>
        <time>2024-05-23T06:42:33Z</time>
      </trkpt>
      <trkpt lat="45.14808" lon="4.43649">
        <ele>1071</ele>
        <time>2024-05-23T06:42:41Z</time>
      </trkpt>
      <trkpt lat="45.14816" lon="4.43657">
        <ele>1071</ele>
        <time>2024-05-23T06:42:49Z</time>
      </trkpt>
      <trkpt lat="45.14825" lon="4.4366">
        <ele>1070</ele>
        <time>2024-05-23T06:42:57Z</time>
      </trkpt>
      <trkpt lat="45.14839" lon="4.43677">
        <ele>1068</ele>
        <time>2024-05-23T06:43:12Z</time>
      </trkpt>
      <trkpt lat="45.14842" lon="4.43685">
        <ele>1067</ele>
        <time>2024-05-23T06:43:19Z</time>
      </trkpt>
      <trkpt lat="45.14842" lon="4.43695">
        <ele>1066</ele>
        <time>2024-05-23T06:43:27Z</time>
      </trkpt>
      <trkpt lat="45.14845" lon="4.43699">
        <ele>1065</ele>
        <time>2024-05-23T06:43:31Z</time>
      </trkpt>
      <trkpt lat="45.14843" lon="4.43705">
        <ele>1064</ele>
        <time>2024-05-23T06:43:35Z</time>
      </trkpt>
      <trkpt lat="45.14847" lon="4.4371">
        <ele>1064</ele>
        <time>2024-05-23T06:43:39Z</time>
      </trkpt>
      <trkpt lat="45.14849" lon="4.43719">
        <ele>1063</ele>
        <time>2024-05-23T06:43:46Z</time>
      </trkpt>
      <trkpt lat="45.14853" lon="4.43732">
        <ele>1062</ele>
        <time>2024-05-23T06:43:55Z</time>
      </trkpt>
      <trkpt lat="45.14857" lon="4.43738">
        <ele>1061</ele>
        <time>2024-05-23T06:43:59Z</time>
      </trkpt>
      <trkpt lat="45.14862" lon="4.4375">
        <ele>1060</ele>
        <time>2024-05-23T06:44:07Z</time>
      </trkpt>
      <trkpt lat="45.14864" lon="4.43757">
        <ele>1060</ele>
        <time>2024-05-23T06:44:11Z</time>
      </trkpt>
      <trkpt lat="45.14868" lon="4.43763">
        <ele>1059</ele>
        <time>2024-05-23T06:44:15Z</time>
      </trkpt>
      <trkpt lat="45.14872" lon="4.43767">
        <ele>1058</ele>
        <time>2024-05-23T06:44:19Z</time>
      </trkpt>
      <trkpt lat="45.14875" lon="4.43773">
        <ele>1058</ele>
        <time>2024-05-23T06:44:23Z</time>
      </trkpt>
      <trkpt lat="45.14884" lon="4.43789">
        <ele>1056</ele>
        <time>2024-05-23T06:44:35Z</time>
      </trkpt>
      <trkpt lat="45.14889" lon="4.43801">
        <ele>1055</ele>
        <time>2024-05-23T06:44:43Z</time>
      </trkpt>
      <trkpt lat="45.14912" lon="4.43829">
        <ele>1051</ele>
        <time>2024-05-23T06:45:13Z</time>
      </trkpt>
      <trkpt lat="45.14921" lon="4.43843">
        <ele>1049</ele>
        <time>2024-05-23T06:45:25Z</time>
      </trkpt>
      <trkpt lat="45.14925" lon="4.43846">
        <ele>1049</ele>
        <time>2024-05-23T06:45:29Z</time>
      </trkpt>
      <trkpt lat="45.14927" lon="4.43852">
        <ele>1049</ele>
        <time>2024-05-23T06:45:34Z</time>
      </trkpt>
      <trkpt lat="45.14929" lon="4.43858">
        <ele>1048</ele>
        <time>2024-05-23T06:45:41Z</time>
      </trkpt>
      <trkpt lat="45.14931" lon="4.43864">
        <ele>1048</ele>
        <time>2024-05-23T06:45:47Z</time>
      </trkpt>
      <trkpt lat="45.14945" lon="4.43877">
        <ele>1046</ele>
        <time>2024-05-23T06:46:03Z</time>
      </trkpt>
      <trkpt lat="45.14963" lon="4.43886">
        <ele>1046</ele>
        <time>2024-05-23T06:46:19Z</time>
      </trkpt>
      <trkpt lat="45.14972" lon="4.43888">
        <ele>1046</ele>
        <time>2024-05-23T06:46:27Z</time>
      </trkpt>
      <trkpt lat="45.14991" lon="4.4389">
        <ele>1046</ele>
        <time>2024-05-23T06:46:44Z</time>
      </trkpt>
      <trkpt lat="45.14996" lon="4.43889">
        <ele>1046</ele>
        <time>2024-05-23T06:46:48Z</time>
      </trkpt>
      <trkpt lat="45.15001" lon="4.43885">
        <ele>1046</ele>
        <time>2024-05-23T06:46:52Z</time>
      </trkpt>
      <trkpt lat="45.15009" lon="4.4388">
        <ele>1047</ele>
        <time>2024-05-23T06:46:59Z</time>
      </trkpt>
      <trkpt lat="45.15013" lon="4.43878">
        <ele>1048</ele>
        <time>2024-05-23T06:47:04Z</time>
      </trkpt>
      <trkpt lat="45.1503" lon="4.43868">
        <ele>1049</ele>
        <time>2024-05-23T06:47:20Z</time>
      </trkpt>
      <trkpt lat="45.15034" lon="4.43869">
        <ele>1049</ele>
        <time>2024-05-23T06:47:24Z</time>
      </trkpt>
      <trkpt lat="45.15038" lon="4.43863">
        <ele>1049</ele>
        <time>2024-05-23T06:47:28Z</time>
      </trkpt>
      <trkpt lat="45.15046" lon="4.43855">
        <ele>1050</ele>
        <time>2024-05-23T06:47:36Z</time>
      </trkpt>
      <trkpt lat="45.15059" lon="4.43846">
        <ele>1051</ele>
        <time>2024-05-23T06:47:49Z</time>
      </trkpt>
      <trkpt lat="45.15068" lon="4.43843">
        <ele>1051</ele>
        <time>2024-05-23T06:47:57Z</time>
      </trkpt>
      <trkpt lat="45.15072" lon="4.43839">
        <ele>1052</ele>
        <time>2024-05-23T06:48:00Z</time>
      </trkpt>
      <trkpt lat="45.15076" lon="4.43839">
        <ele>1052</ele>
        <time>2024-05-23T06:48:04Z</time>
      </trkpt>
      <trkpt lat="45.15081" lon="4.43837">
        <ele>1052</ele>
        <time>2024-05-23T06:48:09Z</time>
      </trkpt>
      <trkpt lat="45.15085" lon="4.43834">
        <ele>1053</ele>
        <time>2024-05-23T06:48:13Z</time>
      </trkpt>
      <trkpt lat="45.1509" lon="4.43832">
        <ele>1054</ele>
        <time>2024-05-23T06:48:17Z</time>
      </trkpt>
      <trkpt lat="45.15095" lon="4.43832">
        <ele>1053</ele>
        <time>2024-05-23T06:48:21Z</time>
      </trkpt>
      <trkpt lat="45.151" lon="4.43829">
        <ele>1052</ele>
        <time>2024-05-23T06:48:27Z</time>
      </trkpt>
      <trkpt lat="45.15105" lon="4.43828">
        <ele>1052</ele>
        <time>2024-05-23T06:48:31Z</time>
      </trkpt>
      <trkpt lat="45.1511" lon="4.43825">
        <ele>1052</ele>
        <time>2024-05-23T06:48:36Z</time>
      </trkpt>
      <trkpt lat="45.15114" lon="4.43822">
        <ele>1053</ele>
        <time>2024-05-23T06:48:40Z</time>
      </trkpt>
      <trkpt lat="45.15118" lon="4.43819">
        <ele>1053</ele>
        <time>2024-05-23T06:48:44Z</time>
      </trkpt>
      <trkpt lat="45.15122" lon="4.43816">
        <ele>1053</ele>
        <time>2024-05-23T06:48:48Z</time>
      </trkpt>
      <trkpt lat="45.15135" lon="4.43808">
        <ele>1054</ele>
        <time>2024-05-23T06:49:00Z</time>
      </trkpt>
      <trkpt lat="45.15144" lon="4.43802">
        <ele>1056</ele>
        <time>2024-05-23T06:49:09Z</time>
      </trkpt>
      <trkpt lat="45.15156" lon="4.4379">
        <ele>1057</ele>
        <time>2024-05-23T06:49:21Z</time>
      </trkpt>
      <trkpt lat="45.15159" lon="4.43785">
        <ele>1057</ele>
        <time>2024-05-23T06:49:25Z</time>
      </trkpt>
      <trkpt lat="45.15162" lon="4.43781">
        <ele>1057</ele>
        <time>2024-05-23T06:49:29Z</time>
      </trkpt>
      <trkpt lat="45.15166" lon="4.43776">
        <ele>1057</ele>
        <time>2024-05-23T06:49:33Z</time>
      </trkpt>
      <trkpt lat="45.1518" lon="4.43747">
        <ele>1058</ele>
        <time>2024-05-23T06:49:53Z</time>
      </trkpt>
      <trkpt lat="45.15183" lon="4.43742">
        <ele>1057</ele>
        <time>2024-05-23T06:49:57Z</time>
      </trkpt>
      <trkpt lat="45.15184" lon="4.43735">
        <ele>1057</ele>
        <time>2024-05-23T06:50:01Z</time>
      </trkpt>
      <trkpt lat="45.15189" lon="4.43724">
        <ele>1057</ele>
        <time>2024-05-23T06:50:09Z</time>
      </trkpt>
      <trkpt lat="45.15192" lon="4.4372">
        <ele>1057</ele>
        <time>2024-05-23T06:50:13Z</time>
      </trkpt>
      <trkpt lat="45.15196" lon="4.43708">
        <ele>1058</ele>
        <time>2024-05-23T06:50:21Z</time>
      </trkpt>
      <trkpt lat="45.15202" lon="4.43698">
        <ele>1060</ele>
        <time>2024-05-23T06:50:29Z</time>
      </trkpt>
      <trkpt lat="45.15206" lon="4.43695">
        <ele>1061</ele>
        <time>2024-05-23T06:50:33Z</time>
      </trkpt>
      <trkpt lat="45.1521" lon="4.4369">
        <ele>1062</ele>
        <time>2024-05-23T06:50:37Z</time>
      </trkpt>
      <trkpt lat="45.15213" lon="4.43687">
        <ele>1062</ele>
        <time>2024-05-23T06:50:41Z</time>
      </trkpt>
      <trkpt lat="45.15219" lon="4.43685">
        <ele>1063</ele>
        <time>2024-05-23T06:50:45Z</time>
      </trkpt>
      <trkpt lat="45.15227" lon="4.43688">
        <ele>1063</ele>
        <time>2024-05-23T06:50:51Z</time>
      </trkpt>
      <trkpt lat="45.15231" lon="4.43691">
        <ele>1064</ele>
        <time>2024-05-23T06:50:55Z</time>
      </trkpt>
      <trkpt lat="45.15235" lon="4.43688">
        <ele>1064</ele>
        <time>2024-05-23T06:50:59Z</time>
      </trkpt>
      <trkpt lat="45.15242" lon="4.43686">
        <ele>1065</ele>
        <time>2024-05-23T06:51:07Z</time>
      </trkpt>
      <trkpt lat="45.15246" lon="4.43687">
        <ele>1065</ele>
        <time>2024-05-23T06:51:11Z</time>
      </trkpt>
      <trkpt lat="45.15254" lon="4.43685">
        <ele>1065</ele>
        <time>2024-05-23T06:51:26Z</time>
      </trkpt>
      <trkpt lat="45.1526" lon="4.43682">
        <ele>1067</ele>
        <time>2024-05-23T06:51:33Z</time>
      </trkpt>
      <trkpt lat="45.15265" lon="4.43676">
        <ele>1067</ele>
        <time>2024-05-23T06:51:46Z</time>
      </trkpt>
      <trkpt lat="45.1527" lon="4.43671">
        <ele>1069</ele>
        <time>2024-05-23T06:52:00Z</time>
      </trkpt>
      <trkpt lat="45.15271" lon="4.43677">
        <ele>1070</ele>
        <time>2024-05-23T06:52:06Z</time>
      </trkpt>
      <trkpt lat="45.15266" lon="4.43675">
        <ele>1070</ele>
        <time>2024-05-23T06:52:37Z</time>
      </trkpt>
      <trkpt lat="45.15264" lon="4.43669">
        <ele>1070</ele>
        <time>2024-05-23T06:53:12Z</time>
      </trkpt>
      <trkpt lat="45.15261" lon="4.43665">
        <ele>1071</ele>
        <time>2024-05-23T06:53:18Z</time>
      </trkpt>
      <trkpt lat="45.15256" lon="4.43664">
        <ele>1070</ele>
        <time>2024-05-23T06:53:23Z</time>
      </trkpt>
      <trkpt lat="45.15255" lon="4.43645">
        <ele>1072</ele>
        <time>2024-05-23T06:53:37Z</time>
      </trkpt>
      <trkpt lat="45.15253" lon="4.43635">
        <ele>1073</ele>
        <time>2024-05-23T06:53:46Z</time>
      </trkpt>
      <trkpt lat="45.15254" lon="4.43619">
        <ele>1074</ele>
        <time>2024-05-23T06:53:58Z</time>
      </trkpt>
      <trkpt lat="45.15254" lon="4.43612">
        <ele>1074</ele>
        <time>2024-05-23T06:54:03Z</time>
      </trkpt>
      <trkpt lat="45.15251" lon="4.43608">
        <ele>1073</ele>
        <time>2024-05-23T06:54:07Z</time>
      </trkpt>
      <trkpt lat="45.15251" lon="4.43601">
        <ele>1074</ele>
        <time>2024-05-23T06:54:12Z</time>
      </trkpt>
      <trkpt lat="45.1525" lon="4.43594">
        <ele>1074</ele>
        <time>2024-05-23T06:54:17Z</time>
      </trkpt>
      <trkpt lat="45.15251" lon="4.43588">
        <ele>1074</ele>
        <time>2024-05-23T06:54:21Z</time>
      </trkpt>
      <trkpt lat="45.15251" lon="4.43577">
        <ele>1074</ele>
        <time>2024-05-23T06:54:30Z</time>
      </trkpt>
      <trkpt lat="45.15251" lon="4.43571">
        <ele>1075</ele>
        <time>2024-05-23T06:54:34Z</time>
      </trkpt>
      <trkpt lat="45.15248" lon="4.43559">
        <ele>1075</ele>
        <time>2024-05-23T06:54:42Z</time>
      </trkpt>
      <trkpt lat="45.15245" lon="4.43548">
        <ele>1076</ele>
        <time>2024-05-23T06:54:51Z</time>
      </trkpt>
      <trkpt lat="45.15243" lon="4.4354">
        <ele>1076</ele>
        <time>2024-05-23T06:54:57Z</time>
      </trkpt>
      <trkpt lat="45.15243" lon="4.43534">
        <ele>1076</ele>
        <time>2024-05-23T06:55:01Z</time>
      </trkpt>
      <trkpt lat="45.15242" lon="4.43528">
        <ele>1076</ele>
        <time>2024-05-23T06:55:05Z</time>
      </trkpt>
      <trkpt lat="45.1524" lon="4.43523">
        <ele>1076</ele>
        <time>2024-05-23T06:55:10Z</time>
      </trkpt>
      <trkpt lat="45.15234" lon="4.43503">
        <ele>1079</ele>
        <time>2024-05-23T06:55:28Z</time>
      </trkpt>
      <trkpt lat="45.1523" lon="4.43482">
        <ele>1081</ele>
        <time>2024-05-23T06:55:47Z</time>
      </trkpt>
      <trkpt lat="45.15231" lon="4.43475">
        <ele>1081</ele>
        <time>2024-05-23T06:55:52Z</time>
      </trkpt>
      <trkpt lat="45.15234" lon="4.4346">
        <ele>1082</ele>
        <time>2024-05-23T06:56:05Z</time>
      </trkpt>
      <trkpt lat="45.15247" lon="4.43433">
        <ele>1087</ele>
        <time>2024-05-23T06:56:36Z</time>
      </trkpt>
      <trkpt lat="45.1525" lon="4.43427">
        <ele>1088</ele>
        <time>2024-05-23T06:56:42Z</time>
      </trkpt>
      <trkpt lat="45.15265" lon="4.43387">
        <ele>1092</ele>
        <time>2024-05-23T06:57:19Z</time>
      </trkpt>
      <trkpt lat="45.15268" lon="4.43379">
        <ele>1093</ele>
        <time>2024-05-23T06:57:26Z</time>
      </trkpt>
      <trkpt lat="45.15271" lon="4.43375">
        <ele>1094</ele>
        <time>2024-05-23T06:57:32Z</time>
      </trkpt>
      <trkpt lat="45.15274" lon="4.43362">
        <ele>1095</ele>
        <time>2024-05-23T06:57:42Z</time>
      </trkpt>
      <trkpt lat="45.15276" lon="4.43357">
        <ele>1095</ele>
        <time>2024-05-23T06:57:46Z</time>
      </trkpt>
      <trkpt lat="45.15279" lon="4.43352">
        <ele>1095</ele>
        <time>2024-05-23T06:57:51Z</time>
      </trkpt>
      <trkpt lat="45.15283" lon="4.43339">
        <ele>1096</ele>
        <time>2024-05-23T06:58:00Z</time>
      </trkpt>
      <trkpt lat="45.15285" lon="4.43333">
        <ele>1096</ele>
        <time>2024-05-23T06:58:05Z</time>
      </trkpt>
      <trkpt lat="45.15288" lon="4.43328">
        <ele>1097</ele>
        <time>2024-05-23T06:58:10Z</time>
      </trkpt>
      <trkpt lat="45.15291" lon="4.4332">
        <ele>1098</ele>
        <time>2024-05-23T06:58:17Z</time>
      </trkpt>
      <trkpt lat="45.15296" lon="4.43313">
        <ele>1097</ele>
        <time>2024-05-23T06:58:29Z</time>
      </trkpt>
      <trkpt lat="45.15297" lon="4.43307">
        <ele>1098</ele>
        <time>2024-05-23T06:58:33Z</time>
      </trkpt>
      <trkpt lat="45.15299" lon="4.43301">
        <ele>1097</ele>
        <time>2024-05-23T06:58:37Z</time>
      </trkpt>
      <trkpt lat="45.15302" lon="4.43295">
        <ele>1098</ele>
        <time>2024-05-23T06:58:42Z</time>
      </trkpt>
      <trkpt lat="45.15304" lon="4.4329">
        <ele>1098</ele>
        <time>2024-05-23T06:58:46Z</time>
      </trkpt>
      <trkpt lat="45.15315" lon="4.43268">
        <ele>1099</ele>
        <time>2024-05-23T06:59:01Z</time>
      </trkpt>
      <trkpt lat="45.15317" lon="4.43262">
        <ele>1098</ele>
        <time>2024-05-23T06:59:05Z</time>
      </trkpt>
      <trkpt lat="45.15319" lon="4.43249">
        <ele>1098</ele>
        <time>2024-05-23T06:59:12Z</time>
      </trkpt>
      <trkpt lat="45.15322" lon="4.43243">
        <ele>1098</ele>
        <time>2024-05-23T06:59:16Z</time>
      </trkpt>
      <trkpt lat="45.15324" lon="4.43236">
        <ele>1098</ele>
        <time>2024-05-23T06:59:20Z</time>
      </trkpt>
      <trkpt lat="45.15327" lon="4.43233">
        <ele>1097</ele>
        <time>2024-05-23T06:59:25Z</time>
      </trkpt>
      <trkpt lat="45.15328" lon="4.43226">
        <ele>1097</ele>
        <time>2024-05-23T06:59:30Z</time>
      </trkpt>
      <trkpt lat="45.15331" lon="4.43221">
        <ele>1096</ele>
        <time>2024-05-23T06:59:34Z</time>
      </trkpt>
      <trkpt lat="45.15334" lon="4.43211">
        <ele>1095</ele>
        <time>2024-05-23T06:59:43Z</time>
      </trkpt>
      <trkpt lat="45.15338" lon="4.43209">
        <ele>1095</ele>
        <time>2024-05-23T06:59:47Z</time>
      </trkpt>
      <trkpt lat="45.1534" lon="4.43202">
        <ele>1094</ele>
        <time>2024-05-23T06:59:52Z</time>
      </trkpt>
      <trkpt lat="45.15341" lon="4.43195">
        <ele>1094</ele>
        <time>2024-05-23T06:59:57Z</time>
      </trkpt>
      <trkpt lat="45.15343" lon="4.43189">
        <ele>1093</ele>
        <time>2024-05-23T07:00:01Z</time>
      </trkpt>
      <trkpt lat="45.15346" lon="4.43185">
        <ele>1092</ele>
        <time>2024-05-23T07:00:05Z</time>
      </trkpt>
      <trkpt lat="45.15348" lon="4.43179">
        <ele>1092</ele>
        <time>2024-05-23T07:00:09Z</time>
      </trkpt>
      <trkpt lat="45.15352" lon="4.4317">
        <ele>1090</ele>
        <time>2024-05-23T07:00:17Z</time>
      </trkpt>
      <trkpt lat="45.15361" lon="4.43166">
        <ele>1088</ele>
        <time>2024-05-23T07:00:25Z</time>
      </trkpt>
      <trkpt lat="45.15363" lon="4.43152">
        <ele>1086</ele>
        <time>2024-05-23T07:00:36Z</time>
      </trkpt>
      <trkpt lat="45.15371" lon="4.43138">
        <ele>1085</ele>
        <time>2024-05-23T07:00:46Z</time>
      </trkpt>
      <trkpt lat="45.15376" lon="4.4313">
        <ele>1083</ele>
        <time>2024-05-23T07:00:54Z</time>
      </trkpt>
      <trkpt lat="45.15379" lon="4.4312">
        <ele>1082</ele>
        <time>2024-05-23T07:01:01Z</time>
      </trkpt>
      <trkpt lat="45.15384" lon="4.43121">
        <ele>1081</ele>
        <time>2024-05-23T07:01:05Z</time>
      </trkpt>
      <trkpt lat="45.15389" lon="4.43121">
        <ele>1081</ele>
        <time>2024-05-23T07:01:07Z</time>
      </trkpt>
      <trkpt lat="45.15393" lon="4.4312">
        <ele>1080</ele>
        <time>2024-05-23T07:01:10Z</time>
      </trkpt>
      <trkpt lat="45.15403" lon="4.43122">
        <ele>1080</ele>
        <time>2024-05-23T07:01:17Z</time>
      </trkpt>
      <trkpt lat="45.15407" lon="4.43123">
        <ele>1078</ele>
        <time>2024-05-23T07:01:23Z</time>
      </trkpt>
      <trkpt lat="45.15412" lon="4.43125">
        <ele>1078</ele>
        <time>2024-05-23T07:01:26Z</time>
      </trkpt>
      <trkpt lat="45.15416" lon="4.43127">
        <ele>1077</ele>
        <time>2024-05-23T07:01:31Z</time>
      </trkpt>
      <trkpt lat="45.1542" lon="4.43123">
        <ele>1076</ele>
        <time>2024-05-23T07:01:35Z</time>
      </trkpt>
      <trkpt lat="45.15432" lon="4.43121">
        <ele>1074</ele>
        <time>2024-05-23T07:01:48Z</time>
      </trkpt>
      <trkpt lat="45.15436" lon="4.43121">
        <ele>1073</ele>
        <time>2024-05-23T07:01:52Z</time>
      </trkpt>
      <trkpt lat="45.15445" lon="4.43115">
        <ele>1072</ele>
        <time>2024-05-23T07:02:02Z</time>
      </trkpt>
      <trkpt lat="45.15447" lon="4.43109">
        <ele>1072</ele>
        <time>2024-05-23T07:02:06Z</time>
      </trkpt>
      <trkpt lat="45.15451" lon="4.43107">
        <ele>1072</ele>
        <time>2024-05-23T07:02:10Z</time>
      </trkpt>
      <trkpt lat="45.1545" lon="4.43101">
        <ele>1072</ele>
        <time>2024-05-23T07:02:13Z</time>
      </trkpt>
      <trkpt lat="45.15455" lon="4.43094">
        <ele>1073</ele>
        <time>2024-05-23T07:02:19Z</time>
      </trkpt>
      <trkpt lat="45.15458" lon="4.43091">
        <ele>1073</ele>
        <time>2024-05-23T07:02:22Z</time>
      </trkpt>
      <trkpt lat="45.15478" lon="4.43052">
        <ele>1074</ele>
        <time>2024-05-23T07:02:53Z</time>
      </trkpt>
      <trkpt lat="45.1548" lon="4.43046">
        <ele>1074</ele>
        <time>2024-05-23T07:02:57Z</time>
      </trkpt>
      <trkpt lat="45.15484" lon="4.43043">
        <ele>1074</ele>
        <time>2024-05-23T07:03:00Z</time>
      </trkpt>
      <trkpt lat="45.15487" lon="4.43027">
        <ele>1074</ele>
        <time>2024-05-23T07:03:10Z</time>
      </trkpt>
      <trkpt lat="45.1549" lon="4.43017">
        <ele>1074</ele>
        <time>2024-05-23T07:03:20Z</time>
      </trkpt>
      <trkpt lat="45.15491" lon="4.43009">
        <ele>1074</ele>
        <time>2024-05-23T07:03:25Z</time>
      </trkpt>
      <trkpt lat="45.15494" lon="4.43003">
        <ele>1074</ele>
        <time>2024-05-23T07:03:28Z</time>
      </trkpt>
      <trkpt lat="45.15494" lon="4.42996">
        <ele>1074</ele>
        <time>2024-05-23T07:03:33Z</time>
      </trkpt>
      <trkpt lat="45.15497" lon="4.42991">
        <ele>1073</ele>
        <time>2024-05-23T07:03:38Z</time>
      </trkpt>
      <trkpt lat="45.15498" lon="4.4298">
        <ele>1073</ele>
        <time>2024-05-23T07:03:43Z</time>
      </trkpt>
      <trkpt lat="45.15502" lon="4.42959">
        <ele>1073</ele>
        <time>2024-05-23T07:03:57Z</time>
      </trkpt>
      <trkpt lat="45.155" lon="4.42952">
        <ele>1073</ele>
        <time>2024-05-23T07:03:59Z</time>
      </trkpt>
      <trkpt lat="45.15506" lon="4.4294">
        <ele>1073</ele>
        <time>2024-05-23T07:04:11Z</time>
      </trkpt>
      <trkpt lat="45.15508" lon="4.42933">
        <ele>1073</ele>
        <time>2024-05-23T07:04:15Z</time>
      </trkpt>
      <trkpt lat="45.15508" lon="4.42926">
        <ele>1073</ele>
        <time>2024-05-23T07:04:19Z</time>
      </trkpt>
      <trkpt lat="45.15509" lon="4.42919">
        <ele>1073</ele>
        <time>2024-05-23T07:04:24Z</time>
      </trkpt>
      <trkpt lat="45.15509" lon="4.42901">
        <ele>1072</ele>
        <time>2024-05-23T07:04:35Z</time>
      </trkpt>
      <trkpt lat="45.1551" lon="4.42895">
        <ele>1072</ele>
        <time>2024-05-23T07:04:38Z</time>
      </trkpt>
      <trkpt lat="45.1551" lon="4.42887">
        <ele>1072</ele>
        <time>2024-05-23T07:04:44Z</time>
      </trkpt>
      <trkpt lat="45.15514" lon="4.42881">
        <ele>1072</ele>
        <time>2024-05-23T07:04:47Z</time>
      </trkpt>
      <trkpt lat="45.15516" lon="4.42861">
        <ele>1072</ele>
        <time>2024-05-23T07:04:59Z</time>
      </trkpt>
      <trkpt lat="45.15516" lon="4.42854">
        <ele>1071</ele>
        <time>2024-05-23T07:05:02Z</time>
      </trkpt>
      <trkpt lat="45.1552" lon="4.42846">
        <ele>1071</ele>
        <time>2024-05-23T07:05:09Z</time>
      </trkpt>
      <trkpt lat="45.15523" lon="4.42842">
        <ele>1071</ele>
        <time>2024-05-23T07:05:13Z</time>
      </trkpt>
      <trkpt lat="45.15524" lon="4.42833">
        <ele>1070</ele>
        <time>2024-05-23T07:05:21Z</time>
      </trkpt>
      <trkpt lat="45.15525" lon="4.42826">
        <ele>1070</ele>
        <time>2024-05-23T07:05:25Z</time>
      </trkpt>
      <trkpt lat="45.15527" lon="4.42819">
        <ele>1069</ele>
        <time>2024-05-23T07:05:29Z</time>
      </trkpt>
      <trkpt lat="45.15528" lon="4.42812">
        <ele>1068</ele>
        <time>2024-05-23T07:05:33Z</time>
      </trkpt>
      <trkpt lat="45.15536" lon="4.42794">
        <ele>1066</ele>
        <time>2024-05-23T07:05:48Z</time>
      </trkpt>
      <trkpt lat="45.1554" lon="4.42776">
        <ele>1064</ele>
        <time>2024-05-23T07:06:01Z</time>
      </trkpt>
      <trkpt lat="45.15545" lon="4.4276">
        <ele>1062</ele>
        <time>2024-05-23T07:06:14Z</time>
      </trkpt>
      <trkpt lat="45.15546" lon="4.42753">
        <ele>1061</ele>
        <time>2024-05-23T07:06:17Z</time>
      </trkpt>
      <trkpt lat="45.1555" lon="4.42743">
        <ele>1060</ele>
        <time>2024-05-23T07:06:25Z</time>
      </trkpt>
      <trkpt lat="45.1555" lon="4.42737">
        <ele>1060</ele>
        <time>2024-05-23T07:06:28Z</time>
      </trkpt>
      <trkpt lat="45.15553" lon="4.42731">
        <ele>1059</ele>
        <time>2024-05-23T07:06:32Z</time>
      </trkpt>
      <trkpt lat="45.15554" lon="4.42724">
        <ele>1059</ele>
        <time>2024-05-23T07:06:36Z</time>
      </trkpt>
      <trkpt lat="45.15556" lon="4.42714">
        <ele>1057</ele>
        <time>2024-05-23T07:06:45Z</time>
      </trkpt>
      <trkpt lat="45.15563" lon="4.42708">
        <ele>1055</ele>
        <time>2024-05-23T07:06:56Z</time>
      </trkpt>
      <trkpt lat="45.15564" lon="4.42702">
        <ele>1054</ele>
        <time>2024-05-23T07:07:01Z</time>
      </trkpt>
      <trkpt lat="45.15567" lon="4.42678">
        <ele>1052</ele>
        <time>2024-05-23T07:07:18Z</time>
      </trkpt>
      <trkpt lat="45.15569" lon="4.42672">
        <ele>1051</ele>
        <time>2024-05-23T07:07:21Z</time>
      </trkpt>
      <trkpt lat="45.15574" lon="4.42667">
        <ele>1050</ele>
        <time>2024-05-23T07:07:28Z</time>
      </trkpt>
      <trkpt lat="45.15577" lon="4.42654">
        <ele>1049</ele>
        <time>2024-05-23T07:07:34Z</time>
      </trkpt>
      <trkpt lat="45.15574" lon="4.42649">
        <ele>1049</ele>
        <time>2024-05-23T07:07:38Z</time>
      </trkpt>
      <trkpt lat="45.15577" lon="4.42642">
        <ele>1048</ele>
        <time>2024-05-23T07:07:42Z</time>
      </trkpt>
      <trkpt lat="45.15581" lon="4.42644">
        <ele>1048</ele>
        <time>2024-05-23T07:07:46Z</time>
      </trkpt>
      <trkpt lat="45.15591" lon="4.42645">
        <ele>1047</ele>
        <time>2024-05-23T07:08:05Z</time>
      </trkpt>
      <trkpt lat="45.15597" lon="4.42645">
        <ele>1047</ele>
        <time>2024-05-23T07:08:14Z</time>
      </trkpt>
      <trkpt lat="45.15602" lon="4.42648">
        <ele>1048</ele>
        <time>2024-05-23T07:08:32Z</time>
      </trkpt>
      <trkpt lat="45.15609" lon="4.42656">
        <ele>1049</ele>
        <time>2024-05-23T07:08:44Z</time>
      </trkpt>
      <trkpt lat="45.15612" lon="4.4266">
        <ele>1049</ele>
        <time>2024-05-23T07:08:48Z</time>
      </trkpt>
      <trkpt lat="45.15621" lon="4.42665">
        <ele>1050</ele>
        <time>2024-05-23T07:08:58Z</time>
      </trkpt>
      <trkpt lat="45.15625" lon="4.42669">
        <ele>1050</ele>
        <time>2024-05-23T07:09:03Z</time>
      </trkpt>
      <trkpt lat="45.1563" lon="4.42672">
        <ele>1052</ele>
        <time>2024-05-23T07:09:10Z</time>
      </trkpt>
      <trkpt lat="45.15635" lon="4.42676">
        <ele>1052</ele>
        <time>2024-05-23T07:09:17Z</time>
      </trkpt>
      <trkpt lat="45.15634" lon="4.42683">
        <ele>1053</ele>
        <time>2024-05-23T07:09:22Z</time>
      </trkpt>
      <trkpt lat="45.15641" lon="4.42681">
        <ele>1053</ele>
        <time>2024-05-23T07:09:27Z</time>
      </trkpt>
      <trkpt lat="45.15649" lon="4.42685">
        <ele>1054</ele>
        <time>2024-05-23T07:09:36Z</time>
      </trkpt>
      <trkpt lat="45.1565" lon="4.42695">
        <ele>1055</ele>
        <time>2024-05-23T07:09:44Z</time>
      </trkpt>
      <trkpt lat="45.15658" lon="4.42695">
        <ele>1056</ele>
        <time>2024-05-23T07:09:51Z</time>
      </trkpt>
      <trkpt lat="45.15662" lon="4.42702">
        <ele>1057</ele>
        <time>2024-05-23T07:09:57Z</time>
      </trkpt>
      <trkpt lat="45.15668" lon="4.4271">
        <ele>1058</ele>
        <time>2024-05-23T07:10:06Z</time>
      </trkpt>
      <trkpt lat="45.15673" lon="4.42714">
        <ele>1059</ele>
        <time>2024-05-23T07:10:12Z</time>
      </trkpt>
      <trkpt lat="45.15675" lon="4.42719">
        <ele>1059</ele>
        <time>2024-05-23T07:10:17Z</time>
      </trkpt>
      <trkpt lat="45.15686" lon="4.42729">
        <ele>1061</ele>
        <time>2024-05-23T07:10:31Z</time>
      </trkpt>
      <trkpt lat="45.15692" lon="4.42737">
        <ele>1061</ele>
        <time>2024-05-23T07:10:39Z</time>
      </trkpt>
      <trkpt lat="45.15698" lon="4.42742">
        <ele>1062</ele>
        <time>2024-05-23T07:10:46Z</time>
      </trkpt>
      <trkpt lat="45.15712" lon="4.42756">
        <ele>1063</ele>
        <time>2024-05-23T07:11:02Z</time>
      </trkpt>
      <trkpt lat="45.15719" lon="4.42761">
        <ele>1064</ele>
        <time>2024-05-23T07:11:11Z</time>
      </trkpt>
      <trkpt lat="45.15722" lon="4.42766">
        <ele>1065</ele>
        <time>2024-05-23T07:11:15Z</time>
      </trkpt>
      <trkpt lat="45.15724" lon="4.42772">
        <ele>1065</ele>
        <time>2024-05-23T07:11:19Z</time>
      </trkpt>
      <trkpt lat="45.15728" lon="4.42779">
        <ele>1066</ele>
        <time>2024-05-23T07:11:26Z</time>
      </trkpt>
      <trkpt lat="45.15732" lon="4.42783">
        <ele>1067</ele>
        <time>2024-05-23T07:11:31Z</time>
      </trkpt>
      <trkpt lat="45.1575" lon="4.42801">
        <ele>1069</ele>
        <time>2024-05-23T07:11:54Z</time>
      </trkpt>
      <trkpt lat="45.15777" lon="4.42819">
        <ele>1072</ele>
        <time>2024-05-23T07:12:27Z</time>
      </trkpt>
      <trkpt lat="45.15791" lon="4.42825">
        <ele>1074</ele>
        <time>2024-05-23T07:12:41Z</time>
      </trkpt>
      <trkpt lat="45.15801" lon="4.42833">
        <ele>1076</ele>
        <time>2024-05-23T07:12:54Z</time>
      </trkpt>
      <trkpt lat="45.15805" lon="4.42838">
        <ele>1076</ele>
        <time>2024-05-23T07:12:59Z</time>
      </trkpt>
      <trkpt lat="45.1581" lon="4.4284">
        <ele>1077</ele>
        <time>2024-05-23T07:13:03Z</time>
      </trkpt>
      <trkpt lat="45.15836" lon="4.42858">
        <ele>1082</ele>
        <time>2024-05-23T07:13:34Z</time>
      </trkpt>
      <trkpt lat="45.15841" lon="4.4286">
        <ele>1082</ele>
        <time>2024-05-23T07:13:38Z</time>
      </trkpt>
      <trkpt lat="45.15846" lon="4.42863">
        <ele>1083</ele>
        <time>2024-05-23T07:13:46Z</time>
      </trkpt>
      <trkpt lat="45.15845" lon="4.42854">
        <ele>1082</ele>
        <time>2024-05-23T07:14:21Z</time>
      </trkpt>
      <trkpt lat="45.15862" lon="4.42819">
        <ele>1082</ele>
        <time>2024-05-23T07:19:16Z</time>
      </trkpt>
      <trkpt lat="45.15863" lon="4.42817">
        <ele>1082</ele>
        <time>2024-05-23T07:19:17Z</time>
      </trkpt>
      <trkpt lat="45.15867" lon="4.42806">
        <ele>1082</ele>
        <time>2024-05-23T07:19:24Z</time>
      </trkpt>
      <trkpt lat="45.15869" lon="4.42801">
        <ele>1082</ele>
        <time>2024-05-23T07:19:28Z</time>
      </trkpt>
      <trkpt lat="45.15873" lon="4.42789">
        <ele>1082</ele>
        <time>2024-05-23T07:19:38Z</time>
      </trkpt>
      <trkpt lat="45.15875" lon="4.42783">
        <ele>1083</ele>
        <time>2024-05-23T07:19:42Z</time>
      </trkpt>
      <trkpt lat="45.15877" lon="4.42777">
        <ele>1082</ele>
        <time>2024-05-23T07:19:46Z</time>
      </trkpt>
      <trkpt lat="45.15878" lon="4.4277">
        <ele>1082</ele>
        <time>2024-05-23T07:19:50Z</time>
      </trkpt>
      <trkpt lat="45.1588" lon="4.42764">
        <ele>1083</ele>
        <time>2024-05-23T07:19:55Z</time>
      </trkpt>
      <trkpt lat="45.15882" lon="4.42758">
        <ele>1083</ele>
        <time>2024-05-23T07:19:59Z</time>
      </trkpt>
      <trkpt lat="45.15886" lon="4.42745">
        <ele>1083</ele>
        <time>2024-05-23T07:20:07Z</time>
      </trkpt>
      <trkpt lat="45.15888" lon="4.42739">
        <ele>1083</ele>
        <time>2024-05-23T07:20:11Z</time>
      </trkpt>
      <trkpt lat="45.1589" lon="4.42733">
        <ele>1083</ele>
        <time>2024-05-23T07:20:15Z</time>
      </trkpt>
      <trkpt lat="45.15894" lon="4.42715">
        <ele>1083</ele>
        <time>2024-05-23T07:20:27Z</time>
      </trkpt>
      <trkpt lat="45.15897" lon="4.42702">
        <ele>1083</ele>
        <time>2024-05-23T07:20:35Z</time>
      </trkpt>
      <trkpt lat="45.15898" lon="4.42684">
        <ele>1083</ele>
        <time>2024-05-23T07:20:48Z</time>
      </trkpt>
      <trkpt lat="45.15901" lon="4.42677">
        <ele>1084</ele>
        <time>2024-05-23T07:20:51Z</time>
      </trkpt>
      <trkpt lat="45.15904" lon="4.42657">
        <ele>1084</ele>
        <time>2024-05-23T07:21:03Z</time>
      </trkpt>
      <trkpt lat="45.15905" lon="4.42651">
        <ele>1084</ele>
        <time>2024-05-23T07:21:07Z</time>
      </trkpt>
      <trkpt lat="45.1591" lon="4.42639">
        <ele>1084</ele>
        <time>2024-05-23T07:21:15Z</time>
      </trkpt>
      <trkpt lat="45.15911" lon="4.42632">
        <ele>1083</ele>
        <time>2024-05-23T07:21:18Z</time>
      </trkpt>
      <trkpt lat="45.15918" lon="4.42615">
        <ele>1083</ele>
        <time>2024-05-23T07:21:31Z</time>
      </trkpt>
      <trkpt lat="45.15923" lon="4.42596">
        <ele>1083</ele>
        <time>2024-05-23T07:21:42Z</time>
      </trkpt>
      <trkpt lat="45.15925" lon="4.4259">
        <ele>1083</ele>
        <time>2024-05-23T07:21:46Z</time>
      </trkpt>
      <trkpt lat="45.15925" lon="4.42584">
        <ele>1082</ele>
        <time>2024-05-23T07:21:49Z</time>
      </trkpt>
      <trkpt lat="45.15928" lon="4.42573">
        <ele>1082</ele>
        <time>2024-05-23T07:21:56Z</time>
      </trkpt>
      <trkpt lat="45.15933" lon="4.42559">
        <ele>1082</ele>
        <time>2024-05-23T07:22:07Z</time>
      </trkpt>
      <trkpt lat="45.15934" lon="4.42553">
        <ele>1082</ele>
        <time>2024-05-23T07:22:11Z</time>
      </trkpt>
      <trkpt lat="45.15937" lon="4.42545">
        <ele>1081</ele>
        <time>2024-05-23T07:22:17Z</time>
      </trkpt>
      <trkpt lat="45.1594" lon="4.42538">
        <ele>1081</ele>
        <time>2024-05-23T07:22:26Z</time>
      </trkpt>
      <trkpt lat="45.15942" lon="4.42531">
        <ele>1081</ele>
        <time>2024-05-23T07:22:29Z</time>
      </trkpt>
      <trkpt lat="45.15942" lon="4.42526">
        <ele>1080</ele>
        <time>2024-05-23T07:22:34Z</time>
      </trkpt>
      <trkpt lat="45.15944" lon="4.42519">
        <ele>1080</ele>
        <time>2024-05-23T07:22:38Z</time>
      </trkpt>
      <trkpt lat="45.15948" lon="4.42511">
        <ele>1080</ele>
        <time>2024-05-23T07:22:45Z</time>
      </trkpt>
      <trkpt lat="45.1595" lon="4.42505">
        <ele>1079</ele>
        <time>2024-05-23T07:22:48Z</time>
      </trkpt>
      <trkpt lat="45.15951" lon="4.42499">
        <ele>1079</ele>
        <time>2024-05-23T07:22:51Z</time>
      </trkpt>
      <trkpt lat="45.15955" lon="4.42493">
        <ele>1079</ele>
        <time>2024-05-23T07:22:56Z</time>
      </trkpt>
      <trkpt lat="45.15957" lon="4.42488">
        <ele>1079</ele>
        <time>2024-05-23T07:22:59Z</time>
      </trkpt>
      <trkpt lat="45.15958" lon="4.42483">
        <ele>1078</ele>
        <time>2024-05-23T07:23:03Z</time>
      </trkpt>
      <trkpt lat="45.15967" lon="4.42469">
        <ele>1077</ele>
        <time>2024-05-23T07:23:13Z</time>
      </trkpt>
      <trkpt lat="45.15972" lon="4.42464">
        <ele>1076</ele>
        <time>2024-05-23T07:23:20Z</time>
      </trkpt>
      <trkpt lat="45.15978" lon="4.42453">
        <ele>1075</ele>
        <time>2024-05-23T07:23:27Z</time>
      </trkpt>
      <trkpt lat="45.1598" lon="4.42443">
        <ele>1074</ele>
        <time>2024-05-23T07:23:34Z</time>
      </trkpt>
      <trkpt lat="45.15986" lon="4.42436">
        <ele>1073</ele>
        <time>2024-05-23T07:23:40Z</time>
      </trkpt>
      <trkpt lat="45.15985" lon="4.42427">
        <ele>1072</ele>
        <time>2024-05-23T07:23:45Z</time>
      </trkpt>
      <trkpt lat="45.15988" lon="4.42421">
        <ele>1072</ele>
        <time>2024-05-23T07:23:49Z</time>
      </trkpt>
      <trkpt lat="45.1599" lon="4.42416">
        <ele>1071</ele>
        <time>2024-05-23T07:23:53Z</time>
      </trkpt>
      <trkpt lat="45.15992" lon="4.42409">
        <ele>1070</ele>
        <time>2024-05-23T07:23:57Z</time>
      </trkpt>
      <trkpt lat="45.15995" lon="4.42404">
        <ele>1070</ele>
        <time>2024-05-23T07:24:00Z</time>
      </trkpt>
      <trkpt lat="45.15999" lon="4.42401">
        <ele>1070</ele>
        <time>2024-05-23T07:24:03Z</time>
      </trkpt>
      <trkpt lat="45.16002" lon="4.42396">
        <ele>1069</ele>
        <time>2024-05-23T07:24:07Z</time>
      </trkpt>
      <trkpt lat="45.16006" lon="4.42382">
        <ele>1068</ele>
        <time>2024-05-23T07:24:19Z</time>
      </trkpt>
      <trkpt lat="45.1601" lon="4.42377">
        <ele>1067</ele>
        <time>2024-05-23T07:24:24Z</time>
      </trkpt>
      <trkpt lat="45.16011" lon="4.4237">
        <ele>1067</ele>
        <time>2024-05-23T07:24:28Z</time>
      </trkpt>
      <trkpt lat="45.16015" lon="4.42366">
        <ele>1066</ele>
        <time>2024-05-23T07:24:32Z</time>
      </trkpt>
      <trkpt lat="45.16018" lon="4.42361">
        <ele>1065</ele>
        <time>2024-05-23T07:24:41Z</time>
      </trkpt>
      <trkpt lat="45.16022" lon="4.42354">
        <ele>1064</ele>
        <time>2024-05-23T07:24:47Z</time>
      </trkpt>
      <trkpt lat="45.16031" lon="4.42325">
        <ele>1061</ele>
        <time>2024-05-23T07:25:08Z</time>
      </trkpt>
      <trkpt lat="45.16036" lon="4.42321">
        <ele>1060</ele>
        <time>2024-05-23T07:25:12Z</time>
      </trkpt>
      <trkpt lat="45.16038" lon="4.4231">
        <ele>1059</ele>
        <time>2024-05-23T07:25:21Z</time>
      </trkpt>
      <trkpt lat="45.16052" lon="4.42275">
        <ele>1055</ele>
        <time>2024-05-23T07:25:49Z</time>
      </trkpt>
      <trkpt lat="45.16052" lon="4.42268">
        <ele>1055</ele>
        <time>2024-05-23T07:25:53Z</time>
      </trkpt>
      <trkpt lat="45.16057" lon="4.42264">
        <ele>1054</ele>
        <time>2024-05-23T07:25:56Z</time>
      </trkpt>
      <trkpt lat="45.16059" lon="4.42259">
        <ele>1054</ele>
        <time>2024-05-23T07:26:01Z</time>
      </trkpt>
      <trkpt lat="45.16062" lon="4.42247">
        <ele>1053</ele>
        <time>2024-05-23T07:26:09Z</time>
      </trkpt>
      <trkpt lat="45.16065" lon="4.42242">
        <ele>1052</ele>
        <time>2024-05-23T07:26:13Z</time>
      </trkpt>
      <trkpt lat="45.16067" lon="4.42233">
        <ele>1052</ele>
        <time>2024-05-23T07:26:20Z</time>
      </trkpt>
      <trkpt lat="45.16073" lon="4.42223">
        <ele>1051</ele>
        <time>2024-05-23T07:26:27Z</time>
      </trkpt>
      <trkpt lat="45.16075" lon="4.42217">
        <ele>1050</ele>
        <time>2024-05-23T07:26:31Z</time>
      </trkpt>
      <trkpt lat="45.16077" lon="4.42212">
        <ele>1050</ele>
        <time>2024-05-23T07:26:34Z</time>
      </trkpt>
      <trkpt lat="45.16079" lon="4.42205">
        <ele>1049</ele>
        <time>2024-05-23T07:26:37Z</time>
      </trkpt>
      <trkpt lat="45.16085" lon="4.42195">
        <ele>1048</ele>
        <time>2024-05-23T07:26:46Z</time>
      </trkpt>
      <trkpt lat="45.1609" lon="4.42183">
        <ele>1047</ele>
        <time>2024-05-23T07:26:54Z</time>
      </trkpt>
      <trkpt lat="45.16093" lon="4.42167">
        <ele>1046</ele>
        <time>2024-05-23T07:27:06Z</time>
      </trkpt>
      <trkpt lat="45.16097" lon="4.42155">
        <ele>1045</ele>
        <time>2024-05-23T07:27:14Z</time>
      </trkpt>
      <trkpt lat="45.161" lon="4.42149">
        <ele>1045</ele>
        <time>2024-05-23T07:27:17Z</time>
      </trkpt>
      <trkpt lat="45.161" lon="4.42143">
        <ele>1045</ele>
        <time>2024-05-23T07:27:19Z</time>
      </trkpt>
      <trkpt lat="45.16106" lon="4.42132">
        <ele>1044</ele>
        <time>2024-05-23T07:27:28Z</time>
      </trkpt>
      <trkpt lat="45.16109" lon="4.42105">
        <ele>1042</ele>
        <time>2024-05-23T07:27:44Z</time>
      </trkpt>
      <trkpt lat="45.16116" lon="4.42096">
        <ele>1042</ele>
        <time>2024-05-23T07:27:51Z</time>
      </trkpt>
      <trkpt lat="45.16118" lon="4.4209">
        <ele>1040</ele>
        <time>2024-05-23T07:27:56Z</time>
      </trkpt>
      <trkpt lat="45.16125" lon="4.42058">
        <ele>1037</ele>
        <time>2024-05-23T07:28:17Z</time>
      </trkpt>
      <trkpt lat="45.16131" lon="4.42048">
        <ele>1036</ele>
        <time>2024-05-23T07:28:24Z</time>
      </trkpt>
      <trkpt lat="45.16135" lon="4.42044">
        <ele>1036</ele>
        <time>2024-05-23T07:28:27Z</time>
      </trkpt>
      <trkpt lat="45.16137" lon="4.42034">
        <ele>1035</ele>
        <time>2024-05-23T07:28:34Z</time>
      </trkpt>
      <trkpt lat="45.16141" lon="4.42031">
        <ele>1034</ele>
        <time>2024-05-23T07:28:37Z</time>
      </trkpt>
      <trkpt lat="45.16145" lon="4.42029">
        <ele>1033</ele>
        <time>2024-05-23T07:28:41Z</time>
      </trkpt>
      <trkpt lat="45.16147" lon="4.42023">
        <ele>1033</ele>
        <time>2024-05-23T07:28:45Z</time>
      </trkpt>
      <trkpt lat="45.16151" lon="4.42018">
        <ele>1032</ele>
        <time>2024-05-23T07:28:50Z</time>
      </trkpt>
      <trkpt lat="45.16152" lon="4.42012">
        <ele>1032</ele>
        <time>2024-05-23T07:28:53Z</time>
      </trkpt>
      <trkpt lat="45.16156" lon="4.42008">
        <ele>1031</ele>
        <time>2024-05-23T07:28:58Z</time>
      </trkpt>
      <trkpt lat="45.16159" lon="4.42002">
        <ele>1030</ele>
        <time>2024-05-23T07:29:03Z</time>
      </trkpt>
      <trkpt lat="45.16168" lon="4.41989">
        <ele>1029</ele>
        <time>2024-05-23T07:29:15Z</time>
      </trkpt>
      <trkpt lat="45.16173" lon="4.41988">
        <ele>1028</ele>
        <time>2024-05-23T07:29:19Z</time>
      </trkpt>
      <trkpt lat="45.16177" lon="4.41985">
        <ele>1028</ele>
        <time>2024-05-23T07:29:22Z</time>
      </trkpt>
      <trkpt lat="45.16182" lon="4.41973">
        <ele>1026</ele>
        <time>2024-05-23T07:29:30Z</time>
      </trkpt>
      <trkpt lat="45.16193" lon="4.41962">
        <ele>1024</ele>
        <time>2024-05-23T07:29:43Z</time>
      </trkpt>
      <trkpt lat="45.16198" lon="4.41959">
        <ele>1023</ele>
        <time>2024-05-23T07:29:49Z</time>
      </trkpt>
      <trkpt lat="45.16202" lon="4.41956">
        <ele>1022</ele>
        <time>2024-05-23T07:29:54Z</time>
      </trkpt>
      <trkpt lat="45.16205" lon="4.41949">
        <ele>1021</ele>
        <time>2024-05-23T07:29:59Z</time>
      </trkpt>
      <trkpt lat="45.16212" lon="4.41941">
        <ele>1020</ele>
        <time>2024-05-23T07:30:06Z</time>
      </trkpt>
      <trkpt lat="45.16218" lon="4.41929">
        <ele>1019</ele>
        <time>2024-05-23T07:30:14Z</time>
      </trkpt>
      <trkpt lat="45.16227" lon="4.41928">
        <ele>1017</ele>
        <time>2024-05-23T07:30:21Z</time>
      </trkpt>
      <trkpt lat="45.16232" lon="4.41929">
        <ele>1016</ele>
        <time>2024-05-23T07:30:25Z</time>
      </trkpt>
      <trkpt lat="45.16234" lon="4.41923">
        <ele>1016</ele>
        <time>2024-05-23T07:30:28Z</time>
      </trkpt>
      <trkpt lat="45.16247" lon="4.41913">
        <ele>1013</ele>
        <time>2024-05-23T07:30:38Z</time>
      </trkpt>
      <trkpt lat="45.16249" lon="4.41906">
        <ele>1013</ele>
        <time>2024-05-23T07:30:42Z</time>
      </trkpt>
      <trkpt lat="45.16253" lon="4.41903">
        <ele>1012</ele>
        <time>2024-05-23T07:30:45Z</time>
      </trkpt>
      <trkpt lat="45.16253" lon="4.41896">
        <ele>1012</ele>
        <time>2024-05-23T07:30:48Z</time>
      </trkpt>
      <trkpt lat="45.16258" lon="4.41895">
        <ele>1012</ele>
        <time>2024-05-23T07:30:51Z</time>
      </trkpt>
      <trkpt lat="45.16263" lon="4.41892">
        <ele>1011</ele>
        <time>2024-05-23T07:30:58Z</time>
      </trkpt>
      <trkpt lat="45.16275" lon="4.4189">
        <ele>1009</ele>
        <time>2024-05-23T07:31:09Z</time>
      </trkpt>
      <trkpt lat="45.16278" lon="4.41884">
        <ele>1009</ele>
        <time>2024-05-23T07:31:11Z</time>
      </trkpt>
      <trkpt lat="45.16286" lon="4.41879">
        <ele>1008</ele>
        <time>2024-05-23T07:31:18Z</time>
      </trkpt>
      <trkpt lat="45.16289" lon="4.41873">
        <ele>1007</ele>
        <time>2024-05-23T07:31:22Z</time>
      </trkpt>
      <trkpt lat="45.16291" lon="4.41868">
        <ele>1007</ele>
        <time>2024-05-23T07:31:25Z</time>
      </trkpt>
      <trkpt lat="45.16295" lon="4.41865">
        <ele>1006</ele>
        <time>2024-05-23T07:31:29Z</time>
      </trkpt>
      <trkpt lat="45.16297" lon="4.41858">
        <ele>1005</ele>
        <time>2024-05-23T07:31:33Z</time>
      </trkpt>
      <trkpt lat="45.16296" lon="4.41856">
        <ele>1005</ele>
        <time>2024-05-23T07:31:56Z</time>
      </trkpt>
      <trkpt lat="45.16303" lon="4.41833">
        <ele>1002</ele>
        <time>2024-05-23T07:32:27Z</time>
      </trkpt>
      <trkpt lat="45.16302" lon="4.41815">
        <ele>1000</ele>
        <time>2024-05-23T07:32:39Z</time>
      </trkpt>
      <trkpt lat="45.16296" lon="4.41806">
        <ele>998</ele>
        <time>2024-05-23T07:32:48Z</time>
      </trkpt>
      <trkpt lat="45.1629" lon="4.41803">
        <ele>996</ele>
        <time>2024-05-23T07:32:54Z</time>
      </trkpt>
      <trkpt lat="45.16285" lon="4.41797">
        <ele>995</ele>
        <time>2024-05-23T07:33:02Z</time>
      </trkpt>
      <trkpt lat="45.1628" lon="4.41796">
        <ele>995</ele>
        <time>2024-05-23T07:33:05Z</time>
      </trkpt>
      <trkpt lat="45.1627" lon="4.41793">
        <ele>993</ele>
        <time>2024-05-23T07:33:15Z</time>
      </trkpt>
      <trkpt lat="45.16265" lon="4.41794">
        <ele>992</ele>
        <time>2024-05-23T07:33:19Z</time>
      </trkpt>
      <trkpt lat="45.16259" lon="4.41796">
        <ele>991</ele>
        <time>2024-05-23T07:33:23Z</time>
      </trkpt>
      <trkpt lat="45.16258" lon="4.41789">
        <ele>991</ele>
        <time>2024-05-23T07:33:27Z</time>
      </trkpt>
      <trkpt lat="45.16253" lon="4.41788">
        <ele>990</ele>
        <time>2024-05-23T07:33:31Z</time>
      </trkpt>
      <trkpt lat="45.16249" lon="4.41792">
        <ele>990</ele>
        <time>2024-05-23T07:33:34Z</time>
      </trkpt>
      <trkpt lat="45.16252" lon="4.41783">
        <ele>988</ele>
        <time>2024-05-23T07:33:41Z</time>
      </trkpt>
      <trkpt lat="45.16252" lon="4.41777">
        <ele>988</ele>
        <time>2024-05-23T07:33:47Z</time>
      </trkpt>
      <trkpt lat="45.16278" lon="4.41756">
        <ele>986</ele>
        <time>2024-05-23T07:35:28Z</time>
      </trkpt>
      <trkpt lat="45.16279" lon="4.41756">
        <ele>986</ele>
        <time>2024-05-23T07:35:29Z</time>
      </trkpt>
      <trkpt lat="45.16284" lon="4.41746">
        <ele>985</ele>
        <time>2024-05-23T07:35:36Z</time>
      </trkpt>
      <trkpt lat="45.16293" lon="4.41746">
        <ele>984</ele>
        <time>2024-05-23T07:35:43Z</time>
      </trkpt>
      <trkpt lat="45.16298" lon="4.41748">
        <ele>984</ele>
        <time>2024-05-23T07:35:46Z</time>
      </trkpt>
      <trkpt lat="45.163" lon="4.41741">
        <ele>983</ele>
        <time>2024-05-23T07:35:50Z</time>
      </trkpt>
      <trkpt lat="45.16306" lon="4.41737">
        <ele>983</ele>
        <time>2024-05-23T07:35:54Z</time>
      </trkpt>
      <trkpt lat="45.16308" lon="4.41732">
        <ele>982</ele>
        <time>2024-05-23T07:35:58Z</time>
      </trkpt>
      <trkpt lat="45.16326" lon="4.41719">
        <ele>979</ele>
        <time>2024-05-23T07:36:15Z</time>
      </trkpt>
      <trkpt lat="45.16331" lon="4.41718">
        <ele>978</ele>
        <time>2024-05-23T07:36:19Z</time>
      </trkpt>
      <trkpt lat="45.16341" lon="4.41711">
        <ele>977</ele>
        <time>2024-05-23T07:36:26Z</time>
      </trkpt>
      <trkpt lat="45.16345" lon="4.41711">
        <ele>976</ele>
        <time>2024-05-23T07:36:30Z</time>
      </trkpt>
      <trkpt lat="45.1635" lon="4.41709">
        <ele>975</ele>
        <time>2024-05-23T07:36:35Z</time>
      </trkpt>
      <trkpt lat="45.16365" lon="4.4171">
        <ele>973</ele>
        <time>2024-05-23T07:36:47Z</time>
      </trkpt>
      <trkpt lat="45.16369" lon="4.41709">
        <ele>972</ele>
        <time>2024-05-23T07:36:51Z</time>
      </trkpt>
      <trkpt lat="45.16375" lon="4.41711">
        <ele>970</ele>
        <time>2024-05-23T07:36:56Z</time>
      </trkpt>
      <trkpt lat="45.16381" lon="4.4171">
        <ele>970</ele>
        <time>2024-05-23T07:36:59Z</time>
      </trkpt>
      <trkpt lat="45.16386" lon="4.41711">
        <ele>969</ele>
        <time>2024-05-23T07:37:02Z</time>
      </trkpt>
      <trkpt lat="45.16393" lon="4.41711">
        <ele>968</ele>
        <time>2024-05-23T07:37:07Z</time>
      </trkpt>
      <trkpt lat="45.16398" lon="4.41715">
        <ele>967</ele>
        <time>2024-05-23T07:37:12Z</time>
      </trkpt>
      <trkpt lat="45.16404" lon="4.41719">
        <ele>966</ele>
        <time>2024-05-23T07:37:19Z</time>
      </trkpt>
      <trkpt lat="45.16421" lon="4.41733">
        <ele>964</ele>
        <time>2024-05-23T07:37:33Z</time>
      </trkpt>
      <trkpt lat="45.16427" lon="4.41743">
        <ele>963</ele>
        <time>2024-05-23T07:37:40Z</time>
      </trkpt>
      <trkpt lat="45.16428" lon="4.41749">
        <ele>962</ele>
        <time>2024-05-23T07:37:44Z</time>
      </trkpt>
      <trkpt lat="45.16433" lon="4.41753">
        <ele>960</ele>
        <time>2024-05-23T07:37:51Z</time>
      </trkpt>
      <trkpt lat="45.16441" lon="4.4176">
        <ele>959</ele>
        <time>2024-05-23T07:37:57Z</time>
      </trkpt>
      <trkpt lat="45.16444" lon="4.41766">
        <ele>959</ele>
        <time>2024-05-23T07:38:01Z</time>
      </trkpt>
      <trkpt lat="45.16446" lon="4.41772">
        <ele>958</ele>
        <time>2024-05-23T07:38:04Z</time>
      </trkpt>
      <trkpt lat="45.16443" lon="4.41781">
        <ele>957</ele>
        <time>2024-05-23T07:38:10Z</time>
      </trkpt>
      <trkpt lat="45.16442" lon="4.41788">
        <ele>956</ele>
        <time>2024-05-23T07:38:13Z</time>
      </trkpt>
      <trkpt lat="45.16447" lon="4.41791">
        <ele>956</ele>
        <time>2024-05-23T07:38:17Z</time>
      </trkpt>
      <trkpt lat="45.16452" lon="4.41793">
        <ele>955</ele>
        <time>2024-05-23T07:38:20Z</time>
      </trkpt>
      <trkpt lat="45.16451" lon="4.41812">
        <ele>952</ele>
        <time>2024-05-23T07:38:34Z</time>
      </trkpt>
      <trkpt lat="45.16456" lon="4.41816">
        <ele>951</ele>
        <time>2024-05-23T07:38:37Z</time>
      </trkpt>
      <trkpt lat="45.16455" lon="4.41824">
        <ele>951</ele>
        <time>2024-05-23T07:38:40Z</time>
      </trkpt>
      <trkpt lat="45.1646" lon="4.41828">
        <ele>950</ele>
        <time>2024-05-23T07:38:44Z</time>
      </trkpt>
      <trkpt lat="45.16462" lon="4.41834">
        <ele>949</ele>
        <time>2024-05-23T07:38:48Z</time>
      </trkpt>
      <trkpt lat="45.16462" lon="4.41841">
        <ele>949</ele>
        <time>2024-05-23T07:38:52Z</time>
      </trkpt>
      <trkpt lat="45.16469" lon="4.41822">
        <ele>945</ele>
        <time>2024-05-23T07:39:08Z</time>
      </trkpt>
      <trkpt lat="45.16472" lon="4.41816">
        <ele>944</ele>
        <time>2024-05-23T07:39:13Z</time>
      </trkpt>
      <trkpt lat="45.16472" lon="4.41768">
        <ele>942</ele>
        <time>2024-05-23T07:43:22Z</time>
      </trkpt>
      <trkpt lat="45.16472" lon="4.41766">
        <ele>942</ele>
        <time>2024-05-23T07:43:23Z</time>
      </trkpt>
      <trkpt lat="45.16474" lon="4.41755">
        <ele>941</ele>
        <time>2024-05-23T07:43:30Z</time>
      </trkpt>
      <trkpt lat="45.16472" lon="4.41741">
        <ele>940</ele>
        <time>2024-05-23T07:43:38Z</time>
      </trkpt>
      <trkpt lat="45.16479" lon="4.41716">
        <ele>938</ele>
        <time>2024-05-23T07:43:53Z</time>
      </trkpt>
      <trkpt lat="45.16482" lon="4.4171">
        <ele>937</ele>
        <time>2024-05-23T07:44:06Z</time>
      </trkpt>
      <trkpt lat="45.16483" lon="4.41703">
        <ele>937</ele>
        <time>2024-05-23T07:44:10Z</time>
      </trkpt>
      <trkpt lat="45.16485" lon="4.4169">
        <ele>935</ele>
        <time>2024-05-23T07:44:18Z</time>
      </trkpt>
      <trkpt lat="45.16479" lon="4.41671">
        <ele>933</ele>
        <time>2024-05-23T07:44:29Z</time>
      </trkpt>
      <trkpt lat="45.16474" lon="4.41659">
        <ele>932</ele>
        <time>2024-05-23T07:44:37Z</time>
      </trkpt>
      <trkpt lat="45.16474" lon="4.41652">
        <ele>932</ele>
        <time>2024-05-23T07:44:41Z</time>
      </trkpt>
      <trkpt lat="45.16476" lon="4.41645">
        <ele>932</ele>
        <time>2024-05-23T07:44:45Z</time>
      </trkpt>
      <trkpt lat="45.16481" lon="4.41643">
        <ele>931</ele>
        <time>2024-05-23T07:44:49Z</time>
      </trkpt>
      <trkpt lat="45.16486" lon="4.41645">
        <ele>931</ele>
        <time>2024-05-23T07:44:52Z</time>
      </trkpt>
      <trkpt lat="45.16497" lon="4.41655">
        <ele>929</ele>
        <time>2024-05-23T07:45:01Z</time>
      </trkpt>
      <trkpt lat="45.16506" lon="4.41655">
        <ele>928</ele>
        <time>2024-05-23T07:45:12Z</time>
      </trkpt>
      <trkpt lat="45.16541" lon="4.4166">
        <ele>926</ele>
        <time>2024-05-23T07:45:41Z</time>
      </trkpt>
      <trkpt lat="45.16546" lon="4.41661">
        <ele>927</ele>
        <time>2024-05-23T07:45:45Z</time>
      </trkpt>
      <trkpt lat="45.1655" lon="4.4166">
        <ele>927</ele>
        <time>2024-05-23T07:45:50Z</time>
      </trkpt>
      <trkpt lat="45.16556" lon="4.4166">
        <ele>927</ele>
        <time>2024-05-23T07:45:55Z</time>
      </trkpt>
      <trkpt lat="45.16561" lon="4.41661">
        <ele>926</ele>
        <time>2024-05-23T07:45:59Z</time>
      </trkpt>
      <trkpt lat="45.16565" lon="4.41662">
        <ele>926</ele>
        <time>2024-05-23T07:46:03Z</time>
      </trkpt>
      <trkpt lat="45.1657" lon="4.41661">
        <ele>926</ele>
        <time>2024-05-23T07:46:07Z</time>
      </trkpt>
      <trkpt lat="45.16574" lon="4.4166">
        <ele>926</ele>
        <time>2024-05-23T07:46:11Z</time>
      </trkpt>
      <trkpt lat="45.16588" lon="4.41661">
        <ele>925</ele>
        <time>2024-05-23T07:46:23Z</time>
      </trkpt>
      <trkpt lat="45.16606" lon="4.41661">
        <ele>926</ele>
        <time>2024-05-23T07:46:39Z</time>
      </trkpt>
      <trkpt lat="45.16611" lon="4.41664">
        <ele>927</ele>
        <time>2024-05-23T07:46:44Z</time>
      </trkpt>
      <trkpt lat="45.16614" lon="4.41666">
        <ele>927</ele>
        <time>2024-05-23T07:46:48Z</time>
      </trkpt>
      <trkpt lat="45.16619" lon="4.41665">
        <ele>927</ele>
        <time>2024-05-23T07:46:52Z</time>
      </trkpt>
      <trkpt lat="45.16624" lon="4.41665">
        <ele>927</ele>
        <time>2024-05-23T07:46:56Z</time>
      </trkpt>
      <trkpt lat="45.16631" lon="4.41664">
        <ele>928</ele>
        <time>2024-05-23T07:47:03Z</time>
      </trkpt>
      <trkpt lat="45.16636" lon="4.41663">
        <ele>928</ele>
        <time>2024-05-23T07:47:07Z</time>
      </trkpt>
      <trkpt lat="45.16641" lon="4.41663">
        <ele>930</ele>
        <time>2024-05-23T07:47:13Z</time>
      </trkpt>
      <trkpt lat="45.1665" lon="4.41664">
        <ele>930</ele>
        <time>2024-05-23T07:47:20Z</time>
      </trkpt>
      <trkpt lat="45.16653" lon="4.4166">
        <ele>931</ele>
        <time>2024-05-23T07:47:23Z</time>
      </trkpt>
      <trkpt lat="45.16659" lon="4.4166">
        <ele>932</ele>
        <time>2024-05-23T07:47:28Z</time>
      </trkpt>
      <trkpt lat="45.16663" lon="4.4166">
        <ele>932</ele>
        <time>2024-05-23T07:47:32Z</time>
      </trkpt>
      <trkpt lat="45.16674" lon="4.4166">
        <ele>935</ele>
        <time>2024-05-23T07:47:44Z</time>
      </trkpt>
      <trkpt lat="45.16682" lon="4.41654">
        <ele>936</ele>
        <time>2024-05-23T07:47:53Z</time>
      </trkpt>
      <trkpt lat="45.16687" lon="4.41655">
        <ele>937</ele>
        <time>2024-05-23T07:47:58Z</time>
      </trkpt>
      <trkpt lat="45.16691" lon="4.41659">
        <ele>938</ele>
        <time>2024-05-23T07:48:02Z</time>
      </trkpt>
      <trkpt lat="45.16695" lon="4.41653">
        <ele>939</ele>
        <time>2024-05-23T07:48:07Z</time>
      </trkpt>
      <trkpt lat="45.167" lon="4.41655">
        <ele>940</ele>
        <time>2024-05-23T07:48:13Z</time>
      </trkpt>
      <trkpt lat="45.16707" lon="4.4165">
        <ele>941</ele>
        <time>2024-05-23T07:48:21Z</time>
      </trkpt>
      <trkpt lat="45.16712" lon="4.41655">
        <ele>942</ele>
        <time>2024-05-23T07:48:27Z</time>
      </trkpt>
      <trkpt lat="45.16717" lon="4.41654">
        <ele>943</ele>
        <time>2024-05-23T07:48:35Z</time>
      </trkpt>
      <trkpt lat="45.16719" lon="4.41662">
        <ele>944</ele>
        <time>2024-05-23T07:48:47Z</time>
      </trkpt>
      <trkpt lat="45.16722" lon="4.41656">
        <ele>945</ele>
        <time>2024-05-23T07:49:36Z</time>
      </trkpt>
      <trkpt lat="45.16727" lon="4.41652">
        <ele>945</ele>
        <time>2024-05-23T07:50:05Z</time>
      </trkpt>
      <trkpt lat="45.16733" lon="4.41647">
        <ele>946</ele>
        <time>2024-05-23T07:50:13Z</time>
      </trkpt>
      <trkpt lat="45.16735" lon="4.41642">
        <ele>946</ele>
        <time>2024-05-23T07:50:18Z</time>
      </trkpt>
      <trkpt lat="45.16739" lon="4.41637">
        <ele>947</ele>
        <time>2024-05-23T07:50:23Z</time>
      </trkpt>
      <trkpt lat="45.16745" lon="4.4164">
        <ele>947</ele>
        <time>2024-05-23T07:50:29Z</time>
      </trkpt>
      <trkpt lat="45.16749" lon="4.41641">
        <ele>948</ele>
        <time>2024-05-23T07:50:33Z</time>
      </trkpt>
      <trkpt lat="45.16775" lon="4.41636">
        <ele>950</ele>
        <time>2024-05-23T07:51:00Z</time>
      </trkpt>
      <trkpt lat="45.1678" lon="4.41633">
        <ele>951</ele>
        <time>2024-05-23T07:51:04Z</time>
      </trkpt>
      <trkpt lat="45.16784" lon="4.41632">
        <ele>951</ele>
        <time>2024-05-23T07:51:08Z</time>
      </trkpt>
      <trkpt lat="45.16793" lon="4.41629">
        <ele>953</ele>
        <time>2024-05-23T07:51:17Z</time>
      </trkpt>
      <trkpt lat="45.16798" lon="4.4163">
        <ele>953</ele>
        <time>2024-05-23T07:51:21Z</time>
      </trkpt>
      <trkpt lat="45.16804" lon="4.41626">
        <ele>954</ele>
        <time>2024-05-23T07:51:28Z</time>
      </trkpt>
      <trkpt lat="45.16809" lon="4.41626">
        <ele>954</ele>
        <time>2024-05-23T07:51:32Z</time>
      </trkpt>
      <trkpt lat="45.16813" lon="4.41623">
        <ele>954</ele>
        <time>2024-05-23T07:51:35Z</time>
      </trkpt>
      <trkpt lat="45.16818" lon="4.4162">
        <ele>955</ele>
        <time>2024-05-23T07:51:40Z</time>
      </trkpt>
      <trkpt lat="45.16822" lon="4.4162">
        <ele>955</ele>
        <time>2024-05-23T07:51:44Z</time>
      </trkpt>
      <trkpt lat="45.1683" lon="4.41617">
        <ele>956</ele>
        <time>2024-05-23T07:51:53Z</time>
      </trkpt>
      <trkpt lat="45.16835" lon="4.41617">
        <ele>957</ele>
        <time>2024-05-23T07:51:56Z</time>
      </trkpt>
      <trkpt lat="45.16853" lon="4.4161">
        <ele>959</ele>
        <time>2024-05-23T07:52:13Z</time>
      </trkpt>
      <trkpt lat="45.16859" lon="4.41605">
        <ele>959</ele>
        <time>2024-05-23T07:52:21Z</time>
      </trkpt>
      <trkpt lat="45.16864" lon="4.41605">
        <ele>960</ele>
        <time>2024-05-23T07:52:25Z</time>
      </trkpt>
      <trkpt lat="45.16868" lon="4.41608">
        <ele>960</ele>
        <time>2024-05-23T07:52:28Z</time>
      </trkpt>
      <trkpt lat="45.16872" lon="4.41611">
        <ele>961</ele>
        <time>2024-05-23T07:52:31Z</time>
      </trkpt>
      <trkpt lat="45.16868" lon="4.41623">
        <ele>963</ele>
        <time>2024-05-23T07:52:43Z</time>
      </trkpt>
      <trkpt lat="45.16865" lon="4.4163">
        <ele>964</ele>
        <time>2024-05-23T07:52:50Z</time>
      </trkpt>
      <trkpt lat="45.16859" lon="4.41637">
        <ele>965</ele>
        <time>2024-05-23T07:53:00Z</time>
      </trkpt>
      <trkpt lat="45.16857" lon="4.41644">
        <ele>966</ele>
        <time>2024-05-23T07:53:06Z</time>
      </trkpt>
      <trkpt lat="45.16853" lon="4.41649">
        <ele>967</ele>
        <time>2024-05-23T07:53:13Z</time>
      </trkpt>
      <trkpt lat="45.16848" lon="4.41652">
        <ele>969</ele>
        <time>2024-05-23T07:53:20Z</time>
      </trkpt>
      <trkpt lat="45.16845" lon="4.41658">
        <ele>969</ele>
        <time>2024-05-23T07:53:25Z</time>
      </trkpt>
      <trkpt lat="45.16841" lon="4.4166">
        <ele>970</ele>
        <time>2024-05-23T07:53:30Z</time>
      </trkpt>
      <trkpt lat="45.16837" lon="4.41669">
        <ele>971</ele>
        <time>2024-05-23T07:53:37Z</time>
      </trkpt>
      <trkpt lat="45.16829" lon="4.41674">
        <ele>972</ele>
        <time>2024-05-23T07:53:46Z</time>
      </trkpt>
      <trkpt lat="45.16828" lon="4.41682">
        <ele>974</ele>
        <time>2024-05-23T07:53:54Z</time>
      </trkpt>
      <trkpt lat="45.16824" lon="4.41685">
        <ele>974</ele>
        <time>2024-05-23T07:53:58Z</time>
      </trkpt>
      <trkpt lat="45.16817" lon="4.41696">
        <ele>976</ele>
        <time>2024-05-23T07:54:07Z</time>
      </trkpt>
      <trkpt lat="45.16813" lon="4.41699">
        <ele>976</ele>
        <time>2024-05-23T07:54:11Z</time>
      </trkpt>
      <trkpt lat="45.1681" lon="4.41703">
        <ele>976</ele>
        <time>2024-05-23T07:54:16Z</time>
      </trkpt>
      <trkpt lat="45.16799" lon="4.41722">
        <ele>980</ele>
        <time>2024-05-23T07:54:37Z</time>
      </trkpt>
      <trkpt lat="45.16794" lon="4.41726">
        <ele>981</ele>
        <time>2024-05-23T07:54:43Z</time>
      </trkpt>
      <trkpt lat="45.16791" lon="4.41731">
        <ele>981</ele>
        <time>2024-05-23T07:54:47Z</time>
      </trkpt>
      <trkpt lat="45.16772" lon="4.4176">
        <ele>987</ele>
        <time>2024-05-23T07:55:19Z</time>
      </trkpt>
      <trkpt lat="45.16754" lon="4.41786">
        <ele>991</ele>
        <time>2024-05-23T07:55:50Z</time>
      </trkpt>
      <trkpt lat="45.16739" lon="4.41807">
        <ele>995</ele>
        <time>2024-05-23T07:56:12Z</time>
      </trkpt>
      <trkpt lat="45.16735" lon="4.41816">
        <ele>996</ele>
        <time>2024-05-23T07:56:21Z</time>
      </trkpt>
      <trkpt lat="45.16733" lon="4.41821">
        <ele>997</ele>
        <time>2024-05-23T07:56:26Z</time>
      </trkpt>
      <trkpt lat="45.16729" lon="4.41828">
        <ele>998</ele>
        <time>2024-05-23T07:56:33Z</time>
      </trkpt>
      <trkpt lat="45.1672" lon="4.41844">
        <ele>1000</ele>
        <time>2024-05-23T07:56:48Z</time>
      </trkpt>
      <trkpt lat="45.16716" lon="4.41848">
        <ele>1001</ele>
        <time>2024-05-23T07:56:53Z</time>
      </trkpt>
      <trkpt lat="45.16713" lon="4.41855">
        <ele>1002</ele>
        <time>2024-05-23T07:57:00Z</time>
      </trkpt>
      <trkpt lat="45.16704" lon="4.41868">
        <ele>1004</ele>
        <time>2024-05-23T07:57:15Z</time>
      </trkpt>
      <trkpt lat="45.16702" lon="4.41873">
        <ele>1004</ele>
        <time>2024-05-23T07:57:19Z</time>
      </trkpt>
      <trkpt lat="45.16698" lon="4.41877">
        <ele>1004</ele>
        <time>2024-05-23T07:57:24Z</time>
      </trkpt>
      <trkpt lat="45.16693" lon="4.41888">
        <ele>1005</ele>
        <time>2024-05-23T07:57:33Z</time>
      </trkpt>
      <trkpt lat="45.1669" lon="4.41902">
        <ele>1007</ele>
        <time>2024-05-23T07:57:44Z</time>
      </trkpt>
      <trkpt lat="45.16686" lon="4.41908">
        <ele>1007</ele>
        <time>2024-05-23T07:57:50Z</time>
      </trkpt>
      <trkpt lat="45.16685" lon="4.4192">
        <ele>1009</ele>
        <time>2024-05-23T07:58:01Z</time>
      </trkpt>
      <trkpt lat="45.16686" lon="4.41927">
        <ele>1010</ele>
        <time>2024-05-23T07:58:06Z</time>
      </trkpt>
      <trkpt lat="45.16691" lon="4.41935">
        <ele>1012</ele>
        <time>2024-05-23T07:58:16Z</time>
      </trkpt>
      <trkpt lat="45.16699" lon="4.41934">
        <ele>1014</ele>
        <time>2024-05-23T07:58:31Z</time>
      </trkpt>
      <trkpt lat="45.16705" lon="4.41938">
        <ele>1015</ele>
        <time>2024-05-23T07:58:35Z</time>
      </trkpt>
      <trkpt lat="45.16712" lon="4.4194">
        <ele>1016</ele>
        <time>2024-05-23T07:58:44Z</time>
      </trkpt>
      <trkpt lat="45.16717" lon="4.41941">
        <ele>1016</ele>
        <time>2024-05-23T07:58:48Z</time>
      </trkpt>
      <trkpt lat="45.16722" lon="4.41939">
        <ele>1017</ele>
        <time>2024-05-23T07:58:52Z</time>
      </trkpt>
      <trkpt lat="45.1673" lon="4.41942">
        <ele>1018</ele>
        <time>2024-05-23T07:59:00Z</time>
      </trkpt>
      <trkpt lat="45.16734" lon="4.4194">
        <ele>1018</ele>
        <time>2024-05-23T07:59:04Z</time>
      </trkpt>
      <trkpt lat="45.16737" lon="4.41936">
        <ele>1019</ele>
        <time>2024-05-23T07:59:08Z</time>
      </trkpt>
      <trkpt lat="45.16742" lon="4.41939">
        <ele>1019</ele>
        <time>2024-05-23T07:59:12Z</time>
      </trkpt>
      <trkpt lat="45.16751" lon="4.41939">
        <ele>1019</ele>
        <time>2024-05-23T07:59:19Z</time>
      </trkpt>
      <trkpt lat="45.16756" lon="4.41937">
        <ele>1020</ele>
        <time>2024-05-23T07:59:24Z</time>
      </trkpt>
      <trkpt lat="45.16762" lon="4.4194">
        <ele>1020</ele>
        <time>2024-05-23T07:59:29Z</time>
      </trkpt>
      <trkpt lat="45.16766" lon="4.41943">
        <ele>1020</ele>
        <time>2024-05-23T07:59:32Z</time>
      </trkpt>
      <trkpt lat="45.1677" lon="4.41939">
        <ele>1021</ele>
        <time>2024-05-23T07:59:36Z</time>
      </trkpt>
      <trkpt lat="45.16775" lon="4.41942">
        <ele>1021</ele>
        <time>2024-05-23T07:59:41Z</time>
      </trkpt>
      <trkpt lat="45.16781" lon="4.41944">
        <ele>1022</ele>
        <time>2024-05-23T07:59:47Z</time>
      </trkpt>
      <trkpt lat="45.16786" lon="4.41941">
        <ele>1022</ele>
        <time>2024-05-23T07:59:50Z</time>
      </trkpt>
      <trkpt lat="45.16791" lon="4.41942">
        <ele>1023</ele>
        <time>2024-05-23T07:59:55Z</time>
      </trkpt>
      <trkpt lat="45.16795" lon="4.41944">
        <ele>1023</ele>
        <time>2024-05-23T07:59:59Z</time>
      </trkpt>
      <trkpt lat="45.16805" lon="4.41947">
        <ele>1024</ele>
        <time>2024-05-23T08:00:07Z</time>
      </trkpt>
      <trkpt lat="45.16809" lon="4.41945">
        <ele>1024</ele>
        <time>2024-05-23T08:00:11Z</time>
      </trkpt>
      <trkpt lat="45.16815" lon="4.41951">
        <ele>1025</ele>
        <time>2024-05-23T08:00:18Z</time>
      </trkpt>
      <trkpt lat="45.16821" lon="4.41953">
        <ele>1025</ele>
        <time>2024-05-23T08:00:24Z</time>
      </trkpt>
      <trkpt lat="45.16821" lon="4.41959">
        <ele>1026</ele>
        <time>2024-05-23T08:00:54Z</time>
      </trkpt>
      <trkpt lat="45.16846" lon="4.41988">
        <ele>1026</ele>
        <time>2024-05-23T08:06:05Z</time>
      </trkpt>
      <trkpt lat="45.16847" lon="4.41989">
        <ele>1026</ele>
        <time>2024-05-23T08:06:06Z</time>
      </trkpt>
      <trkpt lat="45.1685" lon="4.41993">
        <ele>1026</ele>
        <time>2024-05-23T08:06:10Z</time>
      </trkpt>
      <trkpt lat="45.16858" lon="4.41998">
        <ele>1026</ele>
        <time>2024-05-23T08:06:25Z</time>
      </trkpt>
      <trkpt lat="45.16887" lon="4.42003">
        <ele>1030</ele>
        <time>2024-05-23T08:06:56Z</time>
      </trkpt>
      <trkpt lat="45.16891" lon="4.42005">
        <ele>1030</ele>
        <time>2024-05-23T08:07:00Z</time>
      </trkpt>
      <trkpt lat="45.16897" lon="4.42006">
        <ele>1031</ele>
        <time>2024-05-23T08:07:06Z</time>
      </trkpt>
      <trkpt lat="45.16902" lon="4.42006">
        <ele>1033</ele>
        <time>2024-05-23T08:07:11Z</time>
      </trkpt>
      <trkpt lat="45.16907" lon="4.42007">
        <ele>1033</ele>
        <time>2024-05-23T08:07:16Z</time>
      </trkpt>
      <trkpt lat="45.1692" lon="4.42007">
        <ele>1035</ele>
        <time>2024-05-23T08:07:31Z</time>
      </trkpt>
      <trkpt lat="45.16949" lon="4.41996">
        <ele>1039</ele>
        <time>2024-05-23T08:08:02Z</time>
      </trkpt>
      <trkpt lat="45.16981" lon="4.41981">
        <ele>1042</ele>
        <time>2024-05-23T08:08:32Z</time>
      </trkpt>
      <trkpt lat="45.16985" lon="4.41979">
        <ele>1043</ele>
        <time>2024-05-23T08:08:36Z</time>
      </trkpt>
      <trkpt lat="45.16989" lon="4.41976">
        <ele>1043</ele>
        <time>2024-05-23T08:08:40Z</time>
      </trkpt>
      <trkpt lat="45.16994" lon="4.41975">
        <ele>1044</ele>
        <time>2024-05-23T08:08:45Z</time>
      </trkpt>
      <trkpt lat="45.16998" lon="4.41976">
        <ele>1044</ele>
        <time>2024-05-23T08:08:49Z</time>
      </trkpt>
      <trkpt lat="45.17003" lon="4.41978">
        <ele>1045</ele>
        <time>2024-05-23T08:08:53Z</time>
      </trkpt>
      <trkpt lat="45.17009" lon="4.41977">
        <ele>1045</ele>
        <time>2024-05-23T08:09:00Z</time>
      </trkpt>
      <trkpt lat="45.17013" lon="4.41976">
        <ele>1045</ele>
        <time>2024-05-23T08:09:04Z</time>
      </trkpt>
      <trkpt lat="45.1702" lon="4.41975">
        <ele>1045</ele>
        <time>2024-05-23T08:09:09Z</time>
      </trkpt>
      <trkpt lat="45.17024" lon="4.41975">
        <ele>1046</ele>
        <time>2024-05-23T08:09:13Z</time>
      </trkpt>
      <trkpt lat="45.17032" lon="4.41977">
        <ele>1047</ele>
        <time>2024-05-23T08:09:21Z</time>
      </trkpt>
      <trkpt lat="45.17035" lon="4.41973">
        <ele>1047</ele>
        <time>2024-05-23T08:09:25Z</time>
      </trkpt>
      <trkpt lat="45.17039" lon="4.41963">
        <ele>1048</ele>
        <time>2024-05-23T08:09:36Z</time>
      </trkpt>
      <trkpt lat="45.17041" lon="4.41957">
        <ele>1048</ele>
        <time>2024-05-23T08:09:41Z</time>
      </trkpt>
      <trkpt lat="45.17039" lon="4.41951">
        <ele>1048</ele>
        <time>2024-05-23T08:10:00Z</time>
      </trkpt>
      <trkpt lat="45.17041" lon="4.41945">
        <ele>1048</ele>
        <time>2024-05-23T08:10:05Z</time>
      </trkpt>
      <trkpt lat="45.17041" lon="4.41932">
        <ele>1048</ele>
        <time>2024-05-23T08:10:22Z</time>
      </trkpt>
      <trkpt lat="45.17041" lon="4.41913">
        <ele>1047</ele>
        <time>2024-05-23T08:10:36Z</time>
      </trkpt>
      <trkpt lat="45.17044" lon="4.41907">
        <ele>1047</ele>
        <time>2024-05-23T08:10:40Z</time>
      </trkpt>
      <trkpt lat="45.17046" lon="4.41888">
        <ele>1046</ele>
        <time>2024-05-23T08:10:51Z</time>
      </trkpt>
      <trkpt lat="45.17053" lon="4.41869">
        <ele>1045</ele>
        <time>2024-05-23T08:11:05Z</time>
      </trkpt>
      <trkpt lat="45.17053" lon="4.41854">
        <ele>1044</ele>
        <time>2024-05-23T08:11:13Z</time>
      </trkpt>
      <trkpt lat="45.17057" lon="4.41843">
        <ele>1044</ele>
        <time>2024-05-23T08:11:19Z</time>
      </trkpt>
      <trkpt lat="45.17058" lon="4.41836">
        <ele>1044</ele>
        <time>2024-05-23T08:11:23Z</time>
      </trkpt>
      <trkpt lat="45.17061" lon="4.41829">
        <ele>1044</ele>
        <time>2024-05-23T08:11:28Z</time>
      </trkpt>
      <trkpt lat="45.17065" lon="4.41824">
        <ele>1043</ele>
        <time>2024-05-23T08:11:32Z</time>
      </trkpt>
      <trkpt lat="45.17072" lon="4.41815">
        <ele>1043</ele>
        <time>2024-05-23T08:11:40Z</time>
      </trkpt>
      <trkpt lat="45.17074" lon="4.41808">
        <ele>1043</ele>
        <time>2024-05-23T08:11:44Z</time>
      </trkpt>
      <trkpt lat="45.1708" lon="4.41798">
        <ele>1042</ele>
        <time>2024-05-23T08:11:53Z</time>
      </trkpt>
      <trkpt lat="45.17091" lon="4.41769">
        <ele>1040</ele>
        <time>2024-05-23T08:12:13Z</time>
      </trkpt>
      <trkpt lat="45.17092" lon="4.41763">
        <ele>1040</ele>
        <time>2024-05-23T08:12:17Z</time>
      </trkpt>
      <trkpt lat="45.17102" lon="4.41741">
        <ele>1038</ele>
        <time>2024-05-23T08:12:33Z</time>
      </trkpt>
      <trkpt lat="45.17106" lon="4.41736">
        <ele>1037</ele>
        <time>2024-05-23T08:12:37Z</time>
      </trkpt>
      <trkpt lat="45.1711" lon="4.41731">
        <ele>1037</ele>
        <time>2024-05-23T08:12:41Z</time>
      </trkpt>
      <trkpt lat="45.17113" lon="4.41727">
        <ele>1036</ele>
        <time>2024-05-23T08:12:45Z</time>
      </trkpt>
      <trkpt lat="45.17115" lon="4.41721">
        <ele>1036</ele>
        <time>2024-05-23T08:12:48Z</time>
      </trkpt>
      <trkpt lat="45.17122" lon="4.41712">
        <ele>1035</ele>
        <time>2024-05-23T08:12:56Z</time>
      </trkpt>
      <trkpt lat="45.17125" lon="4.41707">
        <ele>1035</ele>
        <time>2024-05-23T08:13:00Z</time>
      </trkpt>
      <trkpt lat="45.17152" lon="4.41674">
        <ele>1030</ele>
        <time>2024-05-23T08:13:35Z</time>
      </trkpt>
      <trkpt lat="45.17154" lon="4.41667">
        <ele>1029</ele>
        <time>2024-05-23T08:13:39Z</time>
      </trkpt>
      <trkpt lat="45.17157" lon="4.41662">
        <ele>1028</ele>
        <time>2024-05-23T08:13:44Z</time>
      </trkpt>
      <trkpt lat="45.17161" lon="4.41662">
        <ele>1028</ele>
        <time>2024-05-23T08:13:52Z</time>
      </trkpt>
      <trkpt lat="45.17165" lon="4.41658">
        <ele>1027</ele>
        <time>2024-05-23T08:14:52Z</time>
      </trkpt>
      <trkpt lat="45.17165" lon="4.41654">
        <ele>1026</ele>
        <time>2024-05-23T08:16:57Z</time>
      </trkpt>
      <trkpt lat="45.17186" lon="4.41627">
        <ele>1022</ele>
        <time>2024-05-23T08:18:44Z</time>
      </trkpt>
      <trkpt lat="45.17186" lon="4.41627">
        <ele>1022</ele>
        <time>2024-05-23T08:18:45Z</time>
      </trkpt>
      <trkpt lat="45.1719" lon="4.41622">
        <ele>1021</ele>
        <time>2024-05-23T08:18:50Z</time>
      </trkpt>
      <trkpt lat="45.17195" lon="4.41619">
        <ele>1021</ele>
        <time>2024-05-23T08:18:54Z</time>
      </trkpt>
      <trkpt lat="45.17199" lon="4.41615">
        <ele>1020</ele>
        <time>2024-05-23T08:18:57Z</time>
      </trkpt>
      <trkpt lat="45.17202" lon="4.4161">
        <ele>1020</ele>
        <time>2024-05-23T08:19:00Z</time>
      </trkpt>
      <trkpt lat="45.17206" lon="4.41606">
        <ele>1019</ele>
        <time>2024-05-23T08:19:04Z</time>
      </trkpt>
      <trkpt lat="45.17209" lon="4.41601">
        <ele>1019</ele>
        <time>2024-05-23T08:19:08Z</time>
      </trkpt>
      <trkpt lat="45.17224" lon="4.41584">
        <ele>1017</ele>
        <time>2024-05-23T08:19:23Z</time>
      </trkpt>
      <trkpt lat="45.1723" lon="4.41573">
        <ele>1016</ele>
        <time>2024-05-23T08:19:32Z</time>
      </trkpt>
      <trkpt lat="45.17233" lon="4.41568">
        <ele>1016</ele>
        <time>2024-05-23T08:19:36Z</time>
      </trkpt>
      <trkpt lat="45.17245" lon="4.41557">
        <ele>1014</ele>
        <time>2024-05-23T08:19:48Z</time>
      </trkpt>
      <trkpt lat="45.17256" lon="4.41543">
        <ele>1013</ele>
        <time>2024-05-23T08:19:59Z</time>
      </trkpt>
      <trkpt lat="45.17257" lon="4.41537">
        <ele>1013</ele>
        <time>2024-05-23T08:20:02Z</time>
      </trkpt>
      <trkpt lat="45.17266" lon="4.41529">
        <ele>1013</ele>
        <time>2024-05-23T08:20:10Z</time>
      </trkpt>
      <trkpt lat="45.17272" lon="4.4152">
        <ele>1013</ele>
        <time>2024-05-23T08:20:18Z</time>
      </trkpt>
      <trkpt lat="45.17288" lon="4.41504">
        <ele>1012</ele>
        <time>2024-05-23T08:20:35Z</time>
      </trkpt>
      <trkpt lat="45.17291" lon="4.41499">
        <ele>1012</ele>
        <time>2024-05-23T08:20:39Z</time>
      </trkpt>
      <trkpt lat="45.17306" lon="4.41485">
        <ele>1012</ele>
        <time>2024-05-23T08:20:54Z</time>
      </trkpt>
      <trkpt lat="45.17308" lon="4.4148">
        <ele>1012</ele>
        <time>2024-05-23T08:20:58Z</time>
      </trkpt>
      <trkpt lat="45.17317" lon="4.41473">
        <ele>1011</ele>
        <time>2024-05-23T08:21:05Z</time>
      </trkpt>
      <trkpt lat="45.17319" lon="4.41468">
        <ele>1011</ele>
        <time>2024-05-23T08:21:08Z</time>
      </trkpt>
      <trkpt lat="45.17327" lon="4.41461">
        <ele>1011</ele>
        <time>2024-05-23T08:21:15Z</time>
      </trkpt>
      <trkpt lat="45.17329" lon="4.41456">
        <ele>1011</ele>
        <time>2024-05-23T08:21:18Z</time>
      </trkpt>
      <trkpt lat="45.17335" lon="4.41456">
        <ele>1011</ele>
        <time>2024-05-23T08:21:27Z</time>
      </trkpt>
      <trkpt lat="45.17346" lon="4.41444">
        <ele>1010</ele>
        <time>2024-05-23T08:21:40Z</time>
      </trkpt>
      <trkpt lat="45.1735" lon="4.4144">
        <ele>1010</ele>
        <time>2024-05-23T08:21:44Z</time>
      </trkpt>
      <trkpt lat="45.1736" lon="4.41428">
        <ele>1009</ele>
        <time>2024-05-23T08:21:56Z</time>
      </trkpt>
      <trkpt lat="45.17364" lon="4.41422">
        <ele>1010</ele>
        <time>2024-05-23T08:22:00Z</time>
      </trkpt>
      <trkpt lat="45.17368" lon="4.41418">
        <ele>1010</ele>
        <time>2024-05-23T08:22:04Z</time>
      </trkpt>
      <trkpt lat="45.17398" lon="4.41381">
        <ele>1010</ele>
        <time>2024-05-23T08:22:36Z</time>
      </trkpt>
      <trkpt lat="45.17407" lon="4.41365">
        <ele>1010</ele>
        <time>2024-05-23T08:22:46Z</time>
      </trkpt>
      <trkpt lat="45.17413" lon="4.41353">
        <ele>1009</ele>
        <time>2024-05-23T08:22:54Z</time>
      </trkpt>
      <trkpt lat="45.17417" lon="4.4135">
        <ele>1009</ele>
        <time>2024-05-23T08:22:59Z</time>
      </trkpt>
      <trkpt lat="45.17423" lon="4.4134">
        <ele>1008</ele>
        <time>2024-05-23T08:23:08Z</time>
      </trkpt>
      <trkpt lat="45.17426" lon="4.41334">
        <ele>1008</ele>
        <time>2024-05-23T08:23:10Z</time>
      </trkpt>
      <trkpt lat="45.1743" lon="4.41332">
        <ele>1008</ele>
        <time>2024-05-23T08:23:15Z</time>
      </trkpt>
      <trkpt lat="45.17432" lon="4.41326">
        <ele>1007</ele>
        <time>2024-05-23T08:23:18Z</time>
      </trkpt>
      <trkpt lat="45.17437" lon="4.41323">
        <ele>1006</ele>
        <time>2024-05-23T08:23:21Z</time>
      </trkpt>
      <trkpt lat="45.17441" lon="4.41319">
        <ele>1006</ele>
        <time>2024-05-23T08:23:26Z</time>
      </trkpt>
      <trkpt lat="45.17449" lon="4.413">
        <ele>1005</ele>
        <time>2024-05-23T08:23:38Z</time>
      </trkpt>
      <trkpt lat="45.17449" lon="4.41294">
        <ele>1005</ele>
        <time>2024-05-23T08:23:41Z</time>
      </trkpt>
      <trkpt lat="45.17451" lon="4.41289">
        <ele>1005</ele>
        <time>2024-05-23T08:23:44Z</time>
      </trkpt>
      <trkpt lat="45.17454" lon="4.41283">
        <ele>1004</ele>
        <time>2024-05-23T08:23:48Z</time>
      </trkpt>
      <trkpt lat="45.1746" lon="4.41271">
        <ele>1003</ele>
        <time>2024-05-23T08:23:56Z</time>
      </trkpt>
      <trkpt lat="45.17465" lon="4.41244">
        <ele>1002</ele>
        <time>2024-05-23T08:24:12Z</time>
      </trkpt>
      <trkpt lat="45.17471" lon="4.41225">
        <ele>1000</ele>
        <time>2024-05-23T08:24:28Z</time>
      </trkpt>
      <trkpt lat="45.17477" lon="4.41213">
        <ele>998</ele>
        <time>2024-05-23T08:24:38Z</time>
      </trkpt>
      <trkpt lat="45.17478" lon="4.41206">
        <ele>997</ele>
        <time>2024-05-23T08:24:41Z</time>
      </trkpt>
      <trkpt lat="45.17482" lon="4.41195">
        <ele>996</ele>
        <time>2024-05-23T08:24:48Z</time>
      </trkpt>
      <trkpt lat="45.17484" lon="4.4119">
        <ele>995</ele>
        <time>2024-05-23T08:24:52Z</time>
      </trkpt>
      <trkpt lat="45.17491" lon="4.41165">
        <ele>993</ele>
        <time>2024-05-23T08:25:05Z</time>
      </trkpt>
      <trkpt lat="45.17494" lon="4.41158">
        <ele>992</ele>
        <time>2024-05-23T08:25:12Z</time>
      </trkpt>
      <trkpt lat="45.17497" lon="4.4115">
        <ele>992</ele>
        <time>2024-05-23T08:25:16Z</time>
      </trkpt>
      <trkpt lat="45.17501" lon="4.41136">
        <ele>991</ele>
        <time>2024-05-23T08:25:25Z</time>
      </trkpt>
      <trkpt lat="45.17504" lon="4.4113">
        <ele>991</ele>
        <time>2024-05-23T08:25:28Z</time>
      </trkpt>
      <trkpt lat="45.17505" lon="4.41123">
        <ele>990</ele>
        <time>2024-05-23T08:25:31Z</time>
      </trkpt>
      <trkpt lat="45.17508" lon="4.41117">
        <ele>990</ele>
        <time>2024-05-23T08:25:35Z</time>
      </trkpt>
      <trkpt lat="45.17511" lon="4.41109">
        <ele>990</ele>
        <time>2024-05-23T08:25:43Z</time>
      </trkpt>
      <trkpt lat="45.17528" lon="4.41054">
        <ele>989</ele>
        <time>2024-05-23T08:26:14Z</time>
      </trkpt>
      <trkpt lat="45.17535" lon="4.41027">
        <ele>990</ele>
        <time>2024-05-23T08:26:30Z</time>
      </trkpt>
      <trkpt lat="45.17537" lon="4.41008">
        <ele>989</ele>
        <time>2024-05-23T08:26:41Z</time>
      </trkpt>
      <trkpt lat="45.17539" lon="4.41001">
        <ele>989</ele>
        <time>2024-05-23T08:26:46Z</time>
      </trkpt>
      <trkpt lat="45.17539" lon="4.4098">
        <ele>989</ele>
        <time>2024-05-23T08:26:58Z</time>
      </trkpt>
      <trkpt lat="45.17537" lon="4.4096">
        <ele>987</ele>
        <time>2024-05-23T08:27:10Z</time>
      </trkpt>
      <trkpt lat="45.17536" lon="4.40953">
        <ele>987</ele>
        <time>2024-05-23T08:27:14Z</time>
      </trkpt>
      <trkpt lat="45.17532" lon="4.40934">
        <ele>984</ele>
        <time>2024-05-23T08:27:27Z</time>
      </trkpt>
      <trkpt lat="45.1753" lon="4.40928">
        <ele>983</ele>
        <time>2024-05-23T08:27:31Z</time>
      </trkpt>
      <trkpt lat="45.17525" lon="4.40903">
        <ele>980</ele>
        <time>2024-05-23T08:27:46Z</time>
      </trkpt>
      <trkpt lat="45.17528" lon="4.40909">
        <ele>980</ele>
        <time>2024-05-23T08:28:11Z</time>
      </trkpt>
      <trkpt lat="45.17528" lon="4.40913">
        <ele>980</ele>
        <time>2024-05-23T08:29:15Z</time>
      </trkpt>
      <trkpt lat="45.17531" lon="4.40902">
        <ele>981</ele>
        <time>2024-05-23T08:29:38Z</time>
      </trkpt>
      <trkpt lat="45.17535" lon="4.40896">
        <ele>979</ele>
        <time>2024-05-23T08:29:42Z</time>
      </trkpt>
      <trkpt lat="45.17538" lon="4.40898">
        <ele>979</ele>
        <time>2024-05-23T08:30:08Z</time>
      </trkpt>
      <trkpt lat="45.17537" lon="4.409">
        <ele>979</ele>
        <time>2024-05-23T08:31:19Z</time>
      </trkpt>
      <trkpt lat="45.17534" lon="4.40896">
        <ele>980</ele>
        <time>2024-05-23T08:31:31Z</time>
      </trkpt>
      <trkpt lat="45.17544" lon="4.40854">
        <ele>975</ele>
        <time>2024-05-23T08:34:22Z</time>
      </trkpt>
      <trkpt lat="45.17545" lon="4.40853">
        <ele>974</ele>
        <time>2024-05-23T08:34:23Z</time>
      </trkpt>
      <trkpt lat="45.17562" lon="4.40805">
        <ele>966</ele>
        <time>2024-05-23T08:34:54Z</time>
      </trkpt>
      <trkpt lat="45.17568" lon="4.40793">
        <ele>965</ele>
        <time>2024-05-23T08:35:03Z</time>
      </trkpt>
      <trkpt lat="45.17568" lon="4.4078">
        <ele>963</ele>
        <time>2024-05-23T08:35:12Z</time>
      </trkpt>
      <trkpt lat="45.17563" lon="4.40768">
        <ele>962</ele>
        <time>2024-05-23T08:35:21Z</time>
      </trkpt>
      <trkpt lat="45.17556" lon="4.40759">
        <ele>961</ele>
        <time>2024-05-23T08:35:29Z</time>
      </trkpt>
      <trkpt lat="45.17544" lon="4.40749">
        <ele>959</ele>
        <time>2024-05-23T08:35:43Z</time>
      </trkpt>
      <trkpt lat="45.17537" lon="4.40741">
        <ele>957</ele>
        <time>2024-05-23T08:35:55Z</time>
      </trkpt>
      <trkpt lat="45.17533" lon="4.40735">
        <ele>955</ele>
        <time>2024-05-23T08:36:08Z</time>
      </trkpt>
      <trkpt lat="45.17534" lon="4.40728">
        <ele>955</ele>
        <time>2024-05-23T08:36:16Z</time>
      </trkpt>
      <trkpt lat="45.17539" lon="4.40727">
        <ele>955</ele>
        <time>2024-05-23T08:36:42Z</time>
      </trkpt>
      <trkpt lat="45.17541" lon="4.40721">
        <ele>954</ele>
        <time>2024-05-23T08:36:48Z</time>
      </trkpt>
      <trkpt lat="45.17563" lon="4.40709">
        <ele>952</ele>
        <time>2024-05-23T08:37:11Z</time>
      </trkpt>
      <trkpt lat="45.17567" lon="4.40708">
        <ele>951</ele>
        <time>2024-05-23T08:37:15Z</time>
      </trkpt>
      <trkpt lat="45.17594" lon="4.40688">
        <ele>947</ele>
        <time>2024-05-23T08:37:40Z</time>
      </trkpt>
      <trkpt lat="45.17595" lon="4.40678">
        <ele>946</ele>
        <time>2024-05-23T08:37:48Z</time>
      </trkpt>
      <trkpt lat="45.17589" lon="4.40665">
        <ele>944</ele>
        <time>2024-05-23T08:37:59Z</time>
      </trkpt>
      <trkpt lat="45.1759" lon="4.40656">
        <ele>943</ele>
        <time>2024-05-23T08:38:04Z</time>
      </trkpt>
      <trkpt lat="45.17594" lon="4.40653">
        <ele>942</ele>
        <time>2024-05-23T08:38:08Z</time>
      </trkpt>
      <trkpt lat="45.17609" lon="4.40656">
        <ele>940</ele>
        <time>2024-05-23T08:38:23Z</time>
      </trkpt>
      <trkpt lat="45.17618" lon="4.40663">
        <ele>939</ele>
        <time>2024-05-23T08:38:31Z</time>
      </trkpt>
      <trkpt lat="45.17622" lon="4.40664">
        <ele>939</ele>
        <time>2024-05-23T08:38:35Z</time>
      </trkpt>
      <trkpt lat="45.17625" lon="4.4067">
        <ele>938</ele>
        <time>2024-05-23T08:38:40Z</time>
      </trkpt>
      <trkpt lat="45.17629" lon="4.40671">
        <ele>938</ele>
        <time>2024-05-23T08:38:45Z</time>
      </trkpt>
      <trkpt lat="45.17633" lon="4.40667">
        <ele>937</ele>
        <time>2024-05-23T08:38:49Z</time>
      </trkpt>
      <trkpt lat="45.17641" lon="4.40674">
        <ele>936</ele>
        <time>2024-05-23T08:39:03Z</time>
      </trkpt>
      <trkpt lat="45.17652" lon="4.40678">
        <ele>933</ele>
        <time>2024-05-23T08:39:14Z</time>
      </trkpt>
      <trkpt lat="45.1766" lon="4.40683">
        <ele>932</ele>
        <time>2024-05-23T08:39:22Z</time>
      </trkpt>
      <trkpt lat="45.17663" lon="4.40688">
        <ele>932</ele>
        <time>2024-05-23T08:39:25Z</time>
      </trkpt>
      <trkpt lat="45.17667" lon="4.4069">
        <ele>930</ele>
        <time>2024-05-23T08:39:29Z</time>
      </trkpt>
      <trkpt lat="45.17701" lon="4.4072">
        <ele>925</ele>
        <time>2024-05-23T08:40:00Z</time>
      </trkpt>
      <trkpt lat="45.17706" lon="4.40719">
        <ele>925</ele>
        <time>2024-05-23T08:40:04Z</time>
      </trkpt>
      <trkpt lat="45.17707" lon="4.40713">
        <ele>924</ele>
        <time>2024-05-23T08:40:07Z</time>
      </trkpt>
      <trkpt lat="45.17704" lon="4.407">
        <ele>922</ele>
        <time>2024-05-23T08:40:14Z</time>
      </trkpt>
      <trkpt lat="45.17702" lon="4.40693">
        <ele>922</ele>
        <time>2024-05-23T08:40:18Z</time>
      </trkpt>
      <trkpt lat="45.17703" lon="4.40686">
        <ele>921</ele>
        <time>2024-05-23T08:40:22Z</time>
      </trkpt>
      <trkpt lat="45.17701" lon="4.40679">
        <ele>920</ele>
        <time>2024-05-23T08:40:27Z</time>
      </trkpt>
      <trkpt lat="45.17708" lon="4.40677">
        <ele>918</ele>
        <time>2024-05-23T08:40:33Z</time>
      </trkpt>
      <trkpt lat="45.17704" lon="4.40671">
        <ele>918</ele>
        <time>2024-05-23T08:40:43Z</time>
      </trkpt>
      <trkpt lat="45.17701" lon="4.40666">
        <ele>917</ele>
        <time>2024-05-23T08:40:48Z</time>
      </trkpt>
      <trkpt lat="45.1769" lon="4.40641">
        <ele>914</ele>
        <time>2024-05-23T08:41:05Z</time>
      </trkpt>
      <trkpt lat="45.17686" lon="4.40636">
        <ele>914</ele>
        <time>2024-05-23T08:41:08Z</time>
      </trkpt>
      <trkpt lat="45.17676" lon="4.40614">
        <ele>912</ele>
        <time>2024-05-23T08:41:22Z</time>
      </trkpt>
      <trkpt lat="45.17673" lon="4.40609">
        <ele>911</ele>
        <time>2024-05-23T08:41:26Z</time>
      </trkpt>
      <trkpt lat="45.1767" lon="4.40596">
        <ele>911</ele>
        <time>2024-05-23T08:41:34Z</time>
      </trkpt>
      <trkpt lat="45.17663" lon="4.40586">
        <ele>910</ele>
        <time>2024-05-23T08:41:42Z</time>
      </trkpt>
      <trkpt lat="45.17663" lon="4.40579">
        <ele>910</ele>
        <time>2024-05-23T08:41:45Z</time>
      </trkpt>
      <trkpt lat="45.1766" lon="4.40574">
        <ele>909</ele>
        <time>2024-05-23T08:41:48Z</time>
      </trkpt>
      <trkpt lat="45.17652" lon="4.40557">
        <ele>907</ele>
        <time>2024-05-23T08:41:59Z</time>
      </trkpt>
      <trkpt lat="45.17655" lon="4.4055">
        <ele>907</ele>
        <time>2024-05-23T08:42:03Z</time>
      </trkpt>
      <trkpt lat="45.17659" lon="4.40549">
        <ele>906</ele>
        <time>2024-05-23T08:42:06Z</time>
      </trkpt>
      <trkpt lat="45.17664" lon="4.4055">
        <ele>906</ele>
        <time>2024-05-23T08:42:09Z</time>
      </trkpt>
      <trkpt lat="45.17675" lon="4.40548">
        <ele>904</ele>
        <time>2024-05-23T08:42:17Z</time>
      </trkpt>
      <trkpt lat="45.1769" lon="4.40533">
        <ele>903</ele>
        <time>2024-05-23T08:42:34Z</time>
      </trkpt>
      <trkpt lat="45.17694" lon="4.40529">
        <ele>902</ele>
        <time>2024-05-23T08:42:43Z</time>
      </trkpt>
      <trkpt lat="45.17695" lon="4.40522">
        <ele>902</ele>
        <time>2024-05-23T08:42:46Z</time>
      </trkpt>
      <trkpt lat="45.17699" lon="4.40521">
        <ele>902</ele>
        <time>2024-05-23T08:42:50Z</time>
      </trkpt>
      <trkpt lat="45.17702" lon="4.40515">
        <ele>902</ele>
        <time>2024-05-23T08:42:54Z</time>
      </trkpt>
      <trkpt lat="45.17706" lon="4.40503">
        <ele>901</ele>
        <time>2024-05-23T08:43:00Z</time>
      </trkpt>
      <trkpt lat="45.17706" lon="4.40497">
        <ele>901</ele>
        <time>2024-05-23T08:43:03Z</time>
      </trkpt>
      <trkpt lat="45.17706" lon="4.4049">
        <ele>901</ele>
        <time>2024-05-23T08:43:07Z</time>
      </trkpt>
      <trkpt lat="45.17705" lon="4.4048">
        <ele>901</ele>
        <time>2024-05-23T08:43:17Z</time>
      </trkpt>
      <trkpt lat="45.17704" lon="4.40473">
        <ele>900</ele>
        <time>2024-05-23T08:43:21Z</time>
      </trkpt>
      <trkpt lat="45.17701" lon="4.40432">
        <ele>900</ele>
        <time>2024-05-23T08:43:44Z</time>
      </trkpt>
      <trkpt lat="45.17707" lon="4.40377">
        <ele>899</ele>
        <time>2024-05-23T08:44:17Z</time>
      </trkpt>
      <trkpt lat="45.17709" lon="4.40378">
        <ele>899</ele>
        <time>2024-05-23T08:44:58Z</time>
      </trkpt>
      <trkpt lat="45.17715" lon="4.40378">
        <ele>899</ele>
        <time>2024-05-23T08:45:33Z</time>
      </trkpt>
      <trkpt lat="45.17729" lon="4.40384">
        <ele>902</ele>
        <time>2024-05-23T08:45:52Z</time>
      </trkpt>
      <trkpt lat="45.17727" lon="4.40394">
        <ele>904</ele>
        <time>2024-05-23T08:46:05Z</time>
      </trkpt>
      <trkpt lat="45.17727" lon="4.40403">
        <ele>905</ele>
        <time>2024-05-23T08:46:20Z</time>
      </trkpt>
      <trkpt lat="45.17725" lon="4.4041">
        <ele>907</ele>
        <time>2024-05-23T08:46:34Z</time>
      </trkpt>
      <trkpt lat="45.17721" lon="4.40434">
        <ele>911</ele>
        <time>2024-05-23T08:46:58Z</time>
      </trkpt>
      <trkpt lat="45.17724" lon="4.40438">
        <ele>912</ele>
        <time>2024-05-23T08:47:06Z</time>
      </trkpt>
      <trkpt lat="45.17724" lon="4.40447">
        <ele>913</ele>
        <time>2024-05-23T08:47:14Z</time>
      </trkpt>
      <trkpt lat="45.17725" lon="4.40454">
        <ele>915</ele>
        <time>2024-05-23T08:47:19Z</time>
      </trkpt>
      <trkpt lat="45.17728" lon="4.40471">
        <ele>917</ele>
        <time>2024-05-23T08:47:35Z</time>
      </trkpt>
      <trkpt lat="45.17729" lon="4.40482">
        <ele>917</ele>
        <time>2024-05-23T08:47:48Z</time>
      </trkpt>
      <trkpt lat="45.17733" lon="4.40488">
        <ele>917</ele>
        <time>2024-05-23T08:47:53Z</time>
      </trkpt>
      <trkpt lat="45.17734" lon="4.40494">
        <ele>918</ele>
        <time>2024-05-23T08:47:57Z</time>
      </trkpt>
      <trkpt lat="45.1774" lon="4.40502">
        <ele>918</ele>
        <time>2024-05-23T08:48:05Z</time>
      </trkpt>
      <trkpt lat="45.17743" lon="4.40505">
        <ele>919</ele>
        <time>2024-05-23T08:48:09Z</time>
      </trkpt>
      <trkpt lat="45.17746" lon="4.40514">
        <ele>920</ele>
        <time>2024-05-23T08:48:16Z</time>
      </trkpt>
      <trkpt lat="45.1775" lon="4.40521">
        <ele>920</ele>
        <time>2024-05-23T08:48:22Z</time>
      </trkpt>
      <trkpt lat="45.17754" lon="4.40522">
        <ele>920</ele>
        <time>2024-05-23T08:48:25Z</time>
      </trkpt>
      <trkpt lat="45.17759" lon="4.40529">
        <ele>921</ele>
        <time>2024-05-23T08:48:32Z</time>
      </trkpt>
      <trkpt lat="45.17764" lon="4.40534">
        <ele>921</ele>
        <time>2024-05-23T08:48:38Z</time>
      </trkpt>
      <trkpt lat="45.1777" lon="4.4054">
        <ele>922</ele>
        <time>2024-05-23T08:48:45Z</time>
      </trkpt>
      <trkpt lat="45.17772" lon="4.40546">
        <ele>923</ele>
        <time>2024-05-23T08:48:51Z</time>
      </trkpt>
      <trkpt lat="45.17783" lon="4.40556">
        <ele>924</ele>
        <time>2024-05-23T08:49:05Z</time>
      </trkpt>
      <trkpt lat="45.17789" lon="4.40558">
        <ele>926</ele>
        <time>2024-05-23T08:49:15Z</time>
      </trkpt>
      <trkpt lat="45.17794" lon="4.40555">
        <ele>927</ele>
        <time>2024-05-23T08:49:21Z</time>
      </trkpt>
      <trkpt lat="45.1779" lon="4.4055">
        <ele>928</ele>
        <time>2024-05-23T08:49:29Z</time>
      </trkpt>
      <trkpt lat="45.17788" lon="4.40545">
        <ele>928</ele>
        <time>2024-05-23T08:49:33Z</time>
      </trkpt>
      <trkpt lat="45.1777" lon="4.40512">
        <ele>932</ele>
        <time>2024-05-23T08:50:06Z</time>
      </trkpt>
      <trkpt lat="45.17766" lon="4.40497">
        <ele>934</ele>
        <time>2024-05-23T08:50:19Z</time>
      </trkpt>
      <trkpt lat="45.17765" lon="4.40483">
        <ele>935</ele>
        <time>2024-05-23T08:50:29Z</time>
      </trkpt>
      <trkpt lat="45.17769" lon="4.40468">
        <ele>936</ele>
        <time>2024-05-23T08:50:41Z</time>
      </trkpt>
      <trkpt lat="45.17771" lon="4.40462">
        <ele>937</ele>
        <time>2024-05-23T08:50:47Z</time>
      </trkpt>
      <trkpt lat="45.17776" lon="4.40461">
        <ele>938</ele>
        <time>2024-05-23T08:50:52Z</time>
      </trkpt>
      <trkpt lat="45.17781" lon="4.40458">
        <ele>939</ele>
        <time>2024-05-23T08:50:58Z</time>
      </trkpt>
      <trkpt lat="45.17787" lon="4.4046">
        <ele>940</ele>
        <time>2024-05-23T08:51:08Z</time>
      </trkpt>
      <trkpt lat="45.1779" lon="4.40465">
        <ele>941</ele>
        <time>2024-05-23T08:51:12Z</time>
      </trkpt>
      <trkpt lat="45.1779" lon="4.40472">
        <ele>942</ele>
        <time>2024-05-23T08:51:18Z</time>
      </trkpt>
      <trkpt lat="45.1779" lon="4.40484">
        <ele>943</ele>
        <time>2024-05-23T08:51:42Z</time>
      </trkpt>
      <trkpt lat="45.17806" lon="4.4051">
        <ele>946</ele>
        <time>2024-05-23T08:52:11Z</time>
      </trkpt>
      <trkpt lat="45.17811" lon="4.40514">
        <ele>947</ele>
        <time>2024-05-23T08:52:16Z</time>
      </trkpt>
      <trkpt lat="45.17815" lon="4.4052">
        <ele>948</ele>
        <time>2024-05-23T08:52:22Z</time>
      </trkpt>
      <trkpt lat="45.17819" lon="4.40523">
        <ele>949</ele>
        <time>2024-05-23T08:52:27Z</time>
      </trkpt>
      <trkpt lat="45.17824" lon="4.40521">
        <ele>950</ele>
        <time>2024-05-23T08:52:33Z</time>
      </trkpt>
      <trkpt lat="45.17826" lon="4.40514">
        <ele>950</ele>
        <time>2024-05-23T08:52:37Z</time>
      </trkpt>
      <trkpt lat="45.17828" lon="4.405">
        <ele>953</ele>
        <time>2024-05-23T08:52:49Z</time>
      </trkpt>
      <trkpt lat="45.17831" lon="4.40493">
        <ele>954</ele>
        <time>2024-05-23T08:52:56Z</time>
      </trkpt>
      <trkpt lat="45.17835" lon="4.40488">
        <ele>955</ele>
        <time>2024-05-23T08:53:02Z</time>
      </trkpt>
      <trkpt lat="45.17844" lon="4.4048">
        <ele>956</ele>
        <time>2024-05-23T08:53:15Z</time>
      </trkpt>
      <trkpt lat="45.17851" lon="4.40478">
        <ele>956</ele>
        <time>2024-05-23T08:53:22Z</time>
      </trkpt>
      <trkpt lat="45.1786" lon="4.4048">
        <ele>958</ele>
        <time>2024-05-23T08:53:32Z</time>
      </trkpt>
      <trkpt lat="45.17864" lon="4.40484">
        <ele>959</ele>
        <time>2024-05-23T08:53:37Z</time>
      </trkpt>
      <trkpt lat="45.17875" lon="4.40498">
        <ele>962</ele>
        <time>2024-05-23T08:53:54Z</time>
      </trkpt>
      <trkpt lat="45.17879" lon="4.40501">
        <ele>962</ele>
        <time>2024-05-23T08:53:58Z</time>
      </trkpt>
      <trkpt lat="45.17891" lon="4.40504">
        <ele>964</ele>
        <time>2024-05-23T08:54:11Z</time>
      </trkpt>
      <trkpt lat="45.17895" lon="4.40504">
        <ele>964</ele>
        <time>2024-05-23T08:54:16Z</time>
      </trkpt>
      <trkpt lat="45.179" lon="4.40507">
        <ele>964</ele>
        <time>2024-05-23T08:54:21Z</time>
      </trkpt>
      <trkpt lat="45.17904" lon="4.40508">
        <ele>964</ele>
        <time>2024-05-23T08:54:25Z</time>
      </trkpt>
      <trkpt lat="45.17909" lon="4.40508">
        <ele>965</ele>
        <time>2024-05-23T08:54:30Z</time>
      </trkpt>
      <trkpt lat="45.17917" lon="4.4051">
        <ele>966</ele>
        <time>2024-05-23T08:54:38Z</time>
      </trkpt>
      <trkpt lat="45.17922" lon="4.40509">
        <ele>966</ele>
        <time>2024-05-23T08:54:41Z</time>
      </trkpt>
      <trkpt lat="45.17929" lon="4.40511">
        <ele>967</ele>
        <time>2024-05-23T08:54:48Z</time>
      </trkpt>
      <trkpt lat="45.17934" lon="4.40512">
        <ele>967</ele>
        <time>2024-05-23T08:54:53Z</time>
      </trkpt>
      <trkpt lat="45.1796" lon="4.40515">
        <ele>969</ele>
        <time>2024-05-23T08:55:20Z</time>
      </trkpt>
      <trkpt lat="45.17971" lon="4.40521">
        <ele>971</ele>
        <time>2024-05-23T08:55:31Z</time>
      </trkpt>
      <trkpt lat="45.17974" lon="4.40527">
        <ele>972</ele>
        <time>2024-05-23T08:55:37Z</time>
      </trkpt>
      <trkpt lat="45.17983" lon="4.40535">
        <ele>973</ele>
        <time>2024-05-23T08:55:47Z</time>
      </trkpt>
      <trkpt lat="45.17988" lon="4.40536">
        <ele>973</ele>
        <time>2024-05-23T08:55:55Z</time>
      </trkpt>
      <trkpt lat="45.18019" lon="4.40539">
        <ele>975</ele>
        <time>2024-05-23T08:59:42Z</time>
      </trkpt>
      <trkpt lat="45.1802" lon="4.40539">
        <ele>975</ele>
        <time>2024-05-23T08:59:43Z</time>
      </trkpt>
      <trkpt lat="45.18027" lon="4.40535">
        <ele>975</ele>
        <time>2024-05-23T08:59:58Z</time>
      </trkpt>
      <trkpt lat="45.18031" lon="4.40531">
        <ele>976</ele>
        <time>2024-05-23T09:00:02Z</time>
      </trkpt>
      <trkpt lat="45.18035" lon="4.40531">
        <ele>976</ele>
        <time>2024-05-23T09:00:06Z</time>
      </trkpt>
      <trkpt lat="45.18044" lon="4.40532">
        <ele>977</ele>
        <time>2024-05-23T09:00:15Z</time>
      </trkpt>
      <trkpt lat="45.18051" lon="4.4053">
        <ele>977</ele>
        <time>2024-05-23T09:00:26Z</time>
      </trkpt>
      <trkpt lat="45.18073" lon="4.40526">
        <ele>980</ele>
        <time>2024-05-23T09:00:49Z</time>
      </trkpt>
      <trkpt lat="45.18077" lon="4.40522">
        <ele>980</ele>
        <time>2024-05-23T09:00:53Z</time>
      </trkpt>
      <trkpt lat="45.18087" lon="4.40521">
        <ele>980</ele>
        <time>2024-05-23T09:01:02Z</time>
      </trkpt>
      <trkpt lat="45.18095" lon="4.4052">
        <ele>980</ele>
        <time>2024-05-23T09:01:10Z</time>
      </trkpt>
      <trkpt lat="45.18099" lon="4.40518">
        <ele>981</ele>
        <time>2024-05-23T09:01:14Z</time>
      </trkpt>
      <trkpt lat="45.18104" lon="4.40518">
        <ele>981</ele>
        <time>2024-05-23T09:01:19Z</time>
      </trkpt>
      <trkpt lat="45.18127" lon="4.4052">
        <ele>983</ele>
        <time>2024-05-23T09:01:42Z</time>
      </trkpt>
      <trkpt lat="45.18132" lon="4.40518">
        <ele>984</ele>
        <time>2024-05-23T09:01:47Z</time>
      </trkpt>
      <trkpt lat="45.18141" lon="4.40519">
        <ele>985</ele>
        <time>2024-05-23T09:01:55Z</time>
      </trkpt>
      <trkpt lat="45.18146" lon="4.40519">
        <ele>986</ele>
        <time>2024-05-23T09:02:00Z</time>
      </trkpt>
      <trkpt lat="45.18167" lon="4.40509">
        <ele>987</ele>
        <time>2024-05-23T09:02:20Z</time>
      </trkpt>
      <trkpt lat="45.18175" lon="4.405">
        <ele>988</ele>
        <time>2024-05-23T09:02:29Z</time>
      </trkpt>
      <trkpt lat="45.18183" lon="4.40495">
        <ele>988</ele>
        <time>2024-05-23T09:02:37Z</time>
      </trkpt>
      <trkpt lat="45.18186" lon="4.40491">
        <ele>988</ele>
        <time>2024-05-23T09:02:41Z</time>
      </trkpt>
      <trkpt lat="45.18189" lon="4.40487">
        <ele>988</ele>
        <time>2024-05-23T09:02:45Z</time>
      </trkpt>
      <trkpt lat="45.18192" lon="4.40482">
        <ele>989</ele>
        <time>2024-05-23T09:02:49Z</time>
      </trkpt>
      <trkpt lat="45.18196" lon="4.40475">
        <ele>989</ele>
        <time>2024-05-23T09:02:55Z</time>
      </trkpt>
      <trkpt lat="45.182" lon="4.40452">
        <ele>989</ele>
        <time>2024-05-23T09:03:10Z</time>
      </trkpt>
      <trkpt lat="45.18199" lon="4.40439">
        <ele>989</ele>
        <time>2024-05-23T09:03:17Z</time>
      </trkpt>
      <trkpt lat="45.18199" lon="4.40433">
        <ele>989</ele>
        <time>2024-05-23T09:03:21Z</time>
      </trkpt>
      <trkpt lat="45.18199" lon="4.40419">
        <ele>990</ele>
        <time>2024-05-23T09:03:29Z</time>
      </trkpt>
      <trkpt lat="45.18199" lon="4.40412">
        <ele>990</ele>
        <time>2024-05-23T09:03:34Z</time>
      </trkpt>
      <trkpt lat="45.18196" lon="4.40398">
        <ele>991</ele>
        <time>2024-05-23T09:03:44Z</time>
      </trkpt>
      <trkpt lat="45.18194" lon="4.40392">
        <ele>991</ele>
        <time>2024-05-23T09:03:49Z</time>
      </trkpt>
      <trkpt lat="45.18174" lon="4.40358">
        <ele>992</ele>
        <time>2024-05-23T09:09:56Z</time>
      </trkpt>
      <trkpt lat="45.18167" lon="4.4035">
        <ele>993</ele>
        <time>2024-05-23T09:10:06Z</time>
      </trkpt>
      <trkpt lat="45.18161" lon="4.40348">
        <ele>993</ele>
        <time>2024-05-23T09:10:12Z</time>
      </trkpt>
      <trkpt lat="45.18157" lon="4.40346">
        <ele>993</ele>
        <time>2024-05-23T09:10:16Z</time>
      </trkpt>
      <trkpt lat="45.18153" lon="4.40341">
        <ele>994</ele>
        <time>2024-05-23T09:10:20Z</time>
      </trkpt>
      <trkpt lat="45.18151" lon="4.40335">
        <ele>994</ele>
        <time>2024-05-23T09:10:24Z</time>
      </trkpt>
      <trkpt lat="45.18145" lon="4.40313">
        <ele>996</ele>
        <time>2024-05-23T09:10:42Z</time>
      </trkpt>
      <trkpt lat="45.18144" lon="4.40308">
        <ele>996</ele>
        <time>2024-05-23T09:10:48Z</time>
      </trkpt>
      <trkpt lat="45.18139" lon="4.40299">
        <ele>996</ele>
        <time>2024-05-23T09:10:56Z</time>
      </trkpt>
      <trkpt lat="45.18127" lon="4.4027">
        <ele>999</ele>
        <time>2024-05-23T09:11:19Z</time>
      </trkpt>
      <trkpt lat="45.18105" lon="4.4024">
        <ele>1001</ele>
        <time>2024-05-23T09:11:45Z</time>
      </trkpt>
      <trkpt lat="45.18104" lon="4.40233">
        <ele>1001</ele>
        <time>2024-05-23T09:11:53Z</time>
      </trkpt>
      <trkpt lat="45.181" lon="4.40226">
        <ele>1001</ele>
        <time>2024-05-23T09:11:59Z</time>
      </trkpt>
      <trkpt lat="45.18093" lon="4.4022">
        <ele>1001</ele>
        <time>2024-05-23T09:12:07Z</time>
      </trkpt>
      <trkpt lat="45.18075" lon="4.40183">
        <ele>1001</ele>
        <time>2024-05-23T09:12:34Z</time>
      </trkpt>
      <trkpt lat="45.18072" lon="4.4017">
        <ele>1000</ele>
        <time>2024-05-23T09:12:43Z</time>
      </trkpt>
      <trkpt lat="45.18069" lon="4.40164">
        <ele>1000</ele>
        <time>2024-05-23T09:12:48Z</time>
      </trkpt>
      <trkpt lat="45.18062" lon="4.40145">
        <ele>999</ele>
        <time>2024-05-23T09:13:00Z</time>
      </trkpt>
      <trkpt lat="45.18049" lon="4.40092">
        <ele>996</ele>
        <time>2024-05-23T09:13:32Z</time>
      </trkpt>
      <trkpt lat="45.18048" lon="4.40085">
        <ele>996</ele>
        <time>2024-05-23T09:13:36Z</time>
      </trkpt>
      <trkpt lat="45.18047" lon="4.40078">
        <ele>996</ele>
        <time>2024-05-23T09:13:40Z</time>
      </trkpt>
      <trkpt lat="45.18046" lon="4.40071">
        <ele>995</ele>
        <time>2024-05-23T09:13:44Z</time>
      </trkpt>
      <trkpt lat="45.18045" lon="4.40064">
        <ele>995</ele>
        <time>2024-05-23T09:13:48Z</time>
      </trkpt>
      <trkpt lat="45.18043" lon="4.40059">
        <ele>994</ele>
        <time>2024-05-23T09:13:51Z</time>
      </trkpt>
      <trkpt lat="45.18042" lon="4.40052">
        <ele>994</ele>
        <time>2024-05-23T09:13:55Z</time>
      </trkpt>
      <trkpt lat="45.18041" lon="4.40046">
        <ele>994</ele>
        <time>2024-05-23T09:13:59Z</time>
      </trkpt>
      <trkpt lat="45.18035" lon="4.39989">
        <ele>991</ele>
        <time>2024-05-23T09:14:31Z</time>
      </trkpt>
      <trkpt lat="45.18034" lon="4.39982">
        <ele>991</ele>
        <time>2024-05-23T09:14:35Z</time>
      </trkpt>
      <trkpt lat="45.18033" lon="4.39975">
        <ele>991</ele>
        <time>2024-05-23T09:14:39Z</time>
      </trkpt>
      <trkpt lat="45.18033" lon="4.39918">
        <ele>988</ele>
        <time>2024-05-23T09:15:12Z</time>
      </trkpt>
      <trkpt lat="45.18037" lon="4.39863">
        <ele>986</ele>
        <time>2024-05-23T09:15:44Z</time>
      </trkpt>
      <trkpt lat="45.18039" lon="4.39858">
        <ele>985</ele>
        <time>2024-05-23T09:15:52Z</time>
      </trkpt>
      <trkpt lat="45.18043" lon="4.39816">
        <ele>981</ele>
        <time>2024-05-23T09:17:42Z</time>
      </trkpt>
      <trkpt lat="45.18047" lon="4.39794">
        <ele>979</ele>
        <time>2024-05-23T09:17:57Z</time>
      </trkpt>
      <trkpt lat="45.18054" lon="4.39756">
        <ele>975</ele>
        <time>2024-05-23T09:18:21Z</time>
      </trkpt>
      <trkpt lat="45.18056" lon="4.39749">
        <ele>974</ele>
        <time>2024-05-23T09:18:25Z</time>
      </trkpt>
      <trkpt lat="45.18057" lon="4.39743">
        <ele>974</ele>
        <time>2024-05-23T09:18:29Z</time>
      </trkpt>
      <trkpt lat="45.18072" lon="4.39691">
        <ele>970</ele>
        <time>2024-05-23T09:19:03Z</time>
      </trkpt>
      <trkpt lat="45.18074" lon="4.39677">
        <ele>969</ele>
        <time>2024-05-23T09:19:11Z</time>
      </trkpt>
      <trkpt lat="45.18077" lon="4.39656">
        <ele>968</ele>
        <time>2024-05-23T09:19:22Z</time>
      </trkpt>
      <trkpt lat="45.18079" lon="4.39649">
        <ele>968</ele>
        <time>2024-05-23T09:19:26Z</time>
      </trkpt>
      <trkpt lat="45.18092" lon="4.39603">
        <ele>964</ele>
        <time>2024-05-23T09:19:58Z</time>
      </trkpt>
      <trkpt lat="45.18108" lon="4.39555">
        <ele>961</ele>
        <time>2024-05-23T09:20:30Z</time>
      </trkpt>
      <trkpt lat="45.18121" lon="4.39524">
        <ele>958</ele>
        <time>2024-05-23T09:20:50Z</time>
      </trkpt>
      <trkpt lat="45.18127" lon="4.39514">
        <ele>957</ele>
        <time>2024-05-23T09:20:58Z</time>
      </trkpt>
      <trkpt lat="45.18129" lon="4.39507">
        <ele>956</ele>
        <time>2024-05-23T09:21:02Z</time>
      </trkpt>
      <trkpt lat="45.18141" lon="4.39482">
        <ele>954</ele>
        <time>2024-05-23T09:21:18Z</time>
      </trkpt>
      <trkpt lat="45.18156" lon="4.39463">
        <ele>953</ele>
        <time>2024-05-23T09:21:34Z</time>
      </trkpt>
      <trkpt lat="45.18157" lon="4.39456">
        <ele>953</ele>
        <time>2024-05-23T09:21:38Z</time>
      </trkpt>
      <trkpt lat="45.18156" lon="4.39449">
        <ele>953</ele>
        <time>2024-05-23T09:21:42Z</time>
      </trkpt>
      <trkpt lat="45.18145" lon="4.39409">
        <ele>953</ele>
        <time>2024-05-23T09:22:06Z</time>
      </trkpt>
      <trkpt lat="45.18145" lon="4.39374">
        <ele>953</ele>
        <time>2024-05-23T09:22:26Z</time>
      </trkpt>
      <trkpt lat="45.18143" lon="4.39368">
        <ele>953</ele>
        <time>2024-05-23T09:22:30Z</time>
      </trkpt>
      <trkpt lat="45.18141" lon="4.39362">
        <ele>952</ele>
        <time>2024-05-23T09:22:34Z</time>
      </trkpt>
      <trkpt lat="45.18139" lon="4.39345">
        <ele>950</ele>
        <time>2024-05-23T09:22:47Z</time>
      </trkpt>
      <trkpt lat="45.18137" lon="4.39339">
        <ele>949</ele>
        <time>2024-05-23T09:22:51Z</time>
      </trkpt>
      <trkpt lat="45.18134" lon="4.39312">
        <ele>946</ele>
        <time>2024-05-23T09:23:08Z</time>
      </trkpt>
      <trkpt lat="45.18131" lon="4.39296">
        <ele>944</ele>
        <time>2024-05-23T09:23:21Z</time>
      </trkpt>
      <trkpt lat="45.18131" lon="4.39288">
        <ele>944</ele>
        <time>2024-05-23T09:23:25Z</time>
      </trkpt>
      <trkpt lat="45.18129" lon="4.39268">
        <ele>942</ele>
        <time>2024-05-23T09:23:38Z</time>
      </trkpt>
      <trkpt lat="45.1813" lon="4.39261">
        <ele>942</ele>
        <time>2024-05-23T09:23:41Z</time>
      </trkpt>
      <trkpt lat="45.18128" lon="4.39256">
        <ele>942</ele>
        <time>2024-05-23T09:23:44Z</time>
      </trkpt>
      <trkpt lat="45.18128" lon="4.39249">
        <ele>941</ele>
        <time>2024-05-23T09:23:48Z</time>
      </trkpt>
      <trkpt lat="45.1813" lon="4.39234">
        <ele>940</ele>
        <time>2024-05-23T09:23:57Z</time>
      </trkpt>
      <trkpt lat="45.18129" lon="4.39227">
        <ele>940</ele>
        <time>2024-05-23T09:24:02Z</time>
      </trkpt>
      <trkpt lat="45.18127" lon="4.39221">
        <ele>939</ele>
        <time>2024-05-23T09:24:07Z</time>
      </trkpt>
      <trkpt lat="45.18122" lon="4.39209">
        <ele>938</ele>
        <time>2024-05-23T09:24:15Z</time>
      </trkpt>
      <trkpt lat="45.18122" lon="4.39196">
        <ele>936</ele>
        <time>2024-05-23T09:24:23Z</time>
      </trkpt>
      <trkpt lat="45.18126" lon="4.39189">
        <ele>935</ele>
        <time>2024-05-23T09:24:29Z</time>
      </trkpt>
      <trkpt lat="45.18127" lon="4.39183">
        <ele>934</ele>
        <time>2024-05-23T09:24:37Z</time>
      </trkpt>
      <trkpt lat="45.18123" lon="4.39173">
        <ele>932</ele>
        <time>2024-05-23T09:24:48Z</time>
      </trkpt>
      <trkpt lat="45.18123" lon="4.39166">
        <ele>931</ele>
        <time>2024-05-23T09:24:53Z</time>
      </trkpt>
      <trkpt lat="45.18121" lon="4.3916">
        <ele>931</ele>
        <time>2024-05-23T09:24:58Z</time>
      </trkpt>
      <trkpt lat="45.18122" lon="4.39154">
        <ele>930</ele>
        <time>2024-05-23T09:25:02Z</time>
      </trkpt>
      <trkpt lat="45.1812" lon="4.39145">
        <ele>928</ele>
        <time>2024-05-23T09:25:10Z</time>
      </trkpt>
      <trkpt lat="45.18117" lon="4.39139">
        <ele>927</ele>
        <time>2024-05-23T09:25:14Z</time>
      </trkpt>
      <trkpt lat="45.18115" lon="4.39134">
        <ele>926</ele>
        <time>2024-05-23T09:25:18Z</time>
      </trkpt>
      <trkpt lat="45.18115" lon="4.39127">
        <ele>924</ele>
        <time>2024-05-23T09:25:23Z</time>
      </trkpt>
      <trkpt lat="45.18114" lon="4.39118">
        <ele>922</ele>
        <time>2024-05-23T09:25:34Z</time>
      </trkpt>
      <trkpt lat="45.18113" lon="4.39104">
        <ele>921</ele>
        <time>2024-05-23T09:25:42Z</time>
      </trkpt>
      <trkpt lat="45.18113" lon="4.39097">
        <ele>920</ele>
        <time>2024-05-23T09:25:47Z</time>
      </trkpt>
      <trkpt lat="45.18117" lon="4.39073">
        <ele>917</ele>
        <time>2024-05-23T09:26:05Z</time>
      </trkpt>
      <trkpt lat="45.18116" lon="4.3908">
        <ele>916</ele>
        <time>2024-05-23T09:26:11Z</time>
      </trkpt>
      <trkpt lat="45.18109" lon="4.39092">
        <ele>915</ele>
        <time>2024-05-23T09:26:20Z</time>
      </trkpt>
      <trkpt lat="45.18109" lon="4.39107">
        <ele>913</ele>
        <time>2024-05-23T09:26:30Z</time>
      </trkpt>
      <trkpt lat="45.18105" lon="4.39119">
        <ele>911</ele>
        <time>2024-05-23T09:26:38Z</time>
      </trkpt>
      <trkpt lat="45.18104" lon="4.39134">
        <ele>910</ele>
        <time>2024-05-23T09:26:46Z</time>
      </trkpt>
      <trkpt lat="45.18101" lon="4.39138">
        <ele>909</ele>
        <time>2024-05-23T09:26:49Z</time>
      </trkpt>
      <trkpt lat="45.18098" lon="4.39151">
        <ele>908</ele>
        <time>2024-05-23T09:26:58Z</time>
      </trkpt>
      <trkpt lat="45.18098" lon="4.39158">
        <ele>908</ele>
        <time>2024-05-23T09:27:02Z</time>
      </trkpt>
      <trkpt lat="45.18096" lon="4.39165">
        <ele>908</ele>
        <time>2024-05-23T09:27:06Z</time>
      </trkpt>
      <trkpt lat="45.18095" lon="4.39171">
        <ele>907</ele>
        <time>2024-05-23T09:27:11Z</time>
      </trkpt>
      <trkpt lat="45.18096" lon="4.39177">
        <ele>907</ele>
        <time>2024-05-23T09:27:13Z</time>
      </trkpt>
      <trkpt lat="45.18095" lon="4.39184">
        <ele>906</ele>
        <time>2024-05-23T09:27:18Z</time>
      </trkpt>
      <trkpt lat="45.18093" lon="4.3919">
        <ele>906</ele>
        <time>2024-05-23T09:27:22Z</time>
      </trkpt>
      <trkpt lat="45.18089" lon="4.39196">
        <ele>906</ele>
        <time>2024-05-23T09:27:26Z</time>
      </trkpt>
      <trkpt lat="45.18086" lon="4.392">
        <ele>906</ele>
        <time>2024-05-23T09:27:30Z</time>
      </trkpt>
      <trkpt lat="45.18083" lon="4.39205">
        <ele>905</ele>
        <time>2024-05-23T09:27:34Z</time>
      </trkpt>
      <trkpt lat="45.18083" lon="4.39212">
        <ele>905</ele>
        <time>2024-05-23T09:27:37Z</time>
      </trkpt>
      <trkpt lat="45.18082" lon="4.39219">
        <ele>904</ele>
        <time>2024-05-23T09:27:45Z</time>
      </trkpt>
      <trkpt lat="45.1808" lon="4.39226">
        <ele>904</ele>
        <time>2024-05-23T09:27:49Z</time>
      </trkpt>
      <trkpt lat="45.1808" lon="4.39232">
        <ele>904</ele>
        <time>2024-05-23T09:27:52Z</time>
      </trkpt>
      <trkpt lat="45.18078" lon="4.39239">
        <ele>904</ele>
        <time>2024-05-23T09:27:57Z</time>
      </trkpt>
      <trkpt lat="45.18077" lon="4.39252">
        <ele>903</ele>
        <time>2024-05-23T09:28:05Z</time>
      </trkpt>
      <trkpt lat="45.18074" lon="4.39258">
        <ele>903</ele>
        <time>2024-05-23T09:28:09Z</time>
      </trkpt>
      <trkpt lat="45.18073" lon="4.39264">
        <ele>902</ele>
        <time>2024-05-23T09:28:13Z</time>
      </trkpt>
      <trkpt lat="45.1807" lon="4.39271">
        <ele>902</ele>
        <time>2024-05-23T09:28:17Z</time>
      </trkpt>
      <trkpt lat="45.18067" lon="4.39276">
        <ele>901</ele>
        <time>2024-05-23T09:28:20Z</time>
      </trkpt>
      <trkpt lat="45.18065" lon="4.39282">
        <ele>901</ele>
        <time>2024-05-23T09:28:24Z</time>
      </trkpt>
      <trkpt lat="45.18059" lon="4.39292">
        <ele>899</ele>
        <time>2024-05-23T09:28:33Z</time>
      </trkpt>
      <trkpt lat="45.18048" lon="4.39317">
        <ele>896</ele>
        <time>2024-05-23T09:28:55Z</time>
      </trkpt>
      <trkpt lat="45.18044" lon="4.39322">
        <ele>895</ele>
        <time>2024-05-23T09:29:02Z</time>
      </trkpt>
      <trkpt lat="45.18043" lon="4.39329">
        <ele>895</ele>
        <time>2024-05-23T09:29:10Z</time>
      </trkpt>
      <trkpt lat="45.18037" lon="4.39339">
        <ele>893</ele>
        <time>2024-05-23T09:29:19Z</time>
      </trkpt>
      <trkpt lat="45.18035" lon="4.39344">
        <ele>893</ele>
        <time>2024-05-23T09:29:23Z</time>
      </trkpt>
      <trkpt lat="45.18029" lon="4.39358">
        <ele>890</ele>
        <time>2024-05-23T09:29:34Z</time>
      </trkpt>
      <trkpt lat="45.18027" lon="4.39363">
        <ele>889</ele>
        <time>2024-05-23T09:29:38Z</time>
      </trkpt>
      <trkpt lat="45.1802" lon="4.39372">
        <ele>888</ele>
        <time>2024-05-23T09:29:44Z</time>
      </trkpt>
      <trkpt lat="45.18019" lon="4.39378">
        <ele>887</ele>
        <time>2024-05-23T09:29:47Z</time>
      </trkpt>
      <trkpt lat="45.18015" lon="4.3938">
        <ele>887</ele>
        <time>2024-05-23T09:29:51Z</time>
      </trkpt>
      <trkpt lat="45.1801" lon="4.39388">
        <ele>887</ele>
        <time>2024-05-23T09:29:56Z</time>
      </trkpt>
      <trkpt lat="45.18007" lon="4.39391">
        <ele>887</ele>
        <time>2024-05-23T09:29:59Z</time>
      </trkpt>
      <trkpt lat="45.18002" lon="4.39395">
        <ele>886</ele>
        <time>2024-05-23T09:30:03Z</time>
      </trkpt>
      <trkpt lat="45.17999" lon="4.39399">
        <ele>886</ele>
        <time>2024-05-23T09:30:07Z</time>
      </trkpt>
      <trkpt lat="45.17996" lon="4.39395">
        <ele>885</ele>
        <time>2024-05-23T09:30:12Z</time>
      </trkpt>
      <trkpt lat="45.17998" lon="4.39388">
        <ele>884</ele>
        <time>2024-05-23T09:30:16Z</time>
      </trkpt>
      <trkpt lat="45.17999" lon="4.3938">
        <ele>883</ele>
        <time>2024-05-23T09:30:50Z</time>
      </trkpt>
      <trkpt lat="45.18" lon="4.39373">
        <ele>883</ele>
        <time>2024-05-23T09:30:55Z</time>
      </trkpt>
      <trkpt lat="45.18005" lon="4.39362">
        <ele>883</ele>
        <time>2024-05-23T09:31:03Z</time>
      </trkpt>
      <trkpt lat="45.18011" lon="4.39341">
        <ele>883</ele>
        <time>2024-05-23T09:31:17Z</time>
      </trkpt>
      <trkpt lat="45.18012" lon="4.39335">
        <ele>883</ele>
        <time>2024-05-23T09:31:21Z</time>
      </trkpt>
      <trkpt lat="45.18022" lon="4.39284">
        <ele>882</ele>
        <time>2024-05-23T09:31:52Z</time>
      </trkpt>
      <trkpt lat="45.18024" lon="4.39277">
        <ele>882</ele>
        <time>2024-05-23T09:31:56Z</time>
      </trkpt>
      <trkpt lat="45.18026" lon="4.39264">
        <ele>882</ele>
        <time>2024-05-23T09:32:04Z</time>
      </trkpt>
      <trkpt lat="45.18027" lon="4.39257">
        <ele>882</ele>
        <time>2024-05-23T09:32:08Z</time>
      </trkpt>
      <trkpt lat="45.18032" lon="4.39237">
        <ele>882</ele>
        <time>2024-05-23T09:32:19Z</time>
      </trkpt>
      <trkpt lat="45.18042" lon="4.39185">
        <ele>881</ele>
        <time>2024-05-23T09:32:50Z</time>
      </trkpt>
      <trkpt lat="45.18047" lon="4.39144">
        <ele>880</ele>
        <time>2024-05-23T09:33:15Z</time>
      </trkpt>
      <trkpt lat="45.18046" lon="4.39124">
        <ele>880</ele>
        <time>2024-05-23T09:33:27Z</time>
      </trkpt>
      <trkpt lat="45.18047" lon="4.39118">
        <ele>879</ele>
        <time>2024-05-23T09:33:31Z</time>
      </trkpt>
      <trkpt lat="45.18046" lon="4.39104">
        <ele>879</ele>
        <time>2024-05-23T09:33:39Z</time>
      </trkpt>
      <trkpt lat="45.18039" lon="4.3908">
        <ele>878</ele>
        <time>2024-05-23T09:33:53Z</time>
      </trkpt>
      <trkpt lat="45.18037" lon="4.39059">
        <ele>877</ele>
        <time>2024-05-23T09:34:05Z</time>
      </trkpt>
      <trkpt lat="45.1804" lon="4.39053">
        <ele>877</ele>
        <time>2024-05-23T09:34:09Z</time>
      </trkpt>
      <trkpt lat="45.18043" lon="4.39047">
        <ele>877</ele>
        <time>2024-05-23T09:34:13Z</time>
      </trkpt>
      <trkpt lat="45.18046" lon="4.39041">
        <ele>877</ele>
        <time>2024-05-23T09:34:17Z</time>
      </trkpt>
      <trkpt lat="45.1807" lon="4.39006">
        <ele>877</ele>
        <time>2024-05-23T09:34:45Z</time>
      </trkpt>
      <trkpt lat="45.18074" lon="4.39002">
        <ele>876</ele>
        <time>2024-05-23T09:34:50Z</time>
      </trkpt>
      <trkpt lat="45.1808" lon="4.38991">
        <ele>876</ele>
        <time>2024-05-23T09:34:58Z</time>
      </trkpt>
      <trkpt lat="45.18093" lon="4.38971">
        <ele>876</ele>
        <time>2024-05-23T09:35:14Z</time>
      </trkpt>
      <trkpt lat="45.18096" lon="4.38967">
        <ele>876</ele>
        <time>2024-05-23T09:35:18Z</time>
      </trkpt>
      <trkpt lat="45.18102" lon="4.38956">
        <ele>876</ele>
        <time>2024-05-23T09:35:25Z</time>
      </trkpt>
      <trkpt lat="45.18113" lon="4.38944">
        <ele>875</ele>
        <time>2024-05-23T09:35:36Z</time>
      </trkpt>
      <trkpt lat="45.18121" lon="4.38928">
        <ele>875</ele>
        <time>2024-05-23T09:35:47Z</time>
      </trkpt>
      <trkpt lat="45.18137" lon="4.38906">
        <ele>875</ele>
        <time>2024-05-23T09:36:06Z</time>
      </trkpt>
      <trkpt lat="45.18143" lon="4.38894">
        <ele>875</ele>
        <time>2024-05-23T09:36:14Z</time>
      </trkpt>
      <trkpt lat="45.18146" lon="4.38886">
        <ele>875</ele>
        <time>2024-05-23T09:36:20Z</time>
      </trkpt>
      <trkpt lat="45.18149" lon="4.38881">
        <ele>874</ele>
        <time>2024-05-23T09:36:24Z</time>
      </trkpt>
      <trkpt lat="45.18153" lon="4.38876">
        <ele>874</ele>
        <time>2024-05-23T09:36:28Z</time>
      </trkpt>
      <trkpt lat="45.18162" lon="4.3886">
        <ele>874</ele>
        <time>2024-05-23T09:36:40Z</time>
      </trkpt>
      <trkpt lat="45.18165" lon="4.38856">
        <ele>874</ele>
        <time>2024-05-23T09:36:43Z</time>
      </trkpt>
      <trkpt lat="45.18178" lon="4.38852">
        <ele>873</ele>
        <time>2024-05-23T09:36:52Z</time>
      </trkpt>
      <trkpt lat="45.18182" lon="4.38852">
        <ele>873</ele>
        <time>2024-05-23T09:36:56Z</time>
      </trkpt>
      <trkpt lat="45.18191" lon="4.38854">
        <ele>873</ele>
        <time>2024-05-23T09:37:04Z</time>
      </trkpt>
      <trkpt lat="45.1819" lon="4.38853">
        <ele>873</ele>
        <time>2024-05-23T09:37:13Z</time>
      </trkpt>
      <trkpt lat="45.18187" lon="4.38846">
        <ele>871</ele>
        <time>2024-05-23T09:38:08Z</time>
      </trkpt>
      <trkpt lat="45.18183" lon="4.38841">
        <ele>870</ele>
        <time>2024-05-23T09:38:18Z</time>
      </trkpt>
      <trkpt lat="45.1818" lon="4.38837">
        <ele>869</ele>
        <time>2024-05-23T09:38:22Z</time>
      </trkpt>
      <trkpt lat="45.18179" lon="4.38829">
        <ele>869</ele>
        <time>2024-05-23T09:38:26Z</time>
      </trkpt>
      <trkpt lat="45.18181" lon="4.38821">
        <ele>869</ele>
        <time>2024-05-23T09:38:31Z</time>
      </trkpt>
      <trkpt lat="45.18181" lon="4.38815">
        <ele>869</ele>
        <time>2024-05-23T09:38:34Z</time>
      </trkpt>
      <trkpt lat="45.1818" lon="4.3881">
        <ele>870</ele>
        <time>2024-05-23T09:38:37Z</time>
      </trkpt>
      <trkpt lat="45.18184" lon="4.3881">
        <ele>869</ele>
        <time>2024-05-23T09:38:44Z</time>
      </trkpt>
      <trkpt lat="45.18187" lon="4.38814">
        <ele>869</ele>
        <time>2024-05-23T09:38:48Z</time>
      </trkpt>
      <trkpt lat="45.18192" lon="4.38813">
        <ele>869</ele>
        <time>2024-05-23T09:38:52Z</time>
      </trkpt>
      <trkpt lat="45.18195" lon="4.38807">
        <ele>868</ele>
        <time>2024-05-23T09:39:57Z</time>
      </trkpt>
      <trkpt lat="45.18197" lon="4.388">
        <ele>868</ele>
        <time>2024-05-23T09:40:00Z</time>
      </trkpt>
      <trkpt lat="45.18199" lon="4.38794">
        <ele>869</ele>
        <time>2024-05-23T09:40:03Z</time>
      </trkpt>
      <trkpt lat="45.18203" lon="4.38789">
        <ele>869</ele>
        <time>2024-05-23T09:40:07Z</time>
      </trkpt>
      <trkpt lat="45.1821" lon="4.38788">
        <ele>870</ele>
        <time>2024-05-23T09:40:13Z</time>
      </trkpt>
      <trkpt lat="45.18213" lon="4.38782">
        <ele>870</ele>
        <time>2024-05-23T09:40:17Z</time>
      </trkpt>
      <trkpt lat="45.18218" lon="4.38772">
        <ele>870</ele>
        <time>2024-05-23T09:40:23Z</time>
      </trkpt>
      <trkpt lat="45.18223" lon="4.38767">
        <ele>871</ele>
        <time>2024-05-23T09:40:31Z</time>
      </trkpt>
      <trkpt lat="45.18222" lon="4.3876">
        <ele>870</ele>
        <time>2024-05-23T09:40:35Z</time>
      </trkpt>
      <trkpt lat="45.18214" lon="4.38735">
        <ele>872</ele>
        <time>2024-05-23T09:40:53Z</time>
      </trkpt>
      <trkpt lat="45.18216" lon="4.38726">
        <ele>873</ele>
        <time>2024-05-23T09:41:00Z</time>
      </trkpt>
      <trkpt lat="45.18214" lon="4.38714">
        <ele>873</ele>
        <time>2024-05-23T09:41:08Z</time>
      </trkpt>
      <trkpt lat="45.18212" lon="4.38704">
        <ele>875</ele>
        <time>2024-05-23T09:41:20Z</time>
      </trkpt>
      <trkpt lat="45.18213" lon="4.38693">
        <ele>877</ele>
        <time>2024-05-23T09:41:30Z</time>
      </trkpt>
      <trkpt lat="45.1821" lon="4.38676">
        <ele>880</ele>
        <time>2024-05-23T09:41:46Z</time>
      </trkpt>
      <trkpt lat="45.18202" lon="4.38663">
        <ele>882</ele>
        <time>2024-05-23T09:42:02Z</time>
      </trkpt>
      <trkpt lat="45.182" lon="4.38658">
        <ele>884</ele>
        <time>2024-05-23T09:42:11Z</time>
      </trkpt>
      <trkpt lat="45.18196" lon="4.38651">
        <ele>884</ele>
        <time>2024-05-23T09:42:18Z</time>
      </trkpt>
      <trkpt lat="45.18196" lon="4.3864">
        <ele>885</ele>
        <time>2024-05-23T09:42:25Z</time>
      </trkpt>
      <trkpt lat="45.18193" lon="4.38635">
        <ele>886</ele>
        <time>2024-05-23T09:42:31Z</time>
      </trkpt>
      <trkpt lat="45.18188" lon="4.38631">
        <ele>887</ele>
        <time>2024-05-23T09:42:38Z</time>
      </trkpt>
      <trkpt lat="45.18184" lon="4.38623">
        <ele>888</ele>
        <time>2024-05-23T09:42:45Z</time>
      </trkpt>
      <trkpt lat="45.18186" lon="4.38618">
        <ele>888</ele>
        <time>2024-05-23T09:42:48Z</time>
      </trkpt>
      <trkpt lat="45.18188" lon="4.38613">
        <ele>889</ele>
        <time>2024-05-23T09:42:51Z</time>
      </trkpt>
      <trkpt lat="45.18192" lon="4.3861">
        <ele>889</ele>
        <time>2024-05-23T09:42:56Z</time>
      </trkpt>
      <trkpt lat="45.18196" lon="4.3861">
        <ele>890</ele>
        <time>2024-05-23T09:42:58Z</time>
      </trkpt>
      <trkpt lat="45.18201" lon="4.38612">
        <ele>891</ele>
        <time>2024-05-23T09:43:02Z</time>
      </trkpt>
      <trkpt lat="45.18208" lon="4.38618">
        <ele>892</ele>
        <time>2024-05-23T09:43:11Z</time>
      </trkpt>
      <trkpt lat="45.18212" lon="4.38619">
        <ele>892</ele>
        <time>2024-05-23T09:43:15Z</time>
      </trkpt>
      <trkpt lat="45.18216" lon="4.38623">
        <ele>893</ele>
        <time>2024-05-23T09:43:19Z</time>
      </trkpt>
      <trkpt lat="45.1822" lon="4.3862">
        <ele>893</ele>
        <time>2024-05-23T09:43:23Z</time>
      </trkpt>
      <trkpt lat="45.18225" lon="4.38628">
        <ele>894</ele>
        <time>2024-05-23T09:43:31Z</time>
      </trkpt>
      <trkpt lat="45.18229" lon="4.38632">
        <ele>895</ele>
        <time>2024-05-23T09:43:38Z</time>
      </trkpt>
      <trkpt lat="45.18235" lon="4.38637">
        <ele>895</ele>
        <time>2024-05-23T09:43:44Z</time>
      </trkpt>
      <trkpt lat="45.18237" lon="4.38642">
        <ele>896</ele>
        <time>2024-05-23T09:43:49Z</time>
      </trkpt>
      <trkpt lat="45.18245" lon="4.38648">
        <ele>897</ele>
        <time>2024-05-23T09:43:57Z</time>
      </trkpt>
      <trkpt lat="45.18247" lon="4.38656">
        <ele>898</ele>
        <time>2024-05-23T09:44:04Z</time>
      </trkpt>
      <trkpt lat="45.18251" lon="4.38663">
        <ele>899</ele>
        <time>2024-05-23T09:44:11Z</time>
      </trkpt>
      <trkpt lat="45.18261" lon="4.38677">
        <ele>900</ele>
        <time>2024-05-23T09:44:27Z</time>
      </trkpt>
      <trkpt lat="45.18266" lon="4.38682">
        <ele>902</ele>
        <time>2024-05-23T09:44:36Z</time>
      </trkpt>
      <trkpt lat="45.18271" lon="4.38688">
        <ele>903</ele>
        <time>2024-05-23T09:44:44Z</time>
      </trkpt>
      <trkpt lat="45.18276" lon="4.3869">
        <ele>904</ele>
        <time>2024-05-23T09:44:48Z</time>
      </trkpt>
      <trkpt lat="45.18282" lon="4.38689">
        <ele>904</ele>
        <time>2024-05-23T09:44:56Z</time>
      </trkpt>
      <trkpt lat="45.18302" lon="4.38698">
        <ele>908</ele>
        <time>2024-05-23T09:45:21Z</time>
      </trkpt>
      <trkpt lat="45.18306" lon="4.38697">
        <ele>909</ele>
        <time>2024-05-23T09:45:27Z</time>
      </trkpt>
      <trkpt lat="45.18312" lon="4.38699">
        <ele>910</ele>
        <time>2024-05-23T09:45:34Z</time>
      </trkpt>
      <trkpt lat="45.18318" lon="4.38701">
        <ele>912</ele>
        <time>2024-05-23T09:45:46Z</time>
      </trkpt>
      <trkpt lat="45.18324" lon="4.38697">
        <ele>912</ele>
        <time>2024-05-23T09:45:49Z</time>
      </trkpt>
      <trkpt lat="45.18326" lon="4.38693">
        <ele>912</ele>
        <time>2024-05-23T09:45:53Z</time>
      </trkpt>
      <trkpt lat="45.18335" lon="4.38685">
        <ele>915</ele>
        <time>2024-05-23T09:46:05Z</time>
      </trkpt>
      <trkpt lat="45.18337" lon="4.38677">
        <ele>915</ele>
        <time>2024-05-23T09:46:11Z</time>
      </trkpt>
      <trkpt lat="45.18342" lon="4.38678">
        <ele>916</ele>
        <time>2024-05-23T09:46:17Z</time>
      </trkpt>
      <trkpt lat="45.18348" lon="4.3867">
        <ele>917</ele>
        <time>2024-05-23T09:46:24Z</time>
      </trkpt>
      <trkpt lat="45.18345" lon="4.38657">
        <ele>918</ele>
        <time>2024-05-23T09:46:31Z</time>
      </trkpt>
      <trkpt lat="45.18347" lon="4.38662">
        <ele>919</ele>
        <time>2024-05-23T09:46:36Z</time>
      </trkpt>
      <trkpt lat="45.18345" lon="4.38668">
        <ele>919</ele>
        <time>2024-05-23T09:46:40Z</time>
      </trkpt>
      <trkpt lat="45.18337" lon="4.38669">
        <ele>921</ele>
        <time>2024-05-23T09:46:49Z</time>
      </trkpt>
      <trkpt lat="45.18328" lon="4.38667">
        <ele>922</ele>
        <time>2024-05-23T09:46:57Z</time>
      </trkpt>
      <trkpt lat="45.18323" lon="4.3867">
        <ele>923</ele>
        <time>2024-05-23T09:47:02Z</time>
      </trkpt>
      <trkpt lat="45.18312" lon="4.38663">
        <ele>924</ele>
        <time>2024-05-23T09:47:11Z</time>
      </trkpt>
      <trkpt lat="45.18305" lon="4.38649">
        <ele>926</ele>
        <time>2024-05-23T09:47:26Z</time>
      </trkpt>
      <trkpt lat="45.183" lon="4.38649">
        <ele>927</ele>
        <time>2024-05-23T09:47:30Z</time>
      </trkpt>
      <trkpt lat="45.18296" lon="4.3864">
        <ele>928</ele>
        <time>2024-05-23T09:47:38Z</time>
      </trkpt>
      <trkpt lat="45.18297" lon="4.38634">
        <ele>929</ele>
        <time>2024-05-23T09:47:48Z</time>
      </trkpt>
      <trkpt lat="45.18299" lon="4.38626">
        <ele>929</ele>
        <time>2024-05-23T09:47:54Z</time>
      </trkpt>
      <trkpt lat="45.18293" lon="4.3863">
        <ele>929</ele>
        <time>2024-05-23T09:48:53Z</time>
      </trkpt>
      <trkpt lat="45.18279" lon="4.38578">
        <ele>935</ele>
        <time>2024-05-23T09:54:09Z</time>
      </trkpt>
      <trkpt lat="45.1828" lon="4.38578">
        <ele>935</ele>
        <time>2024-05-23T09:54:10Z</time>
      </trkpt>
      <trkpt lat="45.18278" lon="4.38567">
        <ele>937</ele>
        <time>2024-05-23T09:54:23Z</time>
      </trkpt>
      <trkpt lat="45.18279" lon="4.3856">
        <ele>938</ele>
        <time>2024-05-23T09:54:28Z</time>
      </trkpt>
      <trkpt lat="45.18276" lon="4.38545">
        <ele>939</ele>
        <time>2024-05-23T09:54:42Z</time>
      </trkpt>
      <trkpt lat="45.18275" lon="4.3854">
        <ele>941</ele>
        <time>2024-05-23T09:54:54Z</time>
      </trkpt>
      <trkpt lat="45.1827" lon="4.38535">
        <ele>942</ele>
        <time>2024-05-23T09:55:00Z</time>
      </trkpt>
      <trkpt lat="45.1827" lon="4.38527">
        <ele>943</ele>
        <time>2024-05-23T09:55:07Z</time>
      </trkpt>
      <trkpt lat="45.18268" lon="4.38507">
        <ele>946</ele>
        <time>2024-05-23T09:55:26Z</time>
      </trkpt>
      <trkpt lat="45.18263" lon="4.38502">
        <ele>947</ele>
        <time>2024-05-23T09:55:35Z</time>
      </trkpt>
      <trkpt lat="45.18257" lon="4.38486">
        <ele>949</ele>
        <time>2024-05-23T09:55:49Z</time>
      </trkpt>
      <trkpt lat="45.18252" lon="4.38455">
        <ele>953</ele>
        <time>2024-05-23T09:56:16Z</time>
      </trkpt>
      <trkpt lat="45.18254" lon="4.3845">
        <ele>953</ele>
        <time>2024-05-23T09:56:20Z</time>
      </trkpt>
      <trkpt lat="45.18257" lon="4.38444">
        <ele>954</ele>
        <time>2024-05-23T09:56:26Z</time>
      </trkpt>
      <trkpt lat="45.18255" lon="4.38429">
        <ele>956</ele>
        <time>2024-05-23T09:56:38Z</time>
      </trkpt>
      <trkpt lat="45.18251" lon="4.38424">
        <ele>957</ele>
        <time>2024-05-23T09:56:43Z</time>
      </trkpt>
      <trkpt lat="45.18252" lon="4.38416">
        <ele>957</ele>
        <time>2024-05-23T09:56:49Z</time>
      </trkpt>
      <trkpt lat="45.18245" lon="4.38394">
        <ele>961</ele>
        <time>2024-05-23T09:57:16Z</time>
      </trkpt>
      <trkpt lat="45.18242" lon="4.3839">
        <ele>961</ele>
        <time>2024-05-23T09:57:19Z</time>
      </trkpt>
      <trkpt lat="45.18238" lon="4.38388">
        <ele>961</ele>
        <time>2024-05-23T09:57:22Z</time>
      </trkpt>
      <trkpt lat="45.18235" lon="4.38382">
        <ele>963</ele>
        <time>2024-05-23T09:57:28Z</time>
      </trkpt>
      <trkpt lat="45.18228" lon="4.38381">
        <ele>963</ele>
        <time>2024-05-23T09:57:36Z</time>
      </trkpt>
      <trkpt lat="45.18225" lon="4.38371">
        <ele>964</ele>
        <time>2024-05-23T09:57:42Z</time>
      </trkpt>
      <trkpt lat="45.18225" lon="4.3836">
        <ele>965</ele>
        <time>2024-05-23T09:57:49Z</time>
      </trkpt>
      <trkpt lat="45.18222" lon="4.38355">
        <ele>965</ele>
        <time>2024-05-23T09:57:53Z</time>
      </trkpt>
      <trkpt lat="45.18225" lon="4.3835">
        <ele>966</ele>
        <time>2024-05-23T09:58:03Z</time>
      </trkpt>
      <trkpt lat="45.18228" lon="4.38346">
        <ele>966</ele>
        <time>2024-05-23T09:58:19Z</time>
      </trkpt>
      <trkpt lat="45.18226" lon="4.38335">
        <ele>968</ele>
        <time>2024-05-23T09:58:35Z</time>
      </trkpt>
      <trkpt lat="45.18222" lon="4.38329">
        <ele>969</ele>
        <time>2024-05-23T09:58:40Z</time>
      </trkpt>
      <trkpt lat="45.18226" lon="4.38314">
        <ele>971</ele>
        <time>2024-05-23T09:58:50Z</time>
      </trkpt>
      <trkpt lat="45.18225" lon="4.38306">
        <ele>973</ele>
        <time>2024-05-23T09:59:00Z</time>
      </trkpt>
      <trkpt lat="45.18228" lon="4.38301">
        <ele>974</ele>
        <time>2024-05-23T09:59:04Z</time>
      </trkpt>
      <trkpt lat="45.18229" lon="4.38294">
        <ele>975</ele>
        <time>2024-05-23T09:59:07Z</time>
      </trkpt>
      <trkpt lat="45.18229" lon="4.38286">
        <ele>976</ele>
        <time>2024-05-23T09:59:13Z</time>
      </trkpt>
      <trkpt lat="45.18225" lon="4.3828">
        <ele>977</ele>
        <time>2024-05-23T09:59:20Z</time>
      </trkpt>
      <trkpt lat="45.18226" lon="4.38268">
        <ele>979</ele>
        <time>2024-05-23T09:59:32Z</time>
      </trkpt>
      <trkpt lat="45.18227" lon="4.38262">
        <ele>979</ele>
        <time>2024-05-23T09:59:35Z</time>
      </trkpt>
      <trkpt lat="45.18225" lon="4.38257">
        <ele>980</ele>
        <time>2024-05-23T09:59:37Z</time>
      </trkpt>
      <trkpt lat="45.18231" lon="4.38237">
        <ele>983</ele>
        <time>2024-05-23T09:59:54Z</time>
      </trkpt>
      <trkpt lat="45.1823" lon="4.38228">
        <ele>984</ele>
        <time>2024-05-23T09:59:57Z</time>
      </trkpt>
      <trkpt lat="45.18235" lon="4.38229">
        <ele>984</ele>
        <time>2024-05-23T10:00:02Z</time>
      </trkpt>
      <trkpt lat="45.1823" lon="4.38221">
        <ele>986</ele>
        <time>2024-05-23T10:00:11Z</time>
      </trkpt>
      <trkpt lat="45.18242" lon="4.38206">
        <ele>989</ele>
        <time>2024-05-23T10:00:27Z</time>
      </trkpt>
      <trkpt lat="45.18239" lon="4.38198">
        <ele>989</ele>
        <time>2024-05-23T10:00:31Z</time>
      </trkpt>
      <trkpt lat="45.18237" lon="4.38193">
        <ele>990</ele>
        <time>2024-05-23T10:00:35Z</time>
      </trkpt>
      <trkpt lat="45.18236" lon="4.38184">
        <ele>991</ele>
        <time>2024-05-23T10:00:40Z</time>
      </trkpt>
      <trkpt lat="45.1824" lon="4.38183">
        <ele>991</ele>
        <time>2024-05-23T10:00:45Z</time>
      </trkpt>
      <trkpt lat="45.18243" lon="4.38176">
        <ele>993</ele>
        <time>2024-05-23T10:00:51Z</time>
      </trkpt>
      <trkpt lat="45.18247" lon="4.38164">
        <ele>993</ele>
        <time>2024-05-23T10:00:59Z</time>
      </trkpt>
      <trkpt lat="45.18249" lon="4.38143">
        <ele>996</ele>
        <time>2024-05-23T10:01:15Z</time>
      </trkpt>
      <trkpt lat="45.18252" lon="4.38136">
        <ele>996</ele>
        <time>2024-05-23T10:01:21Z</time>
      </trkpt>
      <trkpt lat="45.18251" lon="4.3813">
        <ele>997</ele>
        <time>2024-05-23T10:01:28Z</time>
      </trkpt>
      <trkpt lat="45.18254" lon="4.38123">
        <ele>998</ele>
        <time>2024-05-23T10:01:33Z</time>
      </trkpt>
      <trkpt lat="45.18253" lon="4.38123">
        <ele>999</ele>
        <time>2024-05-23T10:02:28Z</time>
      </trkpt>
      <trkpt lat="45.18252" lon="4.38114">
        <ele>999</ele>
        <time>2024-05-23T10:02:51Z</time>
      </trkpt>
      <trkpt lat="45.18253" lon="4.38107">
        <ele>1000</ele>
        <time>2024-05-23T10:02:55Z</time>
      </trkpt>
      <trkpt lat="45.1826" lon="4.38108">
        <ele>999</ele>
        <time>2024-05-23T10:03:28Z</time>
      </trkpt>
      <trkpt lat="45.18256" lon="4.38107">
        <ele>998</ele>
        <time>2024-05-23T10:04:16Z</time>
      </trkpt>
      <trkpt lat="45.18254" lon="4.38102">
        <ele>999</ele>
        <time>2024-05-23T10:04:19Z</time>
      </trkpt>
      <trkpt lat="45.18252" lon="4.38096">
        <ele>999</ele>
        <time>2024-05-23T10:04:22Z</time>
      </trkpt>
      <trkpt lat="45.18254" lon="4.38086">
        <ele>1000</ele>
        <time>2024-05-23T10:04:29Z</time>
      </trkpt>
      <trkpt lat="45.18255" lon="4.38079">
        <ele>1001</ele>
        <time>2024-05-23T10:04:32Z</time>
      </trkpt>
      <trkpt lat="45.18256" lon="4.38073">
        <ele>1001</ele>
        <time>2024-05-23T10:04:35Z</time>
      </trkpt>
      <trkpt lat="45.18258" lon="4.38067">
        <ele>1001</ele>
        <time>2024-05-23T10:04:42Z</time>
      </trkpt>
      <trkpt lat="45.18257" lon="4.38053">
        <ele>1002</ele>
        <time>2024-05-23T10:04:49Z</time>
      </trkpt>
      <trkpt lat="45.18255" lon="4.38038">
        <ele>1003</ele>
        <time>2024-05-23T10:04:57Z</time>
      </trkpt>
      <trkpt lat="45.18254" lon="4.38028">
        <ele>1004</ele>
        <time>2024-05-23T10:05:03Z</time>
      </trkpt>
      <trkpt lat="45.18257" lon="4.38023">
        <ele>1004</ele>
        <time>2024-05-23T10:05:08Z</time>
      </trkpt>
      <trkpt lat="45.18256" lon="4.38016">
        <ele>1005</ele>
        <time>2024-05-23T10:05:12Z</time>
      </trkpt>
      <trkpt lat="45.18258" lon="4.38009">
        <ele>1005</ele>
        <time>2024-05-23T10:05:16Z</time>
      </trkpt>
      <trkpt lat="45.18257" lon="4.37994">
        <ele>1006</ele>
        <time>2024-05-23T10:05:23Z</time>
      </trkpt>
      <trkpt lat="45.18263" lon="4.37981">
        <ele>1006</ele>
        <time>2024-05-23T10:05:30Z</time>
      </trkpt>
      <trkpt lat="45.18261" lon="4.37974">
        <ele>1006</ele>
        <time>2024-05-23T10:05:33Z</time>
      </trkpt>
      <trkpt lat="45.18266" lon="4.37945">
        <ele>1007</ele>
        <time>2024-05-23T10:05:51Z</time>
      </trkpt>
      <trkpt lat="45.18269" lon="4.37939">
        <ele>1007</ele>
        <time>2024-05-23T10:05:55Z</time>
      </trkpt>
      <trkpt lat="45.18274" lon="4.37932">
        <ele>1007</ele>
        <time>2024-05-23T10:06:03Z</time>
      </trkpt>
      <trkpt lat="45.18276" lon="4.37912">
        <ele>1008</ele>
        <time>2024-05-23T10:06:13Z</time>
      </trkpt>
      <trkpt lat="45.18278" lon="4.37906">
        <ele>1008</ele>
        <time>2024-05-23T10:06:16Z</time>
      </trkpt>
      <trkpt lat="45.18279" lon="4.37894">
        <ele>1008</ele>
        <time>2024-05-23T10:06:23Z</time>
      </trkpt>
      <trkpt lat="45.18283" lon="4.37889">
        <ele>1008</ele>
        <time>2024-05-23T10:06:30Z</time>
      </trkpt>
      <trkpt lat="45.18283" lon="4.37882">
        <ele>1008</ele>
        <time>2024-05-23T10:06:33Z</time>
      </trkpt>
      <trkpt lat="45.18287" lon="4.37869">
        <ele>1009</ele>
        <time>2024-05-23T10:06:41Z</time>
      </trkpt>
      <trkpt lat="45.1829" lon="4.37865">
        <ele>1009</ele>
        <time>2024-05-23T10:06:45Z</time>
      </trkpt>
      <trkpt lat="45.18292" lon="4.37859">
        <ele>1009</ele>
        <time>2024-05-23T10:06:49Z</time>
      </trkpt>
      <trkpt lat="45.18293" lon="4.37853">
        <ele>1009</ele>
        <time>2024-05-23T10:06:53Z</time>
      </trkpt>
      <trkpt lat="45.18293" lon="4.37846">
        <ele>1009</ele>
        <time>2024-05-23T10:06:57Z</time>
      </trkpt>
      <trkpt lat="45.18295" lon="4.3784">
        <ele>1010</ele>
        <time>2024-05-23T10:07:01Z</time>
      </trkpt>
      <trkpt lat="45.18297" lon="4.37829">
        <ele>1010</ele>
        <time>2024-05-23T10:07:08Z</time>
      </trkpt>
      <trkpt lat="45.18302" lon="4.37831">
        <ele>1010</ele>
        <time>2024-05-23T10:07:17Z</time>
      </trkpt>
      <trkpt lat="45.18308" lon="4.37827">
        <ele>1009</ele>
        <time>2024-05-23T10:09:04Z</time>
      </trkpt>
      <trkpt lat="45.18307" lon="4.37824">
        <ele>1009</ele>
        <time>2024-05-23T10:10:18Z</time>
      </trkpt>
      <trkpt lat="45.18308" lon="4.37822">
        <ele>1010</ele>
        <time>2024-05-23T10:11:42Z</time>
      </trkpt>
      <trkpt lat="45.18305" lon="4.37819">
        <ele>1010</ele>
        <time>2024-05-23T10:12:27Z</time>
      </trkpt>
      <trkpt lat="45.18304" lon="4.37814">
        <ele>1010</ele>
        <time>2024-05-23T10:12:31Z</time>
      </trkpt>
      <trkpt lat="45.18303" lon="4.37804">
        <ele>1010</ele>
        <time>2024-05-23T10:12:38Z</time>
      </trkpt>
      <trkpt lat="45.18305" lon="4.37796">
        <ele>1010</ele>
        <time>2024-05-23T10:12:46Z</time>
      </trkpt>
      <trkpt lat="45.18308" lon="4.37789">
        <ele>1010</ele>
        <time>2024-05-23T10:12:52Z</time>
      </trkpt>
      <trkpt lat="45.18309" lon="4.37782">
        <ele>1010</ele>
        <time>2024-05-23T10:12:58Z</time>
      </trkpt>
      <trkpt lat="45.18311" lon="4.37769">
        <ele>1011</ele>
        <time>2024-05-23T10:13:09Z</time>
      </trkpt>
      <trkpt lat="45.1831" lon="4.37762">
        <ele>1011</ele>
        <time>2024-05-23T10:13:13Z</time>
      </trkpt>
      <trkpt lat="45.18314" lon="4.37756">
        <ele>1011</ele>
        <time>2024-05-23T10:13:19Z</time>
      </trkpt>
      <trkpt lat="45.18314" lon="4.37748">
        <ele>1011</ele>
        <time>2024-05-23T10:13:23Z</time>
      </trkpt>
      <trkpt lat="45.18316" lon="4.37742">
        <ele>1012</ele>
        <time>2024-05-23T10:13:28Z</time>
      </trkpt>
      <trkpt lat="45.18315" lon="4.37727">
        <ele>1012</ele>
        <time>2024-05-23T10:13:36Z</time>
      </trkpt>
      <trkpt lat="45.18317" lon="4.37722">
        <ele>1012</ele>
        <time>2024-05-23T10:13:39Z</time>
      </trkpt>
      <trkpt lat="45.18315" lon="4.37711">
        <ele>1012</ele>
        <time>2024-05-23T10:13:47Z</time>
      </trkpt>
      <trkpt lat="45.18317" lon="4.37697">
        <ele>1013</ele>
        <time>2024-05-23T10:13:55Z</time>
      </trkpt>
      <trkpt lat="45.18315" lon="4.37691">
        <ele>1013</ele>
        <time>2024-05-23T10:13:58Z</time>
      </trkpt>
      <trkpt lat="45.18315" lon="4.37685">
        <ele>1013</ele>
        <time>2024-05-23T10:14:01Z</time>
      </trkpt>
      <trkpt lat="45.18307" lon="4.37656">
        <ele>1014</ele>
        <time>2024-05-23T10:14:19Z</time>
      </trkpt>
      <trkpt lat="45.18306" lon="4.37624">
        <ele>1017</ele>
        <time>2024-05-23T10:14:41Z</time>
      </trkpt>
      <trkpt lat="45.18305" lon="4.37612">
        <ele>1018</ele>
        <time>2024-05-23T10:14:50Z</time>
      </trkpt>
      <trkpt lat="45.18306" lon="4.37595">
        <ele>1019</ele>
        <time>2024-05-23T10:15:03Z</time>
      </trkpt>
      <trkpt lat="45.18308" lon="4.3759">
        <ele>1019</ele>
        <time>2024-05-23T10:15:08Z</time>
      </trkpt>
      <trkpt lat="45.18309" lon="4.37583">
        <ele>1020</ele>
        <time>2024-05-23T10:15:13Z</time>
      </trkpt>
      <trkpt lat="45.18311" lon="4.37577">
        <ele>1020</ele>
        <time>2024-05-23T10:15:17Z</time>
      </trkpt>
      <trkpt lat="45.18316" lon="4.37563">
        <ele>1022</ele>
        <time>2024-05-23T10:15:30Z</time>
      </trkpt>
      <trkpt lat="45.18317" lon="4.37555">
        <ele>1023</ele>
        <time>2024-05-23T10:15:37Z</time>
      </trkpt>
      <trkpt lat="45.18316" lon="4.37546">
        <ele>1023</ele>
        <time>2024-05-23T10:15:45Z</time>
      </trkpt>
      <trkpt lat="45.18313" lon="4.37541">
        <ele>1024</ele>
        <time>2024-05-23T10:15:50Z</time>
      </trkpt>
      <trkpt lat="45.18316" lon="4.37535">
        <ele>1024</ele>
        <time>2024-05-23T10:15:53Z</time>
      </trkpt>
      <trkpt lat="45.18315" lon="4.3752">
        <ele>1026</ele>
        <time>2024-05-23T10:16:06Z</time>
      </trkpt>
      <trkpt lat="45.18317" lon="4.37514">
        <ele>1026</ele>
        <time>2024-05-23T10:16:10Z</time>
      </trkpt>
      <trkpt lat="45.18315" lon="4.37504">
        <ele>1028</ele>
        <time>2024-05-23T10:16:20Z</time>
      </trkpt>
      <trkpt lat="45.18315" lon="4.37468">
        <ele>1030</ele>
        <time>2024-05-23T10:16:41Z</time>
      </trkpt>
      <trkpt lat="45.18319" lon="4.37462">
        <ele>1030</ele>
        <time>2024-05-23T10:16:48Z</time>
      </trkpt>
      <trkpt lat="45.18314" lon="4.37448">
        <ele>1031</ele>
        <time>2024-05-23T10:16:58Z</time>
      </trkpt>
      <trkpt lat="45.18318" lon="4.37426">
        <ele>1031</ele>
        <time>2024-05-23T10:17:12Z</time>
      </trkpt>
      <trkpt lat="45.18317" lon="4.37418">
        <ele>1031</ele>
        <time>2024-05-23T10:17:19Z</time>
      </trkpt>
      <trkpt lat="45.18318" lon="4.37403">
        <ele>1032</ele>
        <time>2024-05-23T10:17:29Z</time>
      </trkpt>
      <trkpt lat="45.18317" lon="4.37386">
        <ele>1032</ele>
        <time>2024-05-23T10:17:39Z</time>
      </trkpt>
      <trkpt lat="45.18317" lon="4.3737">
        <ele>1031</ele>
        <time>2024-05-23T10:17:47Z</time>
      </trkpt>
      <trkpt lat="45.18321" lon="4.37359">
        <ele>1032</ele>
        <time>2024-05-23T10:17:57Z</time>
      </trkpt>
      <trkpt lat="45.18322" lon="4.37338">
        <ele>1031</ele>
        <time>2024-05-23T10:18:10Z</time>
      </trkpt>
      <trkpt lat="45.18325" lon="4.37333">
        <ele>1031</ele>
        <time>2024-05-23T10:18:13Z</time>
      </trkpt>
      <trkpt lat="45.18327" lon="4.37327">
        <ele>1031</ele>
        <time>2024-05-23T10:18:17Z</time>
      </trkpt>
      <trkpt lat="45.18325" lon="4.3732">
        <ele>1031</ele>
        <time>2024-05-23T10:18:21Z</time>
      </trkpt>
      <trkpt lat="45.18329" lon="4.37298">
        <ele>1031</ele>
        <time>2024-05-23T10:18:34Z</time>
      </trkpt>
      <trkpt lat="45.18331" lon="4.37293">
        <ele>1031</ele>
        <time>2024-05-23T10:18:38Z</time>
      </trkpt>
      <trkpt lat="45.1833" lon="4.37287">
        <ele>1031</ele>
        <time>2024-05-23T10:18:41Z</time>
      </trkpt>
      <trkpt lat="45.18337" lon="4.37279">
        <ele>1031</ele>
        <time>2024-05-23T10:18:48Z</time>
      </trkpt>
      <trkpt lat="45.18338" lon="4.37272">
        <ele>1031</ele>
        <time>2024-05-23T10:18:52Z</time>
      </trkpt>
      <trkpt lat="45.18342" lon="4.37252">
        <ele>1030</ele>
        <time>2024-05-23T10:19:06Z</time>
      </trkpt>
      <trkpt lat="45.18345" lon="4.37246">
        <ele>1030</ele>
        <time>2024-05-23T10:19:10Z</time>
      </trkpt>
      <trkpt lat="45.1835" lon="4.37221">
        <ele>1030</ele>
        <time>2024-05-23T10:19:26Z</time>
      </trkpt>
      <trkpt lat="45.18353" lon="4.37216">
        <ele>1030</ele>
        <time>2024-05-23T10:19:31Z</time>
      </trkpt>
      <trkpt lat="45.18353" lon="4.3721">
        <ele>1030</ele>
        <time>2024-05-23T10:19:35Z</time>
      </trkpt>
      <trkpt lat="45.1835" lon="4.37197">
        <ele>1030</ele>
        <time>2024-05-23T10:19:42Z</time>
      </trkpt>
      <trkpt lat="45.18352" lon="4.3718">
        <ele>1030</ele>
        <time>2024-05-23T10:19:53Z</time>
      </trkpt>
      <trkpt lat="45.18355" lon="4.37176">
        <ele>1030</ele>
        <time>2024-05-23T10:19:57Z</time>
      </trkpt>
      <trkpt lat="45.18359" lon="4.37164">
        <ele>1030</ele>
        <time>2024-05-23T10:20:05Z</time>
      </trkpt>
      <trkpt lat="45.18364" lon="4.37167">
        <ele>1030</ele>
        <time>2024-05-23T10:20:08Z</time>
      </trkpt>
      <trkpt lat="45.18363" lon="4.37159">
        <ele>1029</ele>
        <time>2024-05-23T10:20:13Z</time>
      </trkpt>
      <trkpt lat="45.18362" lon="4.37152">
        <ele>1029</ele>
        <time>2024-05-23T10:20:17Z</time>
      </trkpt>
      <trkpt lat="45.18365" lon="4.37143">
        <ele>1029</ele>
        <time>2024-05-23T10:20:24Z</time>
      </trkpt>
      <trkpt lat="45.18362" lon="4.37138">
        <ele>1029</ele>
        <time>2024-05-23T10:20:29Z</time>
      </trkpt>
      <trkpt lat="45.18363" lon="4.37131">
        <ele>1029</ele>
        <time>2024-05-23T10:20:31Z</time>
      </trkpt>
      <trkpt lat="45.18365" lon="4.37126">
        <ele>1029</ele>
        <time>2024-05-23T10:20:39Z</time>
      </trkpt>
      <trkpt lat="45.18365" lon="4.3712">
        <ele>1029</ele>
        <time>2024-05-23T10:20:43Z</time>
      </trkpt>
      <trkpt lat="45.18368" lon="4.37115">
        <ele>1029</ele>
        <time>2024-05-23T10:20:48Z</time>
      </trkpt>
      <trkpt lat="45.18368" lon="4.37108">
        <ele>1029</ele>
        <time>2024-05-23T10:20:51Z</time>
      </trkpt>
      <trkpt lat="45.18371" lon="4.37103">
        <ele>1029</ele>
        <time>2024-05-23T10:20:55Z</time>
      </trkpt>
      <trkpt lat="45.18369" lon="4.37094">
        <ele>1029</ele>
        <time>2024-05-23T10:21:03Z</time>
      </trkpt>
      <trkpt lat="45.18371" lon="4.37089">
        <ele>1029</ele>
        <time>2024-05-23T10:21:07Z</time>
      </trkpt>
      <trkpt lat="45.18374" lon="4.37082">
        <ele>1029</ele>
        <time>2024-05-23T10:21:12Z</time>
      </trkpt>
      <trkpt lat="45.18377" lon="4.37068">
        <ele>1029</ele>
        <time>2024-05-23T10:21:21Z</time>
      </trkpt>
      <trkpt lat="45.18381" lon="4.3706">
        <ele>1029</ele>
        <time>2024-05-23T10:21:28Z</time>
      </trkpt>
      <trkpt lat="45.18377" lon="4.37052">
        <ele>1029</ele>
        <time>2024-05-23T10:21:30Z</time>
      </trkpt>
      <trkpt lat="45.1838" lon="4.37046">
        <ele>1029</ele>
        <time>2024-05-23T10:21:34Z</time>
      </trkpt>
      <trkpt lat="45.18386" lon="4.37033">
        <ele>1029</ele>
        <time>2024-05-23T10:21:44Z</time>
      </trkpt>
      <trkpt lat="45.18386" lon="4.37025">
        <ele>1029</ele>
        <time>2024-05-23T10:21:48Z</time>
      </trkpt>
      <trkpt lat="45.1839" lon="4.37012">
        <ele>1029</ele>
        <time>2024-05-23T10:21:57Z</time>
      </trkpt>
      <trkpt lat="45.1839" lon="4.37003">
        <ele>1029</ele>
        <time>2024-05-23T10:22:02Z</time>
      </trkpt>
      <trkpt lat="45.18394" lon="4.36995">
        <ele>1029</ele>
        <time>2024-05-23T10:22:09Z</time>
      </trkpt>
      <trkpt lat="45.18393" lon="4.36971">
        <ele>1030</ele>
        <time>2024-05-23T10:22:23Z</time>
      </trkpt>
      <trkpt lat="45.18396" lon="4.36965">
        <ele>1030</ele>
        <time>2024-05-23T10:22:27Z</time>
      </trkpt>
      <trkpt lat="45.18397" lon="4.36956">
        <ele>1030</ele>
        <time>2024-05-23T10:22:34Z</time>
      </trkpt>
      <trkpt lat="45.18398" lon="4.36947">
        <ele>1030</ele>
        <time>2024-05-23T10:22:40Z</time>
      </trkpt>
      <trkpt lat="45.18402" lon="4.36942">
        <ele>1030</ele>
        <time>2024-05-23T10:22:46Z</time>
      </trkpt>
      <trkpt lat="45.18401" lon="4.36933">
        <ele>1030</ele>
        <time>2024-05-23T10:22:50Z</time>
      </trkpt>
      <trkpt lat="45.18399" lon="4.36926">
        <ele>1031</ele>
        <time>2024-05-23T10:22:53Z</time>
      </trkpt>
      <trkpt lat="45.184" lon="4.36919">
        <ele>1031</ele>
        <time>2024-05-23T10:22:58Z</time>
      </trkpt>
      <trkpt lat="45.18404" lon="4.36915">
        <ele>1031</ele>
        <time>2024-05-23T10:23:01Z</time>
      </trkpt>
      <trkpt lat="45.18404" lon="4.36908">
        <ele>1031</ele>
        <time>2024-05-23T10:23:07Z</time>
      </trkpt>
      <trkpt lat="45.18405" lon="4.36895">
        <ele>1031</ele>
        <time>2024-05-23T10:23:15Z</time>
      </trkpt>
      <trkpt lat="45.18408" lon="4.3689">
        <ele>1031</ele>
        <time>2024-05-23T10:23:20Z</time>
      </trkpt>
      <trkpt lat="45.18409" lon="4.36875">
        <ele>1031</ele>
        <time>2024-05-23T10:23:29Z</time>
      </trkpt>
      <trkpt lat="45.1841" lon="4.3687">
        <ele>1031</ele>
        <time>2024-05-23T10:23:32Z</time>
      </trkpt>
      <trkpt lat="45.18411" lon="4.36844">
        <ele>1031</ele>
        <time>2024-05-23T10:23:49Z</time>
      </trkpt>
      <trkpt lat="45.1841" lon="4.36838">
        <ele>1031</ele>
        <time>2024-05-23T10:23:52Z</time>
      </trkpt>
      <trkpt lat="45.18411" lon="4.36832">
        <ele>1031</ele>
        <time>2024-05-23T10:23:56Z</time>
      </trkpt>
      <trkpt lat="45.18412" lon="4.36824">
        <ele>1031</ele>
        <time>2024-05-23T10:24:04Z</time>
      </trkpt>
      <trkpt lat="45.18411" lon="4.36818">
        <ele>1031</ele>
        <time>2024-05-23T10:24:08Z</time>
      </trkpt>
      <trkpt lat="45.18413" lon="4.3681">
        <ele>1031</ele>
        <time>2024-05-23T10:24:13Z</time>
      </trkpt>
      <trkpt lat="45.18415" lon="4.36797">
        <ele>1031</ele>
        <time>2024-05-23T10:24:21Z</time>
      </trkpt>
      <trkpt lat="45.18415" lon="4.36789">
        <ele>1031</ele>
        <time>2024-05-23T10:24:25Z</time>
      </trkpt>
      <trkpt lat="45.18416" lon="4.36783">
        <ele>1031</ele>
        <time>2024-05-23T10:24:29Z</time>
      </trkpt>
      <trkpt lat="45.18422" lon="4.36754">
        <ele>1031</ele>
        <time>2024-05-23T10:24:47Z</time>
      </trkpt>
      <trkpt lat="45.1842" lon="4.36749">
        <ele>1031</ele>
        <time>2024-05-23T10:24:50Z</time>
      </trkpt>
      <trkpt lat="45.18422" lon="4.36742">
        <ele>1031</ele>
        <time>2024-05-23T10:24:54Z</time>
      </trkpt>
      <trkpt lat="45.18423" lon="4.36731">
        <ele>1031</ele>
        <time>2024-05-23T10:25:01Z</time>
      </trkpt>
      <trkpt lat="45.18425" lon="4.36731">
        <ele>1030</ele>
        <time>2024-05-23T10:25:14Z</time>
      </trkpt>
      <trkpt lat="45.18429" lon="4.36727">
        <ele>1031</ele>
        <time>2024-05-23T10:25:19Z</time>
      </trkpt>
      <trkpt lat="45.18429" lon="4.3672">
        <ele>1031</ele>
        <time>2024-05-23T10:25:24Z</time>
      </trkpt>
      <trkpt lat="45.18427" lon="4.36714">
        <ele>1031</ele>
        <time>2024-05-23T10:25:28Z</time>
      </trkpt>
      <trkpt lat="45.1843" lon="4.36709">
        <ele>1031</ele>
        <time>2024-05-23T10:25:32Z</time>
      </trkpt>
      <trkpt lat="45.18428" lon="4.36703">
        <ele>1031</ele>
        <time>2024-05-23T10:25:40Z</time>
      </trkpt>
      <trkpt lat="45.18425" lon="4.36698">
        <ele>1031</ele>
        <time>2024-05-23T10:25:45Z</time>
      </trkpt>
      <trkpt lat="45.18428" lon="4.36691">
        <ele>1031</ele>
        <time>2024-05-23T10:25:48Z</time>
      </trkpt>
      <trkpt lat="45.18426" lon="4.36683">
        <ele>1031</ele>
        <time>2024-05-23T10:25:55Z</time>
      </trkpt>
      <trkpt lat="45.18429" lon="4.36677">
        <ele>1031</ele>
        <time>2024-05-23T10:25:59Z</time>
      </trkpt>
      <trkpt lat="45.18429" lon="4.36669">
        <ele>1031</ele>
        <time>2024-05-23T10:26:03Z</time>
      </trkpt>
      <trkpt lat="45.18432" lon="4.36656">
        <ele>1031</ele>
        <time>2024-05-23T10:26:11Z</time>
      </trkpt>
      <trkpt lat="45.18432" lon="4.36629">
        <ele>1032</ele>
        <time>2024-05-23T10:26:25Z</time>
      </trkpt>
      <trkpt lat="45.18434" lon="4.36624">
        <ele>1032</ele>
        <time>2024-05-23T10:26:29Z</time>
      </trkpt>
      <trkpt lat="45.18434" lon="4.36616">
        <ele>1032</ele>
        <time>2024-05-23T10:26:32Z</time>
      </trkpt>
      <trkpt lat="45.18435" lon="4.36608">
        <ele>1033</ele>
        <time>2024-05-23T10:26:40Z</time>
      </trkpt>
      <trkpt lat="45.18434" lon="4.36585">
        <ele>1034</ele>
        <time>2024-05-23T10:26:52Z</time>
      </trkpt>
      <trkpt lat="45.18436" lon="4.36577">
        <ele>1034</ele>
        <time>2024-05-23T10:26:59Z</time>
      </trkpt>
      <trkpt lat="45.18435" lon="4.36571">
        <ele>1034</ele>
        <time>2024-05-23T10:27:02Z</time>
      </trkpt>
      <trkpt lat="45.18436" lon="4.36554">
        <ele>1035</ele>
        <time>2024-05-23T10:27:13Z</time>
      </trkpt>
      <trkpt lat="45.18434" lon="4.36542">
        <ele>1036</ele>
        <time>2024-05-23T10:27:21Z</time>
      </trkpt>
      <trkpt lat="45.18434" lon="4.36535">
        <ele>1036</ele>
        <time>2024-05-23T10:27:25Z</time>
      </trkpt>
      <trkpt lat="45.18432" lon="4.36522">
        <ele>1037</ele>
        <time>2024-05-23T10:27:34Z</time>
      </trkpt>
      <trkpt lat="45.18433" lon="4.36503">
        <ele>1038</ele>
        <time>2024-05-23T10:27:45Z</time>
      </trkpt>
      <trkpt lat="45.18431" lon="4.3648">
        <ele>1040</ele>
        <time>2024-05-23T10:28:00Z</time>
      </trkpt>
      <trkpt lat="45.18429" lon="4.36467">
        <ele>1040</ele>
        <time>2024-05-23T10:28:08Z</time>
      </trkpt>
      <trkpt lat="45.18429" lon="4.36454">
        <ele>1041</ele>
        <time>2024-05-23T10:28:15Z</time>
      </trkpt>
      <trkpt lat="45.1843" lon="4.36447">
        <ele>1041</ele>
        <time>2024-05-23T10:28:19Z</time>
      </trkpt>
      <trkpt lat="45.18431" lon="4.36441">
        <ele>1041</ele>
        <time>2024-05-23T10:28:23Z</time>
      </trkpt>
      <trkpt lat="45.1843" lon="4.36428">
        <ele>1040</ele>
        <time>2024-05-23T10:28:31Z</time>
      </trkpt>
      <trkpt lat="45.18429" lon="4.36421">
        <ele>1040</ele>
        <time>2024-05-23T10:28:35Z</time>
      </trkpt>
      <trkpt lat="45.1843" lon="4.36408">
        <ele>1039</ele>
        <time>2024-05-23T10:28:43Z</time>
      </trkpt>
      <trkpt lat="45.18433" lon="4.36391">
        <ele>1039</ele>
        <time>2024-05-23T10:28:53Z</time>
      </trkpt>
      <trkpt lat="45.18433" lon="4.36384">
        <ele>1039</ele>
        <time>2024-05-23T10:28:56Z</time>
      </trkpt>
      <trkpt lat="45.18438" lon="4.36379">
        <ele>1039</ele>
        <time>2024-05-23T10:29:04Z</time>
      </trkpt>
      <trkpt lat="45.18445" lon="4.36379">
        <ele>1039</ele>
        <time>2024-05-23T10:29:15Z</time>
      </trkpt>
      <trkpt lat="45.18434" lon="4.3633">
        <ele>1035</ele>
        <time>2024-05-23T10:36:45Z</time>
      </trkpt>
      <trkpt lat="45.18434" lon="4.36297">
        <ele>1036</ele>
        <time>2024-05-23T10:37:06Z</time>
      </trkpt>
      <trkpt lat="45.18432" lon="4.36282">
        <ele>1036</ele>
        <time>2024-05-23T10:37:14Z</time>
      </trkpt>
      <trkpt lat="45.18433" lon="4.36274">
        <ele>1036</ele>
        <time>2024-05-23T10:37:20Z</time>
      </trkpt>
      <trkpt lat="45.18432" lon="4.3626">
        <ele>1036</ele>
        <time>2024-05-23T10:37:27Z</time>
      </trkpt>
      <trkpt lat="45.18433" lon="4.36255">
        <ele>1036</ele>
        <time>2024-05-23T10:37:30Z</time>
      </trkpt>
      <trkpt lat="45.1843" lon="4.36248">
        <ele>1036</ele>
        <time>2024-05-23T10:37:33Z</time>
      </trkpt>
      <trkpt lat="45.1843" lon="4.36234">
        <ele>1037</ele>
        <time>2024-05-23T10:37:42Z</time>
      </trkpt>
      <trkpt lat="45.1843" lon="4.36228">
        <ele>1037</ele>
        <time>2024-05-23T10:37:46Z</time>
      </trkpt>
      <trkpt lat="45.18428" lon="4.3622">
        <ele>1037</ele>
        <time>2024-05-23T10:37:51Z</time>
      </trkpt>
      <trkpt lat="45.18428" lon="4.36186">
        <ele>1037</ele>
        <time>2024-05-23T10:38:11Z</time>
      </trkpt>
      <trkpt lat="45.18426" lon="4.36179">
        <ele>1038</ele>
        <time>2024-05-23T10:38:16Z</time>
      </trkpt>
      <trkpt lat="45.18429" lon="4.36169">
        <ele>1038</ele>
        <time>2024-05-23T10:38:20Z</time>
      </trkpt>
      <trkpt lat="45.18429" lon="4.36162">
        <ele>1038</ele>
        <time>2024-05-23T10:38:25Z</time>
      </trkpt>
      <trkpt lat="45.18428" lon="4.36154">
        <ele>1037</ele>
        <time>2024-05-23T10:38:29Z</time>
      </trkpt>
      <trkpt lat="45.18425" lon="4.3615">
        <ele>1037</ele>
        <time>2024-05-23T10:38:33Z</time>
      </trkpt>
      <trkpt lat="45.18421" lon="4.36139">
        <ele>1036</ele>
        <time>2024-05-23T10:38:42Z</time>
      </trkpt>
      <trkpt lat="45.18418" lon="4.36129">
        <ele>1035</ele>
        <time>2024-05-23T10:38:46Z</time>
      </trkpt>
      <trkpt lat="45.18418" lon="4.36122">
        <ele>1035</ele>
        <time>2024-05-23T10:38:48Z</time>
      </trkpt>
      <trkpt lat="45.18414" lon="4.36116">
        <ele>1035</ele>
        <time>2024-05-23T10:38:55Z</time>
      </trkpt>
      <trkpt lat="45.18413" lon="4.3611">
        <ele>1034</ele>
        <time>2024-05-23T10:38:59Z</time>
      </trkpt>
      <trkpt lat="45.18409" lon="4.36105">
        <ele>1034</ele>
        <time>2024-05-23T10:39:03Z</time>
      </trkpt>
      <trkpt lat="45.18408" lon="4.36099">
        <ele>1034</ele>
        <time>2024-05-23T10:39:07Z</time>
      </trkpt>
      <trkpt lat="45.18407" lon="4.36091">
        <ele>1034</ele>
        <time>2024-05-23T10:39:10Z</time>
      </trkpt>
      <trkpt lat="45.18392" lon="4.36052">
        <ele>1033</ele>
        <time>2024-05-23T10:39:33Z</time>
      </trkpt>
      <trkpt lat="45.1839" lon="4.3604">
        <ele>1033</ele>
        <time>2024-05-23T10:39:44Z</time>
      </trkpt>
      <trkpt lat="45.1839" lon="4.36033">
        <ele>1033</ele>
        <time>2024-05-23T10:39:50Z</time>
      </trkpt>
      <trkpt lat="45.18388" lon="4.36024">
        <ele>1031</ele>
        <time>2024-05-23T10:40:13Z</time>
      </trkpt>
      <trkpt lat="45.18386" lon="4.36019">
        <ele>1030</ele>
        <time>2024-05-23T10:40:17Z</time>
      </trkpt>
      <trkpt lat="45.18382" lon="4.36011">
        <ele>1029</ele>
        <time>2024-05-23T10:40:23Z</time>
      </trkpt>
      <trkpt lat="45.1838" lon="4.36004">
        <ele>1029</ele>
        <time>2024-05-23T10:40:28Z</time>
      </trkpt>
      <trkpt lat="45.18375" lon="4.35994">
        <ele>1028</ele>
        <time>2024-05-23T10:40:37Z</time>
      </trkpt>
      <trkpt lat="45.18373" lon="4.35987">
        <ele>1026</ele>
        <time>2024-05-23T10:40:42Z</time>
      </trkpt>
      <trkpt lat="45.18372" lon="4.3596">
        <ele>1023</ele>
        <time>2024-05-23T10:40:58Z</time>
      </trkpt>
      <trkpt lat="45.18368" lon="4.35953">
        <ele>1020</ele>
        <time>2024-05-23T10:41:20Z</time>
      </trkpt>
      <trkpt lat="45.18368" lon="4.35946">
        <ele>1020</ele>
        <time>2024-05-23T10:41:23Z</time>
      </trkpt>
      <trkpt lat="45.18365" lon="4.35939">
        <ele>1019</ele>
        <time>2024-05-23T10:41:27Z</time>
      </trkpt>
      <trkpt lat="45.18362" lon="4.35888">
        <ele>1017</ele>
        <time>2024-05-23T10:41:55Z</time>
      </trkpt>
      <trkpt lat="45.18365" lon="4.35883">
        <ele>1017</ele>
        <time>2024-05-23T10:42:00Z</time>
      </trkpt>
      <trkpt lat="45.18369" lon="4.35871">
        <ele>1017</ele>
        <time>2024-05-23T10:42:08Z</time>
      </trkpt>
      <trkpt lat="45.18369" lon="4.35862">
        <ele>1016</ele>
        <time>2024-05-23T10:42:12Z</time>
      </trkpt>
      <trkpt lat="45.18373" lon="4.35855">
        <ele>1016</ele>
        <time>2024-05-23T10:42:19Z</time>
      </trkpt>
      <trkpt lat="45.18378" lon="4.35818">
        <ele>1016</ele>
        <time>2024-05-23T10:42:42Z</time>
      </trkpt>
      <trkpt lat="45.18378" lon="4.35811">
        <ele>1016</ele>
        <time>2024-05-23T10:42:46Z</time>
      </trkpt>
      <trkpt lat="45.18379" lon="4.35806">
        <ele>1016</ele>
        <time>2024-05-23T10:42:51Z</time>
      </trkpt>
      <trkpt lat="45.18377" lon="4.35797">
        <ele>1017</ele>
        <time>2024-05-23T10:42:57Z</time>
      </trkpt>
      <trkpt lat="45.18376" lon="4.35791">
        <ele>1017</ele>
        <time>2024-05-23T10:43:00Z</time>
      </trkpt>
      <trkpt lat="45.18377" lon="4.35785">
        <ele>1017</ele>
        <time>2024-05-23T10:43:04Z</time>
      </trkpt>
      <trkpt lat="45.1837" lon="4.35778">
        <ele>1018</ele>
        <time>2024-05-23T10:43:31Z</time>
      </trkpt>
      <trkpt lat="45.18371" lon="4.35771">
        <ele>1018</ele>
        <time>2024-05-23T10:43:35Z</time>
      </trkpt>
      <trkpt lat="45.18354" lon="4.35735">
        <ele>1020</ele>
        <time>2024-05-23T10:44:03Z</time>
      </trkpt>
      <trkpt lat="45.1834" lon="4.35714">
        <ele>1020</ele>
        <time>2024-05-23T10:44:23Z</time>
      </trkpt>
      <trkpt lat="45.18336" lon="4.35711">
        <ele>1020</ele>
        <time>2024-05-23T10:44:27Z</time>
      </trkpt>
      <trkpt lat="45.18332" lon="4.35706">
        <ele>1020</ele>
        <time>2024-05-23T10:44:42Z</time>
      </trkpt>
      <trkpt lat="45.18329" lon="4.357">
        <ele>1019</ele>
        <time>2024-05-23T10:44:47Z</time>
      </trkpt>
      <trkpt lat="45.18324" lon="4.35687">
        <ele>1019</ele>
        <time>2024-05-23T10:44:56Z</time>
      </trkpt>
      <trkpt lat="45.18321" lon="4.35683">
        <ele>1019</ele>
        <time>2024-05-23T10:44:59Z</time>
      </trkpt>
      <trkpt lat="45.1832" lon="4.35677">
        <ele>1019</ele>
        <time>2024-05-23T10:45:03Z</time>
      </trkpt>
      <trkpt lat="45.18311" lon="4.35667">
        <ele>1018</ele>
        <time>2024-05-23T10:45:12Z</time>
      </trkpt>
      <trkpt lat="45.18307" lon="4.35664">
        <ele>1017</ele>
        <time>2024-05-23T10:45:18Z</time>
      </trkpt>
      <trkpt lat="45.18301" lon="4.3566">
        <ele>1017</ele>
        <time>2024-05-23T10:45:22Z</time>
      </trkpt>
      <trkpt lat="45.18299" lon="4.35655">
        <ele>1017</ele>
        <time>2024-05-23T10:45:27Z</time>
      </trkpt>
      <trkpt lat="45.18268" lon="4.35631">
        <ele>1015</ele>
        <time>2024-05-23T10:45:58Z</time>
      </trkpt>
      <trkpt lat="45.18263" lon="4.35628">
        <ele>1015</ele>
        <time>2024-05-23T10:46:02Z</time>
      </trkpt>
      <trkpt lat="45.1826" lon="4.35625">
        <ele>1015</ele>
        <time>2024-05-23T10:46:06Z</time>
      </trkpt>
      <trkpt lat="45.18224" lon="4.3561">
        <ele>1013</ele>
        <time>2024-05-23T10:46:38Z</time>
      </trkpt>
      <trkpt lat="45.18214" lon="4.35603">
        <ele>1013</ele>
        <time>2024-05-23T10:46:46Z</time>
      </trkpt>
      <trkpt lat="45.1821" lon="4.35604">
        <ele>1013</ele>
        <time>2024-05-23T10:46:49Z</time>
      </trkpt>
      <trkpt lat="45.18179" lon="4.35572">
        <ele>1012</ele>
        <time>2024-05-23T10:47:22Z</time>
      </trkpt>
      <trkpt lat="45.1817" lon="4.35565">
        <ele>1012</ele>
        <time>2024-05-23T10:47:30Z</time>
      </trkpt>
      <trkpt lat="45.18163" lon="4.35554">
        <ele>1011</ele>
        <time>2024-05-23T10:47:39Z</time>
      </trkpt>
      <trkpt lat="45.18156" lon="4.35545">
        <ele>1011</ele>
        <time>2024-05-23T10:47:46Z</time>
      </trkpt>
      <trkpt lat="45.18146" lon="4.3552">
        <ele>1010</ele>
        <time>2024-05-23T10:48:02Z</time>
      </trkpt>
      <trkpt lat="45.18143" lon="4.35515">
        <ele>1010</ele>
        <time>2024-05-23T10:48:05Z</time>
      </trkpt>
      <trkpt lat="45.1813" lon="4.35462">
        <ele>1008</ele>
        <time>2024-05-23T10:48:37Z</time>
      </trkpt>
      <trkpt lat="45.18128" lon="4.35455">
        <ele>1007</ele>
        <time>2024-05-23T10:48:41Z</time>
      </trkpt>
      <trkpt lat="45.18128" lon="4.35449">
        <ele>1007</ele>
        <time>2024-05-23T10:48:45Z</time>
      </trkpt>
      <trkpt lat="45.18125" lon="4.35443">
        <ele>1007</ele>
        <time>2024-05-23T10:48:49Z</time>
      </trkpt>
      <trkpt lat="45.18125" lon="4.35436">
        <ele>1007</ele>
        <time>2024-05-23T10:48:53Z</time>
      </trkpt>
      <trkpt lat="45.18123" lon="4.3543">
        <ele>1007</ele>
        <time>2024-05-23T10:48:56Z</time>
      </trkpt>
      <trkpt lat="45.1812" lon="4.35419">
        <ele>1006</ele>
        <time>2024-05-23T10:49:05Z</time>
      </trkpt>
      <trkpt lat="45.18119" lon="4.3541">
        <ele>1006</ele>
        <time>2024-05-23T10:49:11Z</time>
      </trkpt>
      <trkpt lat="45.18117" lon="4.35405">
        <ele>1007</ele>
        <time>2024-05-23T10:49:15Z</time>
      </trkpt>
      <trkpt lat="45.18113" lon="4.35399">
        <ele>1006</ele>
        <time>2024-05-23T10:49:19Z</time>
      </trkpt>
      <trkpt lat="45.1811" lon="4.35386">
        <ele>1006</ele>
        <time>2024-05-23T10:49:26Z</time>
      </trkpt>
      <trkpt lat="45.18108" lon="4.35382">
        <ele>1006</ele>
        <time>2024-05-23T10:49:54Z</time>
      </trkpt>
      <trkpt lat="45.18101" lon="4.35377">
        <ele>1005</ele>
        <time>2024-05-23T10:50:05Z</time>
      </trkpt>
      <trkpt lat="45.18088" lon="4.35373">
        <ele>1004</ele>
        <time>2024-05-23T10:50:17Z</time>
      </trkpt>
      <trkpt lat="45.18079" lon="4.35382">
        <ele>1004</ele>
        <time>2024-05-23T10:50:29Z</time>
      </trkpt>
      <trkpt lat="45.1808" lon="4.35375">
        <ele>1004</ele>
        <time>2024-05-23T10:50:36Z</time>
      </trkpt>
      <trkpt lat="45.18069" lon="4.35378">
        <ele>1004</ele>
        <time>2024-05-23T10:50:55Z</time>
      </trkpt>
      <trkpt lat="45.18075" lon="4.35376">
        <ele>1004</ele>
        <time>2024-05-23T10:51:26Z</time>
      </trkpt>
      <trkpt lat="45.18084" lon="4.35374">
        <ele>1004</ele>
        <time>2024-05-23T10:51:35Z</time>
      </trkpt>
      <trkpt lat="45.1809" lon="4.35371">
        <ele>1004</ele>
        <time>2024-05-23T10:51:43Z</time>
      </trkpt>
      <trkpt lat="45.18102" lon="4.35378">
        <ele>1004</ele>
        <time>2024-05-23T10:51:58Z</time>
      </trkpt>
      <trkpt lat="45.18106" lon="4.3538">
        <ele>1005</ele>
        <time>2024-05-23T10:52:02Z</time>
      </trkpt>
      <trkpt lat="45.18111" lon="4.3538">
        <ele>1005</ele>
        <time>2024-05-23T10:52:06Z</time>
      </trkpt>
      <trkpt lat="45.18113" lon="4.35374">
        <ele>1006</ele>
        <time>2024-05-23T10:52:41Z</time>
      </trkpt>
      <trkpt lat="45.18116" lon="4.35371">
        <ele>1007</ele>
        <time>2024-05-23T10:53:48Z</time>
      </trkpt>
      <trkpt lat="45.18118" lon="4.35366">
        <ele>1007</ele>
        <time>2024-05-23T10:53:52Z</time>
      </trkpt>
      <trkpt lat="45.18123" lon="4.35365">
        <ele>1007</ele>
        <time>2024-05-23T10:54:04Z</time>
      </trkpt>
      <trkpt lat="45.1812" lon="4.3536">
        <ele>1007</ele>
        <time>2024-05-23T10:55:20Z</time>
      </trkpt>
      <trkpt lat="45.18092" lon="4.35377">
        <ele>1007</ele>
        <time>2024-05-23T11:26:49Z</time>
      </trkpt>
      <trkpt lat="45.18088" lon="4.35376">
        <ele>1007</ele>
        <time>2024-05-23T11:26:55Z</time>
      </trkpt>
      <trkpt lat="45.18069" lon="4.35382">
        <ele>1006</ele>
        <time>2024-05-23T11:27:14Z</time>
      </trkpt>
      <trkpt lat="45.18034" lon="4.35374">
        <ele>1004</ele>
        <time>2024-05-23T11:27:45Z</time>
      </trkpt>
      <trkpt lat="45.18019" lon="4.35371">
        <ele>1005</ele>
        <time>2024-05-23T11:27:58Z</time>
      </trkpt>
      <trkpt lat="45.1801" lon="4.35365">
        <ele>1006</ele>
        <time>2024-05-23T11:28:06Z</time>
      </trkpt>
      <trkpt lat="45.18006" lon="4.35361">
        <ele>1006</ele>
        <time>2024-05-23T11:28:10Z</time>
      </trkpt>
      <trkpt lat="45.18001" lon="4.35359">
        <ele>1006</ele>
        <time>2024-05-23T11:28:14Z</time>
      </trkpt>
      <trkpt lat="45.17998" lon="4.35355">
        <ele>1007</ele>
        <time>2024-05-23T11:28:18Z</time>
      </trkpt>
      <trkpt lat="45.1799" lon="4.35348">
        <ele>1007</ele>
        <time>2024-05-23T11:28:26Z</time>
      </trkpt>
      <trkpt lat="45.17986" lon="4.35343">
        <ele>1007</ele>
        <time>2024-05-23T11:28:31Z</time>
      </trkpt>
      <trkpt lat="45.17958" lon="4.35321">
        <ele>1010</ele>
        <time>2024-05-23T11:29:00Z</time>
      </trkpt>
      <trkpt lat="45.17955" lon="4.35316">
        <ele>1011</ele>
        <time>2024-05-23T11:29:05Z</time>
      </trkpt>
      <trkpt lat="45.17951" lon="4.35311">
        <ele>1011</ele>
        <time>2024-05-23T11:29:09Z</time>
      </trkpt>
      <trkpt lat="45.17943" lon="4.35307">
        <ele>1011</ele>
        <time>2024-05-23T11:29:17Z</time>
      </trkpt>
      <trkpt lat="45.17937" lon="4.35305">
        <ele>1011</ele>
        <time>2024-05-23T11:29:21Z</time>
      </trkpt>
      <trkpt lat="45.17934" lon="4.35301">
        <ele>1011</ele>
        <time>2024-05-23T11:29:25Z</time>
      </trkpt>
      <trkpt lat="45.17928" lon="4.35292">
        <ele>1011</ele>
        <time>2024-05-23T11:29:33Z</time>
      </trkpt>
      <trkpt lat="45.17925" lon="4.35279">
        <ele>1009</ele>
        <time>2024-05-23T11:29:41Z</time>
      </trkpt>
      <trkpt lat="45.17923" lon="4.35257">
        <ele>1008</ele>
        <time>2024-05-23T11:29:54Z</time>
      </trkpt>
      <trkpt lat="45.17922" lon="4.35252">
        <ele>1007</ele>
        <time>2024-05-23T11:29:58Z</time>
      </trkpt>
      <trkpt lat="45.17921" lon="4.35245">
        <ele>1007</ele>
        <time>2024-05-23T11:30:03Z</time>
      </trkpt>
      <trkpt lat="45.17919" lon="4.35249">
        <ele>1007</ele>
        <time>2024-05-23T11:31:52Z</time>
      </trkpt>
      <trkpt lat="45.1792" lon="4.35237">
        <ele>1006</ele>
        <time>2024-05-23T11:32:04Z</time>
      </trkpt>
      <trkpt lat="45.17918" lon="4.35232">
        <ele>1006</ele>
        <time>2024-05-23T11:32:07Z</time>
      </trkpt>
      <trkpt lat="45.17914" lon="4.35225">
        <ele>1005</ele>
        <time>2024-05-23T11:32:12Z</time>
      </trkpt>
      <trkpt lat="45.1791" lon="4.35209">
        <ele>1004</ele>
        <time>2024-05-23T11:32:21Z</time>
      </trkpt>
      <trkpt lat="45.17906" lon="4.35202">
        <ele>1003</ele>
        <time>2024-05-23T11:32:25Z</time>
      </trkpt>
      <trkpt lat="45.17893" lon="4.35182">
        <ele>1002</ele>
        <time>2024-05-23T11:32:39Z</time>
      </trkpt>
      <trkpt lat="45.17884" lon="4.35164">
        <ele>1000</ele>
        <time>2024-05-23T11:32:50Z</time>
      </trkpt>
      <trkpt lat="45.17881" lon="4.35159">
        <ele>1000</ele>
        <time>2024-05-23T11:32:53Z</time>
      </trkpt>
      <trkpt lat="45.1786" lon="4.35114">
        <ele>996</ele>
        <time>2024-05-23T11:33:20Z</time>
      </trkpt>
      <trkpt lat="45.17853" lon="4.35105">
        <ele>995</ele>
        <time>2024-05-23T11:33:27Z</time>
      </trkpt>
      <trkpt lat="45.17848" lon="4.35095">
        <ele>995</ele>
        <time>2024-05-23T11:33:34Z</time>
      </trkpt>
      <trkpt lat="45.17844" lon="4.35082">
        <ele>994</ele>
        <time>2024-05-23T11:33:40Z</time>
      </trkpt>
      <trkpt lat="45.17843" lon="4.3507">
        <ele>993</ele>
        <time>2024-05-23T11:33:46Z</time>
      </trkpt>
      <trkpt lat="45.17846" lon="4.35058">
        <ele>992</ele>
        <time>2024-05-23T11:33:52Z</time>
      </trkpt>
      <trkpt lat="45.17861" lon="4.35029">
        <ele>989</ele>
        <time>2024-05-23T11:34:10Z</time>
      </trkpt>
      <trkpt lat="45.17863" lon="4.35016">
        <ele>989</ele>
        <time>2024-05-23T11:34:17Z</time>
      </trkpt>
      <trkpt lat="45.17864" lon="4.3501">
        <ele>988</ele>
        <time>2024-05-23T11:34:20Z</time>
      </trkpt>
      <trkpt lat="45.17866" lon="4.35005">
        <ele>987</ele>
        <time>2024-05-23T11:34:24Z</time>
      </trkpt>
      <trkpt lat="45.17871" lon="4.34983">
        <ele>986</ele>
        <time>2024-05-23T11:34:36Z</time>
      </trkpt>
      <trkpt lat="45.17877" lon="4.34971">
        <ele>986</ele>
        <time>2024-05-23T11:34:44Z</time>
      </trkpt>
      <trkpt lat="45.17886" lon="4.34964">
        <ele>985</ele>
        <time>2024-05-23T11:34:51Z</time>
      </trkpt>
      <trkpt lat="45.1789" lon="4.34951">
        <ele>985</ele>
        <time>2024-05-23T11:35:00Z</time>
      </trkpt>
      <trkpt lat="45.17889" lon="4.34945">
        <ele>984</ele>
        <time>2024-05-23T11:35:03Z</time>
      </trkpt>
      <trkpt lat="45.1789" lon="4.34917">
        <ele>982</ele>
        <time>2024-05-23T11:35:18Z</time>
      </trkpt>
      <trkpt lat="45.1789" lon="4.34881">
        <ele>981</ele>
        <time>2024-05-23T11:35:37Z</time>
      </trkpt>
      <trkpt lat="45.1789" lon="4.34866">
        <ele>980</ele>
        <time>2024-05-23T11:35:45Z</time>
      </trkpt>
      <trkpt lat="45.17891" lon="4.34806">
        <ele>977</ele>
        <time>2024-05-23T11:36:17Z</time>
      </trkpt>
      <trkpt lat="45.17889" lon="4.3477">
        <ele>976</ele>
        <time>2024-05-23T11:36:37Z</time>
      </trkpt>
      <trkpt lat="45.17885" lon="4.34757">
        <ele>976</ele>
        <time>2024-05-23T11:36:45Z</time>
      </trkpt>
      <trkpt lat="45.17879" lon="4.34745">
        <ele>976</ele>
        <time>2024-05-23T11:36:53Z</time>
      </trkpt>
      <trkpt lat="45.17876" lon="4.3474">
        <ele>977</ele>
        <time>2024-05-23T11:36:57Z</time>
      </trkpt>
      <trkpt lat="45.17872" lon="4.34736">
        <ele>977</ele>
        <time>2024-05-23T11:37:01Z</time>
      </trkpt>
      <trkpt lat="45.17862" lon="4.34732">
        <ele>977</ele>
        <time>2024-05-23T11:37:09Z</time>
      </trkpt>
      <trkpt lat="45.17841" lon="4.34727">
        <ele>978</ele>
        <time>2024-05-23T11:37:26Z</time>
      </trkpt>
      <trkpt lat="45.17837" lon="4.34729">
        <ele>979</ele>
        <time>2024-05-23T11:37:30Z</time>
      </trkpt>
      <trkpt lat="45.17832" lon="4.34729">
        <ele>979</ele>
        <time>2024-05-23T11:37:34Z</time>
      </trkpt>
      <trkpt lat="45.17827" lon="4.34729">
        <ele>979</ele>
        <time>2024-05-23T11:37:38Z</time>
      </trkpt>
      <trkpt lat="45.17824" lon="4.34723">
        <ele>979</ele>
        <time>2024-05-23T11:37:49Z</time>
      </trkpt>
      <trkpt lat="45.17828" lon="4.3472">
        <ele>978</ele>
        <time>2024-05-23T11:38:01Z</time>
      </trkpt>
      <trkpt lat="45.1783" lon="4.34719">
        <ele>978</ele>
        <time>2024-05-23T11:38:15Z</time>
      </trkpt>
      <trkpt lat="45.17802" lon="4.34724">
        <ele>979</ele>
        <time>2024-05-23T11:49:06Z</time>
      </trkpt>
      <trkpt lat="45.17778" lon="4.34717">
        <ele>978</ele>
        <time>2024-05-23T11:49:26Z</time>
      </trkpt>
      <trkpt lat="45.17754" lon="4.34708">
        <ele>977</ele>
        <time>2024-05-23T11:49:45Z</time>
      </trkpt>
      <trkpt lat="45.17749" lon="4.34705">
        <ele>977</ele>
        <time>2024-05-23T11:49:49Z</time>
      </trkpt>
      <trkpt lat="45.17744" lon="4.34699">
        <ele>977</ele>
        <time>2024-05-23T11:49:58Z</time>
      </trkpt>
      <trkpt lat="45.17737" lon="4.34695">
        <ele>976</ele>
        <time>2024-05-23T11:50:04Z</time>
      </trkpt>
      <trkpt lat="45.17719" lon="4.34673">
        <ele>976</ele>
        <time>2024-05-23T11:50:23Z</time>
      </trkpt>
      <trkpt lat="45.17715" lon="4.3467">
        <ele>975</ele>
        <time>2024-05-23T11:50:26Z</time>
      </trkpt>
      <trkpt lat="45.17707" lon="4.34659">
        <ele>976</ele>
        <time>2024-05-23T11:50:34Z</time>
      </trkpt>
      <trkpt lat="45.17703" lon="4.34655">
        <ele>975</ele>
        <time>2024-05-23T11:50:37Z</time>
      </trkpt>
      <trkpt lat="45.17691" lon="4.34642">
        <ele>976</ele>
        <time>2024-05-23T11:50:49Z</time>
      </trkpt>
      <trkpt lat="45.17686" lon="4.34639">
        <ele>976</ele>
        <time>2024-05-23T11:50:53Z</time>
      </trkpt>
      <trkpt lat="45.17666" lon="4.3462">
        <ele>976</ele>
        <time>2024-05-23T11:51:12Z</time>
      </trkpt>
      <trkpt lat="45.17647" lon="4.34604">
        <ele>977</ele>
        <time>2024-05-23T11:51:31Z</time>
      </trkpt>
      <trkpt lat="45.17632" lon="4.34602">
        <ele>978</ele>
        <time>2024-05-23T11:51:42Z</time>
      </trkpt>
      <trkpt lat="45.17627" lon="4.346">
        <ele>978</ele>
        <time>2024-05-23T11:51:46Z</time>
      </trkpt>
      <trkpt lat="45.17622" lon="4.34598">
        <ele>978</ele>
        <time>2024-05-23T11:51:50Z</time>
      </trkpt>
      <trkpt lat="45.17608" lon="4.34588">
        <ele>978</ele>
        <time>2024-05-23T11:52:02Z</time>
      </trkpt>
      <trkpt lat="45.17605" lon="4.34583">
        <ele>979</ele>
        <time>2024-05-23T11:52:06Z</time>
      </trkpt>
      <trkpt lat="45.17601" lon="4.34581">
        <ele>979</ele>
        <time>2024-05-23T11:52:11Z</time>
      </trkpt>
      <trkpt lat="45.17593" lon="4.34581">
        <ele>980</ele>
        <time>2024-05-23T11:52:37Z</time>
      </trkpt>
      <trkpt lat="45.17569" lon="4.34577">
        <ele>980</ele>
        <time>2024-05-23T11:52:56Z</time>
      </trkpt>
      <trkpt lat="45.17559" lon="4.34578">
        <ele>981</ele>
        <time>2024-05-23T11:53:03Z</time>
      </trkpt>
      <trkpt lat="45.17555" lon="4.34582">
        <ele>981</ele>
        <time>2024-05-23T11:53:07Z</time>
      </trkpt>
      <trkpt lat="45.17536" lon="4.34587">
        <ele>981</ele>
        <time>2024-05-23T11:53:22Z</time>
      </trkpt>
      <trkpt lat="45.1753" lon="4.34592">
        <ele>982</ele>
        <time>2024-05-23T11:53:28Z</time>
      </trkpt>
      <trkpt lat="45.17527" lon="4.34598">
        <ele>982</ele>
        <time>2024-05-23T11:53:32Z</time>
      </trkpt>
      <trkpt lat="45.17523" lon="4.34602">
        <ele>982</ele>
        <time>2024-05-23T11:53:37Z</time>
      </trkpt>
      <trkpt lat="45.17519" lon="4.34605">
        <ele>982</ele>
        <time>2024-05-23T11:53:41Z</time>
      </trkpt>
      <trkpt lat="45.17503" lon="4.34622">
        <ele>983</ele>
        <time>2024-05-23T11:53:58Z</time>
      </trkpt>
      <trkpt lat="45.175" lon="4.34628">
        <ele>983</ele>
        <time>2024-05-23T11:54:02Z</time>
      </trkpt>
      <trkpt lat="45.17497" lon="4.34632">
        <ele>983</ele>
        <time>2024-05-23T11:54:06Z</time>
      </trkpt>
      <trkpt lat="45.17494" lon="4.34638">
        <ele>983</ele>
        <time>2024-05-23T11:54:10Z</time>
      </trkpt>
      <trkpt lat="45.17483" lon="4.34651">
        <ele>983</ele>
        <time>2024-05-23T11:54:23Z</time>
      </trkpt>
      <trkpt lat="45.1748" lon="4.34657">
        <ele>983</ele>
        <time>2024-05-23T11:54:27Z</time>
      </trkpt>
      <trkpt lat="45.17473" lon="4.34661">
        <ele>983</ele>
        <time>2024-05-23T11:54:39Z</time>
      </trkpt>
      <trkpt lat="45.1747" lon="4.34665">
        <ele>983</ele>
        <time>2024-05-23T11:54:43Z</time>
      </trkpt>
      <trkpt lat="45.17464" lon="4.34669">
        <ele>982</ele>
        <time>2024-05-23T11:55:00Z</time>
      </trkpt>
      <trkpt lat="45.1746" lon="4.34671">
        <ele>982</ele>
        <time>2024-05-23T11:55:03Z</time>
      </trkpt>
      <trkpt lat="45.17435" lon="4.34675">
        <ele>982</ele>
        <time>2024-05-23T11:55:23Z</time>
      </trkpt>
      <trkpt lat="45.1743" lon="4.34675">
        <ele>982</ele>
        <time>2024-05-23T11:55:27Z</time>
      </trkpt>
      <trkpt lat="45.17425" lon="4.34677">
        <ele>982</ele>
        <time>2024-05-23T11:55:31Z</time>
      </trkpt>
      <trkpt lat="45.17396" lon="4.34682">
        <ele>982</ele>
        <time>2024-05-23T11:55:56Z</time>
      </trkpt>
      <trkpt lat="45.17391" lon="4.34683">
        <ele>982</ele>
        <time>2024-05-23T11:56:00Z</time>
      </trkpt>
      <trkpt lat="45.17374" lon="4.34686">
        <ele>981</ele>
        <time>2024-05-23T11:56:14Z</time>
      </trkpt>
      <trkpt lat="45.17343" lon="4.34693">
        <ele>982</ele>
        <time>2024-05-23T11:56:38Z</time>
      </trkpt>
      <trkpt lat="45.17304" lon="4.3469">
        <ele>980</ele>
        <time>2024-05-23T11:57:09Z</time>
      </trkpt>
      <trkpt lat="45.17263" lon="4.3468">
        <ele>978</ele>
        <time>2024-05-23T11:57:41Z</time>
      </trkpt>
      <trkpt lat="45.17224" lon="4.34668">
        <ele>976</ele>
        <time>2024-05-23T11:58:14Z</time>
      </trkpt>
      <trkpt lat="45.17219" lon="4.34666">
        <ele>976</ele>
        <time>2024-05-23T11:58:18Z</time>
      </trkpt>
      <trkpt lat="45.17202" lon="4.34649">
        <ele>974</ele>
        <time>2024-05-23T11:58:34Z</time>
      </trkpt>
      <trkpt lat="45.17199" lon="4.34644">
        <ele>973</ele>
        <time>2024-05-23T11:58:38Z</time>
      </trkpt>
      <trkpt lat="45.17194" lon="4.3464">
        <ele>973</ele>
        <time>2024-05-23T11:58:42Z</time>
      </trkpt>
      <trkpt lat="45.17181" lon="4.34628">
        <ele>971</ele>
        <time>2024-05-23T11:58:54Z</time>
      </trkpt>
      <trkpt lat="45.17153" lon="4.34598">
        <ele>967</ele>
        <time>2024-05-23T11:59:21Z</time>
      </trkpt>
      <trkpt lat="45.17132" lon="4.34589">
        <ele>965</ele>
        <time>2024-05-23T11:59:41Z</time>
      </trkpt>
      <trkpt lat="45.1709" lon="4.34582">
        <ele>963</ele>
        <time>2024-05-23T12:00:14Z</time>
      </trkpt>
      <trkpt lat="45.17061" lon="4.34576">
        <ele>961</ele>
        <time>2024-05-23T12:00:38Z</time>
      </trkpt>
      <trkpt lat="45.17035" lon="4.34561">
        <ele>957</ele>
        <time>2024-05-23T12:01:02Z</time>
      </trkpt>
      <trkpt lat="45.16999" lon="4.34533">
        <ele>954</ele>
        <time>2024-05-23T12:01:33Z</time>
      </trkpt>
      <trkpt lat="45.16966" lon="4.34501">
        <ele>952</ele>
        <time>2024-05-23T12:02:06Z</time>
      </trkpt>
      <trkpt lat="45.16944" lon="4.34485">
        <ele>950</ele>
        <time>2024-05-23T12:02:27Z</time>
      </trkpt>
      <trkpt lat="45.1693" lon="4.34466">
        <ele>947</ele>
        <time>2024-05-23T12:02:43Z</time>
      </trkpt>
      <trkpt lat="45.16911" lon="4.34443">
        <ele>944</ele>
        <time>2024-05-23T12:03:03Z</time>
      </trkpt>
      <trkpt lat="45.16896" lon="4.34413">
        <ele>940</ele>
        <time>2024-05-23T12:03:22Z</time>
      </trkpt>
      <trkpt lat="45.16891" lon="4.34411">
        <ele>940</ele>
        <time>2024-05-23T12:03:26Z</time>
      </trkpt>
      <trkpt lat="45.16877" lon="4.34409">
        <ele>939</ele>
        <time>2024-05-23T12:03:38Z</time>
      </trkpt>
      <trkpt lat="45.16862" lon="4.34402">
        <ele>938</ele>
        <time>2024-05-23T12:03:50Z</time>
      </trkpt>
      <trkpt lat="45.1684" lon="4.34385">
        <ele>937</ele>
        <time>2024-05-23T12:04:11Z</time>
      </trkpt>
      <trkpt lat="45.16835" lon="4.34381">
        <ele>937</ele>
        <time>2024-05-23T12:04:15Z</time>
      </trkpt>
      <trkpt lat="45.16819" lon="4.34364">
        <ele>937</ele>
        <time>2024-05-23T12:04:44Z</time>
      </trkpt>
      <trkpt lat="45.16815" lon="4.34363">
        <ele>937</ele>
        <time>2024-05-23T12:04:48Z</time>
      </trkpt>
      <trkpt lat="45.16801" lon="4.3435">
        <ele>938</ele>
        <time>2024-05-23T12:05:02Z</time>
      </trkpt>
      <trkpt lat="45.16793" lon="4.34335">
        <ele>939</ele>
        <time>2024-05-23T12:05:14Z</time>
      </trkpt>
      <trkpt lat="45.16787" lon="4.34323">
        <ele>939</ele>
        <time>2024-05-23T12:05:21Z</time>
      </trkpt>
      <trkpt lat="45.16788" lon="4.34323">
        <ele>939</ele>
        <time>2024-05-23T12:05:32Z</time>
      </trkpt>
      <trkpt lat="45.16791" lon="4.3433">
        <ele>939</ele>
        <time>2024-05-23T12:05:36Z</time>
      </trkpt>
      <trkpt lat="45.16792" lon="4.34336">
        <ele>939</ele>
        <time>2024-05-23T12:05:40Z</time>
      </trkpt>
      <trkpt lat="45.16787" lon="4.3434">
        <ele>940</ele>
        <time>2024-05-23T12:05:48Z</time>
      </trkpt>
      <trkpt lat="45.16764" lon="4.34337">
        <ele>943</ele>
        <time>2024-05-23T12:06:14Z</time>
      </trkpt>
      <trkpt lat="45.16752" lon="4.3434">
        <ele>944</ele>
        <time>2024-05-23T12:06:26Z</time>
      </trkpt>
      <trkpt lat="45.16742" lon="4.34341">
        <ele>945</ele>
        <time>2024-05-23T12:06:37Z</time>
      </trkpt>
      <trkpt lat="45.16738" lon="4.34344">
        <ele>945</ele>
        <time>2024-05-23T12:06:42Z</time>
      </trkpt>
      <trkpt lat="45.16706" lon="4.34356">
        <ele>950</ele>
        <time>2024-05-23T12:07:17Z</time>
      </trkpt>
      <trkpt lat="45.16677" lon="4.34379">
        <ele>952</ele>
        <time>2024-05-23T12:07:46Z</time>
      </trkpt>
      <trkpt lat="45.16674" lon="4.34384">
        <ele>952</ele>
        <time>2024-05-23T12:07:51Z</time>
      </trkpt>
      <trkpt lat="45.16656" lon="4.34399">
        <ele>954</ele>
        <time>2024-05-23T12:08:10Z</time>
      </trkpt>
      <trkpt lat="45.16648" lon="4.34406">
        <ele>955</ele>
        <time>2024-05-23T12:08:20Z</time>
      </trkpt>
      <trkpt lat="45.16619" lon="4.34424">
        <ele>958</ele>
        <time>2024-05-23T12:08:51Z</time>
      </trkpt>
      <trkpt lat="45.16585" lon="4.34434">
        <ele>960</ele>
        <time>2024-05-23T12:09:25Z</time>
      </trkpt>
      <trkpt lat="45.16555" lon="4.3444">
        <ele>963</ele>
        <time>2024-05-23T12:09:55Z</time>
      </trkpt>
      <trkpt lat="45.16535" lon="4.34445">
        <ele>966</ele>
        <time>2024-05-23T12:10:17Z</time>
      </trkpt>
      <trkpt lat="45.16502" lon="4.34462">
        <ele>968</ele>
        <time>2024-05-23T12:10:53Z</time>
      </trkpt>
      <trkpt lat="45.16498" lon="4.34464">
        <ele>968</ele>
        <time>2024-05-23T12:10:57Z</time>
      </trkpt>
      <trkpt lat="45.16485" lon="4.34462">
        <ele>970</ele>
        <time>2024-05-23T12:11:11Z</time>
      </trkpt>
      <trkpt lat="45.16474" lon="4.34463">
        <ele>970</ele>
        <time>2024-05-23T12:11:22Z</time>
      </trkpt>
      <trkpt lat="45.16451" lon="4.34459">
        <ele>972</ele>
        <time>2024-05-23T12:11:44Z</time>
      </trkpt>
      <trkpt lat="45.16446" lon="4.3446">
        <ele>972</ele>
        <time>2024-05-23T12:11:48Z</time>
      </trkpt>
      <trkpt lat="45.16437" lon="4.34456">
        <ele>973</ele>
        <time>2024-05-23T12:11:57Z</time>
      </trkpt>
      <trkpt lat="45.16416" lon="4.34447">
        <ele>976</ele>
        <time>2024-05-23T12:12:21Z</time>
      </trkpt>
      <trkpt lat="45.16412" lon="4.34444">
        <ele>976</ele>
        <time>2024-05-23T12:12:29Z</time>
      </trkpt>
      <trkpt lat="45.16392" lon="4.34412">
        <ele>980</ele>
        <time>2024-05-23T12:17:13Z</time>
      </trkpt>
      <trkpt lat="45.16372" lon="4.34377">
        <ele>983</ele>
        <time>2024-05-23T12:17:44Z</time>
      </trkpt>
      <trkpt lat="45.16352" lon="4.34338">
        <ele>988</ele>
        <time>2024-05-23T12:18:18Z</time>
      </trkpt>
      <trkpt lat="45.16348" lon="4.34332">
        <ele>989</ele>
        <time>2024-05-23T12:18:24Z</time>
      </trkpt>
      <trkpt lat="45.16345" lon="4.34323">
        <ele>990</ele>
        <time>2024-05-23T12:18:31Z</time>
      </trkpt>
      <trkpt lat="45.16336" lon="4.34313">
        <ele>991</ele>
        <time>2024-05-23T12:18:42Z</time>
      </trkpt>
      <trkpt lat="45.16327" lon="4.34309">
        <ele>993</ele>
        <time>2024-05-23T12:18:53Z</time>
      </trkpt>
      <trkpt lat="45.16308" lon="4.34303">
        <ele>996</ele>
        <time>2024-05-23T12:19:14Z</time>
      </trkpt>
      <trkpt lat="45.16295" lon="4.34302">
        <ele>997</ele>
        <time>2024-05-23T12:19:28Z</time>
      </trkpt>
      <trkpt lat="45.16286" lon="4.34307">
        <ele>999</ele>
        <time>2024-05-23T12:19:37Z</time>
      </trkpt>
      <trkpt lat="45.16282" lon="4.34306">
        <ele>999</ele>
        <time>2024-05-23T12:19:41Z</time>
      </trkpt>
      <trkpt lat="45.16278" lon="4.34302">
        <ele>1000</ele>
        <time>2024-05-23T12:19:46Z</time>
      </trkpt>
      <trkpt lat="45.16273" lon="4.34307">
        <ele>1001</ele>
        <time>2024-05-23T12:19:54Z</time>
      </trkpt>
      <trkpt lat="45.16269" lon="4.34312">
        <ele>1001</ele>
        <time>2024-05-23T12:20:13Z</time>
      </trkpt>
      <trkpt lat="45.16267" lon="4.34319">
        <ele>1001</ele>
        <time>2024-05-23T12:21:24Z</time>
      </trkpt>
      <trkpt lat="45.1626" lon="4.34326">
        <ele>1001</ele>
        <time>2024-05-23T12:21:35Z</time>
      </trkpt>
      <trkpt lat="45.16255" lon="4.34329">
        <ele>1001</ele>
        <time>2024-05-23T12:21:42Z</time>
      </trkpt>
      <trkpt lat="45.16242" lon="4.34348">
        <ele>1002</ele>
        <time>2024-05-23T12:21:59Z</time>
      </trkpt>
      <trkpt lat="45.16239" lon="4.34352">
        <ele>1001</ele>
        <time>2024-05-23T12:22:03Z</time>
      </trkpt>
      <trkpt lat="45.16216" lon="4.34389">
        <ele>1002</ele>
        <time>2024-05-23T12:22:33Z</time>
      </trkpt>
      <trkpt lat="45.16209" lon="4.34398">
        <ele>1002</ele>
        <time>2024-05-23T12:22:42Z</time>
      </trkpt>
      <trkpt lat="45.16206" lon="4.34402">
        <ele>1002</ele>
        <time>2024-05-23T12:22:45Z</time>
      </trkpt>
      <trkpt lat="45.16202" lon="4.34407">
        <ele>1001</ele>
        <time>2024-05-23T12:22:50Z</time>
      </trkpt>
      <trkpt lat="45.16179" lon="4.34433">
        <ele>1001</ele>
        <time>2024-05-23T12:23:16Z</time>
      </trkpt>
      <trkpt lat="45.16139" lon="4.34452">
        <ele>1002</ele>
        <time>2024-05-23T12:23:51Z</time>
      </trkpt>
      <trkpt lat="45.16135" lon="4.34454">
        <ele>1002</ele>
        <time>2024-05-23T12:23:55Z</time>
      </trkpt>
      <trkpt lat="45.16128" lon="4.34471">
        <ele>1001</ele>
        <time>2024-05-23T12:24:21Z</time>
      </trkpt>
      <trkpt lat="45.16121" lon="4.34473">
        <ele>1001</ele>
        <time>2024-05-23T12:24:48Z</time>
      </trkpt>
      <trkpt lat="45.16084" lon="4.34485">
        <ele>1003</ele>
        <time>2024-05-23T12:25:23Z</time>
      </trkpt>
      <trkpt lat="45.16063" lon="4.34492">
        <ele>1003</ele>
        <time>2024-05-23T12:25:43Z</time>
      </trkpt>
      <trkpt lat="45.16028" lon="4.34512">
        <ele>1002</ele>
        <time>2024-05-23T12:26:15Z</time>
      </trkpt>
      <trkpt lat="45.1602" lon="4.34519">
        <ele>1002</ele>
        <time>2024-05-23T12:26:22Z</time>
      </trkpt>
      <trkpt lat="45.16007" lon="4.34523">
        <ele>1002</ele>
        <time>2024-05-23T12:26:33Z</time>
      </trkpt>
      <trkpt lat="45.1597" lon="4.34546">
        <ele>1000</ele>
        <time>2024-05-23T12:27:05Z</time>
      </trkpt>
      <trkpt lat="45.15965" lon="4.34548">
        <ele>1000</ele>
        <time>2024-05-23T12:27:10Z</time>
      </trkpt>
      <trkpt lat="45.15961" lon="4.34551">
        <ele>1000</ele>
        <time>2024-05-23T12:27:14Z</time>
      </trkpt>
      <trkpt lat="45.15957" lon="4.34557">
        <ele>1000</ele>
        <time>2024-05-23T12:27:20Z</time>
      </trkpt>
      <trkpt lat="45.15952" lon="4.34559">
        <ele>1000</ele>
        <time>2024-05-23T12:27:24Z</time>
      </trkpt>
      <trkpt lat="45.15947" lon="4.34559">
        <ele>1000</ele>
        <time>2024-05-23T12:27:28Z</time>
      </trkpt>
      <trkpt lat="45.15944" lon="4.34569">
        <ele>1000</ele>
        <time>2024-05-23T12:27:37Z</time>
      </trkpt>
      <trkpt lat="45.15934" lon="4.34583">
        <ele>1000</ele>
        <time>2024-05-23T12:27:48Z</time>
      </trkpt>
      <trkpt lat="45.15916" lon="4.34605">
        <ele>1001</ele>
        <time>2024-05-23T12:28:08Z</time>
      </trkpt>
      <trkpt lat="45.15901" lon="4.34612">
        <ele>1001</ele>
        <time>2024-05-23T12:28:22Z</time>
      </trkpt>
      <trkpt lat="45.15896" lon="4.34612">
        <ele>1001</ele>
        <time>2024-05-23T12:28:26Z</time>
      </trkpt>
      <trkpt lat="45.1587" lon="4.34626">
        <ele>1001</ele>
        <time>2024-05-23T12:28:48Z</time>
      </trkpt>
      <trkpt lat="45.15847" lon="4.34625">
        <ele>1000</ele>
        <time>2024-05-23T12:29:08Z</time>
      </trkpt>
      <trkpt lat="45.15842" lon="4.34626">
        <ele>1000</ele>
        <time>2024-05-23T12:29:12Z</time>
      </trkpt>
      <trkpt lat="45.15816" lon="4.34622">
        <ele>1000</ele>
        <time>2024-05-23T12:29:35Z</time>
      </trkpt>
      <trkpt lat="45.15812" lon="4.34624">
        <ele>999</ele>
        <time>2024-05-23T12:29:38Z</time>
      </trkpt>
      <trkpt lat="45.15808" lon="4.34621">
        <ele>999</ele>
        <time>2024-05-23T12:29:42Z</time>
      </trkpt>
      <trkpt lat="45.15802" lon="4.34623">
        <ele>999</ele>
        <time>2024-05-23T12:29:46Z</time>
      </trkpt>
      <trkpt lat="45.15799" lon="4.34618">
        <ele>999</ele>
        <time>2024-05-23T12:29:50Z</time>
      </trkpt>
      <trkpt lat="45.15796" lon="4.34611">
        <ele>999</ele>
        <time>2024-05-23T12:29:58Z</time>
      </trkpt>
      <trkpt lat="45.15795" lon="4.34599">
        <ele>998</ele>
        <time>2024-05-23T12:30:10Z</time>
      </trkpt>
      <trkpt lat="45.15789" lon="4.3458">
        <ele>997</ele>
        <time>2024-05-23T12:30:25Z</time>
      </trkpt>
      <trkpt lat="45.1579" lon="4.34573">
        <ele>997</ele>
        <time>2024-05-23T12:31:31Z</time>
      </trkpt>
      <trkpt lat="45.15786" lon="4.3457">
        <ele>996</ele>
        <time>2024-05-23T12:32:06Z</time>
      </trkpt>
      <trkpt lat="45.15775" lon="4.34572">
        <ele>996</ele>
        <time>2024-05-23T12:32:15Z</time>
      </trkpt>
      <trkpt lat="45.1577" lon="4.3457">
        <ele>995</ele>
        <time>2024-05-23T12:32:21Z</time>
      </trkpt>
      <trkpt lat="45.15765" lon="4.34566">
        <ele>995</ele>
        <time>2024-05-23T12:32:25Z</time>
      </trkpt>
      <trkpt lat="45.15762" lon="4.34562">
        <ele>995</ele>
        <time>2024-05-23T12:32:28Z</time>
      </trkpt>
      <trkpt lat="45.15759" lon="4.34557">
        <ele>994</ele>
        <time>2024-05-23T12:32:32Z</time>
      </trkpt>
      <trkpt lat="45.15737" lon="4.34527">
        <ele>992</ele>
        <time>2024-05-23T12:33:01Z</time>
      </trkpt>
      <trkpt lat="45.15728" lon="4.34511">
        <ele>991</ele>
        <time>2024-05-23T12:33:13Z</time>
      </trkpt>
      <trkpt lat="45.15704" lon="4.34486">
        <ele>989</ele>
        <time>2024-05-23T12:33:39Z</time>
      </trkpt>
      <trkpt lat="45.15695" lon="4.3448">
        <ele>988</ele>
        <time>2024-05-23T12:33:49Z</time>
      </trkpt>
      <trkpt lat="45.15691" lon="4.34475">
        <ele>988</ele>
        <time>2024-05-23T12:33:53Z</time>
      </trkpt>
      <trkpt lat="45.1567" lon="4.34463">
        <ele>986</ele>
        <time>2024-05-23T12:34:12Z</time>
      </trkpt>
      <trkpt lat="45.15647" lon="4.34455">
        <ele>985</ele>
        <time>2024-05-23T12:34:29Z</time>
      </trkpt>
      <trkpt lat="45.15621" lon="4.34438">
        <ele>981</ele>
        <time>2024-05-23T12:34:53Z</time>
      </trkpt>
      <trkpt lat="45.15616" lon="4.34436">
        <ele>981</ele>
        <time>2024-05-23T12:34:57Z</time>
      </trkpt>
      <trkpt lat="45.15598" lon="4.34426">
        <ele>979</ele>
        <time>2024-05-23T12:35:13Z</time>
      </trkpt>
      <trkpt lat="45.15594" lon="4.34422">
        <ele>979</ele>
        <time>2024-05-23T12:35:17Z</time>
      </trkpt>
      <trkpt lat="45.15585" lon="4.34417">
        <ele>978</ele>
        <time>2024-05-23T12:35:25Z</time>
      </trkpt>
      <trkpt lat="45.15581" lon="4.34413">
        <ele>978</ele>
        <time>2024-05-23T12:35:29Z</time>
      </trkpt>
      <trkpt lat="45.15576" lon="4.34412">
        <ele>978</ele>
        <time>2024-05-23T12:35:33Z</time>
      </trkpt>
      <trkpt lat="45.15572" lon="4.34407">
        <ele>977</ele>
        <time>2024-05-23T12:35:37Z</time>
      </trkpt>
      <trkpt lat="45.15536" lon="4.34384">
        <ele>975</ele>
        <time>2024-05-23T12:36:09Z</time>
      </trkpt>
      <trkpt lat="45.15528" lon="4.34377">
        <ele>975</ele>
        <time>2024-05-23T12:36:17Z</time>
      </trkpt>
      <trkpt lat="45.15523" lon="4.34376">
        <ele>975</ele>
        <time>2024-05-23T12:36:21Z</time>
      </trkpt>
      <trkpt lat="45.15487" lon="4.34347">
        <ele>975</ele>
        <time>2024-05-23T12:36:53Z</time>
      </trkpt>
      <trkpt lat="45.1545" lon="4.34325">
        <ele>973</ele>
        <time>2024-05-23T12:37:25Z</time>
      </trkpt>
      <trkpt lat="45.15413" lon="4.34302">
        <ele>971</ele>
        <time>2024-05-23T12:37:57Z</time>
      </trkpt>
      <trkpt lat="45.15378" lon="4.34277">
        <ele>969</ele>
        <time>2024-05-23T12:38:29Z</time>
      </trkpt>
      <trkpt lat="45.15341" lon="4.3425">
        <ele>966</ele>
        <time>2024-05-23T12:39:01Z</time>
      </trkpt>
      <trkpt lat="45.15338" lon="4.34245">
        <ele>966</ele>
        <time>2024-05-23T12:39:05Z</time>
      </trkpt>
      <trkpt lat="45.15334" lon="4.34241">
        <ele>965</ele>
        <time>2024-05-23T12:39:09Z</time>
      </trkpt>
      <trkpt lat="45.1533" lon="4.34237">
        <ele>965</ele>
        <time>2024-05-23T12:39:13Z</time>
      </trkpt>
      <trkpt lat="45.15301" lon="4.34212">
        <ele>964</ele>
        <time>2024-05-23T12:39:41Z</time>
      </trkpt>
      <trkpt lat="45.15283" lon="4.34203">
        <ele>964</ele>
        <time>2024-05-23T12:39:55Z</time>
      </trkpt>
      <trkpt lat="45.15265" lon="4.34188">
        <ele>964</ele>
        <time>2024-05-23T12:40:11Z</time>
      </trkpt>
      <trkpt lat="45.1526" lon="4.34186">
        <ele>965</ele>
        <time>2024-05-23T12:40:15Z</time>
      </trkpt>
      <trkpt lat="45.15251" lon="4.34176">
        <ele>965</ele>
        <time>2024-05-23T12:40:26Z</time>
      </trkpt>
      <trkpt lat="45.15247" lon="4.34168">
        <ele>965</ele>
        <time>2024-05-23T12:40:35Z</time>
      </trkpt>
      <trkpt lat="45.15246" lon="4.34163">
        <ele>965</ele>
        <time>2024-05-23T12:40:39Z</time>
      </trkpt>
      <trkpt lat="45.1524" lon="4.34154">
        <ele>966</ele>
        <time>2024-05-23T12:40:52Z</time>
      </trkpt>
      <trkpt lat="45.15237" lon="4.34149">
        <ele>966</ele>
        <time>2024-05-23T12:40:56Z</time>
      </trkpt>
      <trkpt lat="45.15225" lon="4.34117">
        <ele>966</ele>
        <time>2024-05-23T12:41:18Z</time>
      </trkpt>
      <trkpt lat="45.15221" lon="4.34105">
        <ele>967</ele>
        <time>2024-05-23T12:41:27Z</time>
      </trkpt>
      <trkpt lat="45.15219" lon="4.34098">
        <ele>967</ele>
        <time>2024-05-23T12:41:32Z</time>
      </trkpt>
      <trkpt lat="45.15216" lon="4.34085">
        <ele>967</ele>
        <time>2024-05-23T12:41:41Z</time>
      </trkpt>
      <trkpt lat="45.15211" lon="4.34072">
        <ele>968</ele>
        <time>2024-05-23T12:41:49Z</time>
      </trkpt>
      <trkpt lat="45.15207" lon="4.34053">
        <ele>968</ele>
        <time>2024-05-23T12:42:01Z</time>
      </trkpt>
      <trkpt lat="45.15205" lon="4.3401">
        <ele>967</ele>
        <time>2024-05-23T12:42:26Z</time>
      </trkpt>
      <trkpt lat="45.15208" lon="4.33997">
        <ele>967</ele>
        <time>2024-05-23T12:42:34Z</time>
      </trkpt>
      <trkpt lat="45.15212" lon="4.33986">
        <ele>966</ele>
        <time>2024-05-23T12:42:42Z</time>
      </trkpt>
      <trkpt lat="45.15214" lon="4.33966">
        <ele>966</ele>
        <time>2024-05-23T12:42:53Z</time>
      </trkpt>
      <trkpt lat="45.15212" lon="4.33946">
        <ele>966</ele>
        <time>2024-05-23T12:43:04Z</time>
      </trkpt>
      <trkpt lat="45.15211" lon="4.33933">
        <ele>966</ele>
        <time>2024-05-23T12:43:12Z</time>
      </trkpt>
      <trkpt lat="45.15208" lon="4.3392">
        <ele>966</ele>
        <time>2024-05-23T12:43:19Z</time>
      </trkpt>
      <trkpt lat="45.15207" lon="4.33907">
        <ele>966</ele>
        <time>2024-05-23T12:43:28Z</time>
      </trkpt>
      <trkpt lat="45.15205" lon="4.33893">
        <ele>966</ele>
        <time>2024-05-23T12:43:37Z</time>
      </trkpt>
      <trkpt lat="45.15199" lon="4.33889">
        <ele>965</ele>
        <time>2024-05-23T12:44:25Z</time>
      </trkpt>
      <trkpt lat="45.15198" lon="4.33883">
        <ele>965</ele>
        <time>2024-05-23T12:44:43Z</time>
      </trkpt>
      <trkpt lat="45.15193" lon="4.33881">
        <ele>965</ele>
        <time>2024-05-23T12:44:48Z</time>
      </trkpt>
      <trkpt lat="45.15189" lon="4.33878">
        <ele>964</ele>
        <time>2024-05-23T12:44:53Z</time>
      </trkpt>
      <trkpt lat="45.15172" lon="4.33867">
        <ele>964</ele>
        <time>2024-05-23T12:45:09Z</time>
      </trkpt>
      <trkpt lat="45.15168" lon="4.33864">
        <ele>964</ele>
        <time>2024-05-23T12:45:13Z</time>
      </trkpt>
      <trkpt lat="45.15159" lon="4.33861">
        <ele>964</ele>
        <time>2024-05-23T12:45:21Z</time>
      </trkpt>
      <trkpt lat="45.15155" lon="4.33858">
        <ele>964</ele>
        <time>2024-05-23T12:45:25Z</time>
      </trkpt>
      <trkpt lat="45.1515" lon="4.33858">
        <ele>964</ele>
        <time>2024-05-23T12:45:33Z</time>
      </trkpt>
      <trkpt lat="45.15146" lon="4.33871">
        <ele>963</ele>
        <time>2024-05-23T12:45:42Z</time>
      </trkpt>
      <trkpt lat="45.15142" lon="4.33877">
        <ele>963</ele>
        <time>2024-05-23T12:45:47Z</time>
      </trkpt>
      <trkpt lat="45.15138" lon="4.33879">
        <ele>963</ele>
        <time>2024-05-23T12:45:51Z</time>
      </trkpt>
      <trkpt lat="45.15128" lon="4.3388">
        <ele>962</ele>
        <time>2024-05-23T12:45:59Z</time>
      </trkpt>
      <trkpt lat="45.15123" lon="4.33884">
        <ele>962</ele>
        <time>2024-05-23T12:46:03Z</time>
      </trkpt>
      <trkpt lat="45.15113" lon="4.33882">
        <ele>962</ele>
        <time>2024-05-23T12:46:11Z</time>
      </trkpt>
      <trkpt lat="45.15098" lon="4.33875">
        <ele>961</ele>
        <time>2024-05-23T12:46:26Z</time>
      </trkpt>
      <trkpt lat="45.15093" lon="4.33877">
        <ele>961</ele>
        <time>2024-05-23T12:46:29Z</time>
      </trkpt>
      <trkpt lat="45.15088" lon="4.33874">
        <ele>961</ele>
        <time>2024-05-23T12:46:33Z</time>
      </trkpt>
      <trkpt lat="45.15083" lon="4.33873">
        <ele>960</ele>
        <time>2024-05-23T12:46:37Z</time>
      </trkpt>
      <trkpt lat="45.15074" lon="4.33871">
        <ele>960</ele>
        <time>2024-05-23T12:46:45Z</time>
      </trkpt>
      <trkpt lat="45.15058" lon="4.33874">
        <ele>959</ele>
        <time>2024-05-23T12:46:57Z</time>
      </trkpt>
      <trkpt lat="45.15035" lon="4.33884">
        <ele>958</ele>
        <time>2024-05-23T12:47:17Z</time>
      </trkpt>
      <trkpt lat="45.15016" lon="4.33888">
        <ele>958</ele>
        <time>2024-05-23T12:47:38Z</time>
      </trkpt>
      <trkpt lat="45.15011" lon="4.33892">
        <ele>958</ele>
        <time>2024-05-23T12:47:43Z</time>
      </trkpt>
      <trkpt lat="45.15006" lon="4.33892">
        <ele>958</ele>
        <time>2024-05-23T12:47:48Z</time>
      </trkpt>
      <trkpt lat="45.15002" lon="4.33895">
        <ele>959</ele>
        <time>2024-05-23T12:47:52Z</time>
      </trkpt>
      <trkpt lat="45.14988" lon="4.339">
        <ele>960</ele>
        <time>2024-05-23T12:48:04Z</time>
      </trkpt>
      <trkpt lat="45.14984" lon="4.33903">
        <ele>960</ele>
        <time>2024-05-23T12:48:08Z</time>
      </trkpt>
      <trkpt lat="45.14964" lon="4.33912">
        <ele>960</ele>
        <time>2024-05-23T12:48:25Z</time>
      </trkpt>
      <trkpt lat="45.14949" lon="4.33911">
        <ele>958</ele>
        <time>2024-05-23T12:48:36Z</time>
      </trkpt>
      <trkpt lat="45.14923" lon="4.33888">
        <ele>955</ele>
        <time>2024-05-23T12:48:59Z</time>
      </trkpt>
      <trkpt lat="45.14919" lon="4.33886">
        <ele>954</ele>
        <time>2024-05-23T12:49:03Z</time>
      </trkpt>
      <trkpt lat="45.14906" lon="4.33888">
        <ele>952</ele>
        <time>2024-05-23T12:49:22Z</time>
      </trkpt>
      <trkpt lat="45.14885" lon="4.33903">
        <ele>947</ele>
        <time>2024-05-23T12:49:42Z</time>
      </trkpt>
      <trkpt lat="45.14882" lon="4.33909">
        <ele>947</ele>
        <time>2024-05-23T12:49:45Z</time>
      </trkpt>
      <trkpt lat="45.14878" lon="4.33912">
        <ele>946</ele>
        <time>2024-05-23T12:49:48Z</time>
      </trkpt>
      <trkpt lat="45.14869" lon="4.3391">
        <ele>946</ele>
        <time>2024-05-23T12:49:54Z</time>
      </trkpt>
      <trkpt lat="45.14859" lon="4.33907">
        <ele>945</ele>
        <time>2024-05-23T12:50:02Z</time>
      </trkpt>
      <trkpt lat="45.14855" lon="4.33906">
        <ele>944</ele>
        <time>2024-05-23T12:50:05Z</time>
      </trkpt>
      <trkpt lat="45.14852" lon="4.33903">
        <ele>944</ele>
        <time>2024-05-23T12:50:08Z</time>
      </trkpt>
      <trkpt lat="45.14842" lon="4.339">
        <ele>943</ele>
        <time>2024-05-23T12:50:16Z</time>
      </trkpt>
      <trkpt lat="45.14827" lon="4.339">
        <ele>942</ele>
        <time>2024-05-23T12:50:28Z</time>
      </trkpt>
      <trkpt lat="45.14818" lon="4.33898">
        <ele>941</ele>
        <time>2024-05-23T12:50:36Z</time>
      </trkpt>
      <trkpt lat="45.14798" lon="4.33905">
        <ele>940</ele>
        <time>2024-05-23T12:50:52Z</time>
      </trkpt>
      <trkpt lat="45.14793" lon="4.33905">
        <ele>940</ele>
        <time>2024-05-23T12:50:56Z</time>
      </trkpt>
      <trkpt lat="45.14789" lon="4.33909">
        <ele>939</ele>
        <time>2024-05-23T12:51:00Z</time>
      </trkpt>
      <trkpt lat="45.14783" lon="4.33908">
        <ele>939</ele>
        <time>2024-05-23T12:51:04Z</time>
      </trkpt>
      <trkpt lat="45.14778" lon="4.33909">
        <ele>938</ele>
        <time>2024-05-23T12:51:08Z</time>
      </trkpt>
      <trkpt lat="45.14769" lon="4.33907">
        <ele>937</ele>
        <time>2024-05-23T12:51:16Z</time>
      </trkpt>
      <trkpt lat="45.14764" lon="4.33908">
        <ele>937</ele>
        <time>2024-05-23T12:51:20Z</time>
      </trkpt>
      <trkpt lat="45.14754" lon="4.33906">
        <ele>936</ele>
        <time>2024-05-23T12:51:28Z</time>
      </trkpt>
      <trkpt lat="45.14731" lon="4.33904">
        <ele>935</ele>
        <time>2024-05-23T12:52:00Z</time>
      </trkpt>
      <trkpt lat="45.14722" lon="4.33902">
        <ele>935</ele>
        <time>2024-05-23T12:52:08Z</time>
      </trkpt>
      <trkpt lat="45.14711" lon="4.33896">
        <ele>935</ele>
        <time>2024-05-23T12:52:16Z</time>
      </trkpt>
      <trkpt lat="45.14707" lon="4.33896">
        <ele>934</ele>
        <time>2024-05-23T12:52:20Z</time>
      </trkpt>
      <trkpt lat="45.14702" lon="4.33891">
        <ele>934</ele>
        <time>2024-05-23T12:52:25Z</time>
      </trkpt>
      <trkpt lat="45.14694" lon="4.3389">
        <ele>934</ele>
        <time>2024-05-23T12:52:32Z</time>
      </trkpt>
      <trkpt lat="45.14656" lon="4.33873">
        <ele>930</ele>
        <time>2024-05-23T12:53:03Z</time>
      </trkpt>
      <trkpt lat="45.14647" lon="4.33868">
        <ele>930</ele>
        <time>2024-05-23T12:53:10Z</time>
      </trkpt>
      <trkpt lat="45.14644" lon="4.33862">
        <ele>929</ele>
        <time>2024-05-23T12:53:13Z</time>
      </trkpt>
      <trkpt lat="45.14641" lon="4.33857">
        <ele>929</ele>
        <time>2024-05-23T12:53:16Z</time>
      </trkpt>
      <trkpt lat="45.14637" lon="4.33854">
        <ele>929</ele>
        <time>2024-05-23T12:53:20Z</time>
      </trkpt>
      <trkpt lat="45.1463" lon="4.33846">
        <ele>928</ele>
        <time>2024-05-23T12:53:28Z</time>
      </trkpt>
      <trkpt lat="45.14625" lon="4.33844">
        <ele>928</ele>
        <time>2024-05-23T12:53:32Z</time>
      </trkpt>
      <trkpt lat="45.14618" lon="4.33835">
        <ele>928</ele>
        <time>2024-05-23T12:53:40Z</time>
      </trkpt>
      <trkpt lat="45.14609" lon="4.33833">
        <ele>928</ele>
        <time>2024-05-23T12:53:48Z</time>
      </trkpt>
      <trkpt lat="45.14606" lon="4.33828">
        <ele>928</ele>
        <time>2024-05-23T12:53:51Z</time>
      </trkpt>
      <trkpt lat="45.14601" lon="4.33816">
        <ele>928</ele>
        <time>2024-05-23T12:53:59Z</time>
      </trkpt>
      <trkpt lat="45.14591" lon="4.33811">
        <ele>927</ele>
        <time>2024-05-23T12:54:07Z</time>
      </trkpt>
      <trkpt lat="45.14579" lon="4.33797">
        <ele>925</ele>
        <time>2024-05-23T12:54:20Z</time>
      </trkpt>
      <trkpt lat="45.14574" lon="4.33794">
        <ele>925</ele>
        <time>2024-05-23T12:54:24Z</time>
      </trkpt>
      <trkpt lat="45.14565" lon="4.33786">
        <ele>924</ele>
        <time>2024-05-23T12:54:32Z</time>
      </trkpt>
      <trkpt lat="45.14527" lon="4.33769">
        <ele>920</ele>
        <time>2024-05-23T12:55:06Z</time>
      </trkpt>
      <trkpt lat="45.14524" lon="4.33762">
        <ele>919</ele>
        <time>2024-05-23T12:55:10Z</time>
      </trkpt>
      <trkpt lat="45.14522" lon="4.33758">
        <ele>919</ele>
        <time>2024-05-23T12:55:14Z</time>
      </trkpt>
      <trkpt lat="45.14517" lon="4.33756">
        <ele>918</ele>
        <time>2024-05-23T12:55:18Z</time>
      </trkpt>
      <trkpt lat="45.14489" lon="4.33736">
        <ele>920</ele>
        <time>2024-05-23T13:02:59Z</time>
      </trkpt>
      <trkpt lat="45.14487" lon="4.33737">
        <ele>920</ele>
        <time>2024-05-23T13:03:00Z</time>
      </trkpt>
      <trkpt lat="45.1448" lon="4.33736">
        <ele>920</ele>
        <time>2024-05-23T13:03:07Z</time>
      </trkpt>
      <trkpt lat="45.14475" lon="4.33737">
        <ele>920</ele>
        <time>2024-05-23T13:03:12Z</time>
      </trkpt>
      <trkpt lat="45.1447" lon="4.33733">
        <ele>921</ele>
        <time>2024-05-23T13:03:17Z</time>
      </trkpt>
      <trkpt lat="45.1446" lon="4.33732">
        <ele>922</ele>
        <time>2024-05-23T13:03:28Z</time>
      </trkpt>
      <trkpt lat="45.14456" lon="4.33731">
        <ele>922</ele>
        <time>2024-05-23T13:03:32Z</time>
      </trkpt>
      <trkpt lat="45.14449" lon="4.3373">
        <ele>923</ele>
        <time>2024-05-23T13:03:41Z</time>
      </trkpt>
      <trkpt lat="45.14445" lon="4.33728">
        <ele>925</ele>
        <time>2024-05-23T13:03:48Z</time>
      </trkpt>
      <trkpt lat="45.14439" lon="4.33719">
        <ele>927</ele>
        <time>2024-05-23T13:03:58Z</time>
      </trkpt>
      <trkpt lat="45.14436" lon="4.33715">
        <ele>927</ele>
        <time>2024-05-23T13:04:02Z</time>
      </trkpt>
      <trkpt lat="45.14422" lon="4.33694">
        <ele>931</ele>
        <time>2024-05-23T13:04:30Z</time>
      </trkpt>
      <trkpt lat="45.1442" lon="4.33689">
        <ele>932</ele>
        <time>2024-05-23T13:04:36Z</time>
      </trkpt>
      <trkpt lat="45.14399" lon="4.33666">
        <ele>936</ele>
        <time>2024-05-23T13:05:06Z</time>
      </trkpt>
      <trkpt lat="45.14395" lon="4.33661">
        <ele>937</ele>
        <time>2024-05-23T13:05:13Z</time>
      </trkpt>
      <trkpt lat="45.14384" lon="4.33646">
        <ele>938</ele>
        <time>2024-05-23T13:05:28Z</time>
      </trkpt>
      <trkpt lat="45.14371" lon="4.33633">
        <ele>939</ele>
        <time>2024-05-23T13:05:43Z</time>
      </trkpt>
      <trkpt lat="45.14363" lon="4.33625">
        <ele>939</ele>
        <time>2024-05-23T13:05:51Z</time>
      </trkpt>
      <trkpt lat="45.14359" lon="4.33623">
        <ele>939</ele>
        <time>2024-05-23T13:05:55Z</time>
      </trkpt>
      <trkpt lat="45.14354" lon="4.33619">
        <ele>939</ele>
        <time>2024-05-23T13:05:59Z</time>
      </trkpt>
      <trkpt lat="45.1435" lon="4.33617">
        <ele>939</ele>
        <time>2024-05-23T13:06:03Z</time>
      </trkpt>
      <trkpt lat="45.14346" lon="4.33614">
        <ele>939</ele>
        <time>2024-05-23T13:06:07Z</time>
      </trkpt>
      <trkpt lat="45.1434" lon="4.33602">
        <ele>940</ele>
        <time>2024-05-23T13:06:14Z</time>
      </trkpt>
      <trkpt lat="45.14342" lon="4.33596">
        <ele>940</ele>
        <time>2024-05-23T13:06:19Z</time>
      </trkpt>
      <trkpt lat="45.14342" lon="4.33588">
        <ele>939</ele>
        <time>2024-05-23T13:06:23Z</time>
      </trkpt>
      <trkpt lat="45.14346" lon="4.33583">
        <ele>939</ele>
        <time>2024-05-23T13:06:26Z</time>
      </trkpt>
      <trkpt lat="45.14349" lon="4.33578">
        <ele>939</ele>
        <time>2024-05-23T13:06:29Z</time>
      </trkpt>
      <trkpt lat="45.14351" lon="4.33573">
        <ele>939</ele>
        <time>2024-05-23T13:06:33Z</time>
      </trkpt>
      <trkpt lat="45.14353" lon="4.33566">
        <ele>940</ele>
        <time>2024-05-23T13:06:37Z</time>
      </trkpt>
      <trkpt lat="45.14357" lon="4.33563">
        <ele>940</ele>
        <time>2024-05-23T13:06:40Z</time>
      </trkpt>
      <trkpt lat="45.14365" lon="4.33554">
        <ele>940</ele>
        <time>2024-05-23T13:06:49Z</time>
      </trkpt>
      <trkpt lat="45.14369" lon="4.33552">
        <ele>940</ele>
        <time>2024-05-23T13:06:52Z</time>
      </trkpt>
      <trkpt lat="45.14374" lon="4.3354">
        <ele>940</ele>
        <time>2024-05-23T13:07:00Z</time>
      </trkpt>
      <trkpt lat="45.14379" lon="4.33538">
        <ele>940</ele>
        <time>2024-05-23T13:07:03Z</time>
      </trkpt>
      <trkpt lat="45.14381" lon="4.33533">
        <ele>940</ele>
        <time>2024-05-23T13:07:07Z</time>
      </trkpt>
      <trkpt lat="45.14386" lon="4.33533">
        <ele>941</ele>
        <time>2024-05-23T13:07:10Z</time>
      </trkpt>
      <trkpt lat="45.14386" lon="4.33525">
        <ele>941</ele>
        <time>2024-05-23T13:07:14Z</time>
      </trkpt>
      <trkpt lat="45.14387" lon="4.33518">
        <ele>942</ele>
        <time>2024-05-23T13:07:18Z</time>
      </trkpt>
      <trkpt lat="45.14389" lon="4.33513">
        <ele>941</ele>
        <time>2024-05-23T13:07:21Z</time>
      </trkpt>
      <trkpt lat="45.14394" lon="4.3351">
        <ele>942</ele>
        <time>2024-05-23T13:07:24Z</time>
      </trkpt>
      <trkpt lat="45.14395" lon="4.33503">
        <ele>942</ele>
        <time>2024-05-23T13:07:28Z</time>
      </trkpt>
      <trkpt lat="45.144" lon="4.33493">
        <ele>942</ele>
        <time>2024-05-23T13:07:34Z</time>
      </trkpt>
      <trkpt lat="45.14405" lon="4.33489">
        <ele>942</ele>
        <time>2024-05-23T13:07:38Z</time>
      </trkpt>
      <trkpt lat="45.14413" lon="4.33473">
        <ele>941</ele>
        <time>2024-05-23T13:07:47Z</time>
      </trkpt>
      <trkpt lat="45.14415" lon="4.33467">
        <ele>941</ele>
        <time>2024-05-23T13:07:51Z</time>
      </trkpt>
      <trkpt lat="45.1442" lon="4.33458">
        <ele>941</ele>
        <time>2024-05-23T13:07:58Z</time>
      </trkpt>
      <trkpt lat="45.14424" lon="4.33453">
        <ele>940</ele>
        <time>2024-05-23T13:08:02Z</time>
      </trkpt>
      <trkpt lat="45.14427" lon="4.33438">
        <ele>940</ele>
        <time>2024-05-23T13:08:10Z</time>
      </trkpt>
      <trkpt lat="45.14429" lon="4.33432">
        <ele>939</ele>
        <time>2024-05-23T13:08:14Z</time>
      </trkpt>
      <trkpt lat="45.14432" lon="4.33427">
        <ele>939</ele>
        <time>2024-05-23T13:08:17Z</time>
      </trkpt>
      <trkpt lat="45.14436" lon="4.33413">
        <ele>938</ele>
        <time>2024-05-23T13:08:25Z</time>
      </trkpt>
      <trkpt lat="45.14445" lon="4.33397">
        <ele>937</ele>
        <time>2024-05-23T13:08:35Z</time>
      </trkpt>
      <trkpt lat="45.14447" lon="4.33383">
        <ele>936</ele>
        <time>2024-05-23T13:08:43Z</time>
      </trkpt>
      <trkpt lat="45.14451" lon="4.33379">
        <ele>936</ele>
        <time>2024-05-23T13:08:46Z</time>
      </trkpt>
      <trkpt lat="45.14455" lon="4.33351">
        <ele>933</ele>
        <time>2024-05-23T13:09:01Z</time>
      </trkpt>
      <trkpt lat="45.14463" lon="4.33331">
        <ele>932</ele>
        <time>2024-05-23T13:09:13Z</time>
      </trkpt>
      <trkpt lat="45.14463" lon="4.3331">
        <ele>932</ele>
        <time>2024-05-23T13:09:24Z</time>
      </trkpt>
      <trkpt lat="45.14465" lon="4.33303">
        <ele>931</ele>
        <time>2024-05-23T13:09:28Z</time>
      </trkpt>
      <trkpt lat="45.14459" lon="4.33283">
        <ele>931</ele>
        <time>2024-05-23T13:09:39Z</time>
      </trkpt>
      <trkpt lat="45.14458" lon="4.33275">
        <ele>931</ele>
        <time>2024-05-23T13:09:43Z</time>
      </trkpt>
      <trkpt lat="45.14455" lon="4.33269">
        <ele>930</ele>
        <time>2024-05-23T13:09:46Z</time>
      </trkpt>
      <trkpt lat="45.14455" lon="4.33262">
        <ele>930</ele>
        <time>2024-05-23T13:09:50Z</time>
      </trkpt>
      <trkpt lat="45.1445" lon="4.33236">
        <ele>929</ele>
        <time>2024-05-23T13:10:05Z</time>
      </trkpt>
      <trkpt lat="45.14447" lon="4.33231">
        <ele>929</ele>
        <time>2024-05-23T13:10:08Z</time>
      </trkpt>
      <trkpt lat="45.14435" lon="4.33179">
        <ele>927</ele>
        <time>2024-05-23T13:10:37Z</time>
      </trkpt>
      <trkpt lat="45.14431" lon="4.33175">
        <ele>927</ele>
        <time>2024-05-23T13:10:41Z</time>
      </trkpt>
      <trkpt lat="45.14431" lon="4.33168">
        <ele>927</ele>
        <time>2024-05-23T13:10:44Z</time>
      </trkpt>
      <trkpt lat="45.14428" lon="4.33155">
        <ele>926</ele>
        <time>2024-05-23T13:10:51Z</time>
      </trkpt>
      <trkpt lat="45.14413" lon="4.3312">
        <ele>925</ele>
        <time>2024-05-23T13:11:13Z</time>
      </trkpt>
      <trkpt lat="45.1441" lon="4.33116">
        <ele>925</ele>
        <time>2024-05-23T13:11:16Z</time>
      </trkpt>
      <trkpt lat="45.14408" lon="4.3311">
        <ele>925</ele>
        <time>2024-05-23T13:11:20Z</time>
      </trkpt>
      <trkpt lat="45.14407" lon="4.33103">
        <ele>924</ele>
        <time>2024-05-23T13:11:24Z</time>
      </trkpt>
      <trkpt lat="45.14395" lon="4.3308">
        <ele>923</ele>
        <time>2024-05-23T13:11:40Z</time>
      </trkpt>
      <trkpt lat="45.14389" lon="4.33067">
        <ele>923</ele>
        <time>2024-05-23T13:11:48Z</time>
      </trkpt>
      <trkpt lat="45.14378" lon="4.33044">
        <ele>922</ele>
        <time>2024-05-23T13:12:03Z</time>
      </trkpt>
      <trkpt lat="45.14374" lon="4.33032">
        <ele>922</ele>
        <time>2024-05-23T13:12:10Z</time>
      </trkpt>
      <trkpt lat="45.14371" lon="4.33027">
        <ele>922</ele>
        <time>2024-05-23T13:12:14Z</time>
      </trkpt>
      <trkpt lat="45.1436" lon="4.33012">
        <ele>921</ele>
        <time>2024-05-23T13:12:29Z</time>
      </trkpt>
      <trkpt lat="45.14331" lon="4.33036">
        <ele>923</ele>
        <time>2024-05-23T13:14:26Z</time>
      </trkpt>
      <trkpt lat="45.1433" lon="4.33038">
        <ele>923</ele>
        <time>2024-05-23T13:14:27Z</time>
      </trkpt>
      <trkpt lat="45.14325" lon="4.33036">
        <ele>924</ele>
        <time>2024-05-23T13:16:09Z</time>
      </trkpt>
      <trkpt lat="45.14322" lon="4.33032">
        <ele>924</ele>
        <time>2024-05-23T13:16:14Z</time>
      </trkpt>
      <trkpt lat="45.14311" lon="4.33019">
        <ele>922</ele>
        <time>2024-05-23T13:16:27Z</time>
      </trkpt>
      <trkpt lat="45.14298" lon="4.33007">
        <ele>922</ele>
        <time>2024-05-23T13:16:41Z</time>
      </trkpt>
      <trkpt lat="45.14297" lon="4.33001">
        <ele>922</ele>
        <time>2024-05-23T13:16:45Z</time>
      </trkpt>
      <trkpt lat="45.14294" lon="4.32997">
        <ele>921</ele>
        <time>2024-05-23T13:16:49Z</time>
      </trkpt>
      <trkpt lat="45.14282" lon="4.32986">
        <ele>920</ele>
        <time>2024-05-23T13:17:01Z</time>
      </trkpt>
      <trkpt lat="45.14278" lon="4.32981">
        <ele>918</ele>
        <time>2024-05-23T13:17:07Z</time>
      </trkpt>
      <trkpt lat="45.14269" lon="4.32973">
        <ele>917</ele>
        <time>2024-05-23T13:17:15Z</time>
      </trkpt>
      <trkpt lat="45.14265" lon="4.3297">
        <ele>917</ele>
        <time>2024-05-23T13:17:20Z</time>
      </trkpt>
      <trkpt lat="45.14262" lon="4.32965">
        <ele>917</ele>
        <time>2024-05-23T13:17:24Z</time>
      </trkpt>
      <trkpt lat="45.14257" lon="4.32966">
        <ele>917</ele>
        <time>2024-05-23T13:17:28Z</time>
      </trkpt>
      <trkpt lat="45.14246" lon="4.32967">
        <ele>916</ele>
        <time>2024-05-23T13:17:39Z</time>
      </trkpt>
      <trkpt lat="45.14241" lon="4.32968">
        <ele>916</ele>
        <time>2024-05-23T13:17:44Z</time>
      </trkpt>
      <trkpt lat="45.14231" lon="4.32968">
        <ele>916</ele>
        <time>2024-05-23T13:17:52Z</time>
      </trkpt>
      <trkpt lat="45.14223" lon="4.32964">
        <ele>916</ele>
        <time>2024-05-23T13:18:00Z</time>
      </trkpt>
      <trkpt lat="45.14213" lon="4.32959">
        <ele>915</ele>
        <time>2024-05-23T13:18:09Z</time>
      </trkpt>
      <trkpt lat="45.14188" lon="4.32956">
        <ele>915</ele>
        <time>2024-05-23T13:18:32Z</time>
      </trkpt>
      <trkpt lat="45.14183" lon="4.32953">
        <ele>915</ele>
        <time>2024-05-23T13:18:36Z</time>
      </trkpt>
      <trkpt lat="45.14179" lon="4.32953">
        <ele>915</ele>
        <time>2024-05-23T13:18:40Z</time>
      </trkpt>
      <trkpt lat="45.14174" lon="4.32951">
        <ele>915</ele>
        <time>2024-05-23T13:18:44Z</time>
      </trkpt>
      <trkpt lat="45.1417" lon="4.3295">
        <ele>915</ele>
        <time>2024-05-23T13:18:48Z</time>
      </trkpt>
      <trkpt lat="45.14162" lon="4.32943">
        <ele>915</ele>
        <time>2024-05-23T13:18:56Z</time>
      </trkpt>
      <trkpt lat="45.14148" lon="4.32936">
        <ele>915</ele>
        <time>2024-05-23T13:19:09Z</time>
      </trkpt>
      <trkpt lat="45.1414" lon="4.32929">
        <ele>915</ele>
        <time>2024-05-23T13:19:17Z</time>
      </trkpt>
      <trkpt lat="45.14137" lon="4.32924">
        <ele>914</ele>
        <time>2024-05-23T13:19:21Z</time>
      </trkpt>
      <trkpt lat="45.14133" lon="4.32919">
        <ele>915</ele>
        <time>2024-05-23T13:19:25Z</time>
      </trkpt>
      <trkpt lat="45.14131" lon="4.32913">
        <ele>915</ele>
        <time>2024-05-23T13:19:29Z</time>
      </trkpt>
      <trkpt lat="45.14131" lon="4.32906">
        <ele>915</ele>
        <time>2024-05-23T13:19:33Z</time>
      </trkpt>
      <trkpt lat="45.14131" lon="4.329">
        <ele>916</ele>
        <time>2024-05-23T13:19:37Z</time>
      </trkpt>
      <trkpt lat="45.14132" lon="4.32893">
        <ele>916</ele>
        <time>2024-05-23T13:19:41Z</time>
      </trkpt>
      <trkpt lat="45.14134" lon="4.32887">
        <ele>915</ele>
        <time>2024-05-23T13:19:45Z</time>
      </trkpt>
      <trkpt lat="45.14133" lon="4.32881">
        <ele>915</ele>
        <time>2024-05-23T13:19:49Z</time>
      </trkpt>
      <trkpt lat="45.14136" lon="4.32876">
        <ele>915</ele>
        <time>2024-05-23T13:19:52Z</time>
      </trkpt>
      <trkpt lat="45.14137" lon="4.3287">
        <ele>915</ele>
        <time>2024-05-23T13:19:55Z</time>
      </trkpt>
      <trkpt lat="45.14139" lon="4.32856">
        <ele>915</ele>
        <time>2024-05-23T13:20:03Z</time>
      </trkpt>
      <trkpt lat="45.14139" lon="4.32849">
        <ele>915</ele>
        <time>2024-05-23T13:20:07Z</time>
      </trkpt>
      <trkpt lat="45.14145" lon="4.3283">
        <ele>915</ele>
        <time>2024-05-23T13:20:20Z</time>
      </trkpt>
      <trkpt lat="45.14145" lon="4.32808">
        <ele>916</ele>
        <time>2024-05-23T13:20:34Z</time>
      </trkpt>
      <trkpt lat="45.14141" lon="4.32797">
        <ele>917</ele>
        <time>2024-05-23T13:20:43Z</time>
      </trkpt>
      <trkpt lat="45.14134" lon="4.32786">
        <ele>918</ele>
        <time>2024-05-23T13:20:52Z</time>
      </trkpt>
      <trkpt lat="45.14106" lon="4.32765">
        <ele>922</ele>
        <time>2024-05-23T13:21:23Z</time>
      </trkpt>
      <trkpt lat="45.141" lon="4.3276">
        <ele>922</ele>
        <time>2024-05-23T13:21:30Z</time>
      </trkpt>
      <trkpt lat="45.14094" lon="4.32758">
        <ele>923</ele>
        <time>2024-05-23T13:21:35Z</time>
      </trkpt>
      <trkpt lat="45.1409" lon="4.32756">
        <ele>923</ele>
        <time>2024-05-23T13:21:39Z</time>
      </trkpt>
      <trkpt lat="45.14086" lon="4.32755">
        <ele>923</ele>
        <time>2024-05-23T13:21:43Z</time>
      </trkpt>
      <trkpt lat="45.14082" lon="4.32751">
        <ele>924</ele>
        <time>2024-05-23T13:21:47Z</time>
      </trkpt>
      <trkpt lat="45.14076" lon="4.32751">
        <ele>924</ele>
        <time>2024-05-23T13:21:52Z</time>
      </trkpt>
      <trkpt lat="45.14063" lon="4.32745">
        <ele>926</ele>
        <time>2024-05-23T13:22:04Z</time>
      </trkpt>
      <trkpt lat="45.14059" lon="4.3274">
        <ele>926</ele>
        <time>2024-05-23T13:22:08Z</time>
      </trkpt>
      <trkpt lat="45.14055" lon="4.32739">
        <ele>926</ele>
        <time>2024-05-23T13:22:12Z</time>
      </trkpt>
      <trkpt lat="45.14052" lon="4.32732">
        <ele>926</ele>
        <time>2024-05-23T13:22:16Z</time>
      </trkpt>
      <trkpt lat="45.14047" lon="4.32721">
        <ele>926</ele>
        <time>2024-05-23T13:22:24Z</time>
      </trkpt>
      <trkpt lat="45.14044" lon="4.32716">
        <ele>926</ele>
        <time>2024-05-23T13:22:28Z</time>
      </trkpt>
      <trkpt lat="45.14037" lon="4.32705">
        <ele>926</ele>
        <time>2024-05-23T13:22:36Z</time>
      </trkpt>
      <trkpt lat="45.14028" lon="4.32694">
        <ele>927</ele>
        <time>2024-05-23T13:22:48Z</time>
      </trkpt>
      <trkpt lat="45.14016" lon="4.32672">
        <ele>929</ele>
        <time>2024-05-23T13:23:04Z</time>
      </trkpt>
      <trkpt lat="45.14007" lon="4.32656">
        <ele>930</ele>
        <time>2024-05-23T13:23:16Z</time>
      </trkpt>
      <trkpt lat="45.14003" lon="4.32626">
        <ele>932</ele>
        <time>2024-05-23T13:23:32Z</time>
      </trkpt>
      <trkpt lat="45.14002" lon="4.3262">
        <ele>933</ele>
        <time>2024-05-23T13:23:36Z</time>
      </trkpt>
      <trkpt lat="45.14003" lon="4.32613">
        <ele>933</ele>
        <time>2024-05-23T13:23:40Z</time>
      </trkpt>
      <trkpt lat="45.14001" lon="4.32607">
        <ele>933</ele>
        <time>2024-05-23T13:23:43Z</time>
      </trkpt>
      <trkpt lat="45.14001" lon="4.32584">
        <ele>935</ele>
        <time>2024-05-23T13:23:59Z</time>
      </trkpt>
      <trkpt lat="45.14003" lon="4.32577">
        <ele>935</ele>
        <time>2024-05-23T13:24:04Z</time>
      </trkpt>
      <trkpt lat="45.14004" lon="4.32563">
        <ele>936</ele>
        <time>2024-05-23T13:24:12Z</time>
      </trkpt>
      <trkpt lat="45.14003" lon="4.32556">
        <ele>936</ele>
        <time>2024-05-23T13:24:16Z</time>
      </trkpt>
      <trkpt lat="45.14004" lon="4.32551">
        <ele>936</ele>
        <time>2024-05-23T13:24:20Z</time>
      </trkpt>
      <trkpt lat="45.14004" lon="4.32544">
        <ele>936</ele>
        <time>2024-05-23T13:24:24Z</time>
      </trkpt>
      <trkpt lat="45.14009" lon="4.32511">
        <ele>937</ele>
        <time>2024-05-23T13:24:43Z</time>
      </trkpt>
      <trkpt lat="45.14012" lon="4.32505">
        <ele>937</ele>
        <time>2024-05-23T13:24:47Z</time>
      </trkpt>
      <trkpt lat="45.14019" lon="4.3248">
        <ele>937</ele>
        <time>2024-05-23T13:25:04Z</time>
      </trkpt>
      <trkpt lat="45.1403" lon="4.32457">
        <ele>938</ele>
        <time>2024-05-23T13:25:20Z</time>
      </trkpt>
      <trkpt lat="45.1404" lon="4.32425">
        <ele>939</ele>
        <time>2024-05-23T13:25:40Z</time>
      </trkpt>
      <trkpt lat="45.14043" lon="4.32418">
        <ele>939</ele>
        <time>2024-05-23T13:25:44Z</time>
      </trkpt>
      <trkpt lat="45.1405" lon="4.32413">
        <ele>939</ele>
        <time>2024-05-23T13:25:50Z</time>
      </trkpt>
      <trkpt lat="45.14052" lon="4.32406">
        <ele>939</ele>
        <time>2024-05-23T13:25:54Z</time>
      </trkpt>
      <trkpt lat="45.14061" lon="4.32398">
        <ele>939</ele>
        <time>2024-05-23T13:26:04Z</time>
      </trkpt>
      <trkpt lat="45.14061" lon="4.32391">
        <ele>939</ele>
        <time>2024-05-23T13:26:15Z</time>
      </trkpt>
      <trkpt lat="45.14057" lon="4.32387">
        <ele>939</ele>
        <time>2024-05-23T13:26:20Z</time>
      </trkpt>
      <trkpt lat="45.14049" lon="4.32384">
        <ele>939</ele>
        <time>2024-05-23T13:26:28Z</time>
      </trkpt>
      <trkpt lat="45.14045" lon="4.3238">
        <ele>940</ele>
        <time>2024-05-23T13:26:33Z</time>
      </trkpt>
      <trkpt lat="45.14033" lon="4.32374">
        <ele>940</ele>
        <time>2024-05-23T13:26:45Z</time>
      </trkpt>
      <trkpt lat="45.14033" lon="4.32368">
        <ele>940</ele>
        <time>2024-05-23T13:26:51Z</time>
      </trkpt>
      <trkpt lat="45.14037" lon="4.32366">
        <ele>940</ele>
        <time>2024-05-23T13:28:30Z</time>
      </trkpt>
      <trkpt lat="45.14028" lon="4.32357">
        <ele>940</ele>
        <time>2024-05-23T13:29:15Z</time>
      </trkpt>
      <trkpt lat="45.1403" lon="4.32368">
        <ele>940</ele>
        <time>2024-05-23T13:29:21Z</time>
      </trkpt>
      <trkpt lat="45.14026" lon="4.32371">
        <ele>940</ele>
        <time>2024-05-23T13:29:26Z</time>
      </trkpt>
      <trkpt lat="45.14018" lon="4.32369">
        <ele>941</ele>
        <time>2024-05-23T13:29:32Z</time>
      </trkpt>
      <trkpt lat="45.14014" lon="4.32366">
        <ele>941</ele>
        <time>2024-05-23T13:29:37Z</time>
      </trkpt>
      <trkpt lat="45.14011" lon="4.32361">
        <ele>941</ele>
        <time>2024-05-23T13:29:40Z</time>
      </trkpt>
      <trkpt lat="45.14007" lon="4.32358">
        <ele>941</ele>
        <time>2024-05-23T13:29:44Z</time>
      </trkpt>
      <trkpt lat="45.14001" lon="4.32359">
        <ele>942</ele>
        <time>2024-05-23T13:29:48Z</time>
      </trkpt>
      <trkpt lat="45.1399" lon="4.32347">
        <ele>942</ele>
        <time>2024-05-23T13:30:00Z</time>
      </trkpt>
      <trkpt lat="45.13956" lon="4.32346">
        <ele>944</ele>
        <time>2024-05-23T13:30:32Z</time>
      </trkpt>
      <trkpt lat="45.13935" lon="4.3235">
        <ele>946</ele>
        <time>2024-05-23T13:30:51Z</time>
      </trkpt>
      <trkpt lat="45.13916" lon="4.32345">
        <ele>948</ele>
        <time>2024-05-23T13:31:12Z</time>
      </trkpt>
      <trkpt lat="45.13908" lon="4.3234">
        <ele>948</ele>
        <time>2024-05-23T13:31:19Z</time>
      </trkpt>
      <trkpt lat="45.13904" lon="4.32339">
        <ele>948</ele>
        <time>2024-05-23T13:31:24Z</time>
      </trkpt>
      <trkpt lat="45.13869" lon="4.32319">
        <ele>948</ele>
        <time>2024-05-23T13:31:58Z</time>
      </trkpt>
      <trkpt lat="45.13836" lon="4.323">
        <ele>947</ele>
        <time>2024-05-23T13:32:28Z</time>
      </trkpt>
      <trkpt lat="45.1383" lon="4.32295">
        <ele>947</ele>
        <time>2024-05-23T13:32:32Z</time>
      </trkpt>
      <trkpt lat="45.1382" lon="4.32291">
        <ele>947</ele>
        <time>2024-05-23T13:32:41Z</time>
      </trkpt>
      <trkpt lat="45.13816" lon="4.32285">
        <ele>946</ele>
        <time>2024-05-23T13:32:45Z</time>
      </trkpt>
      <trkpt lat="45.13807" lon="4.3228">
        <ele>946</ele>
        <time>2024-05-23T13:32:52Z</time>
      </trkpt>
      <trkpt lat="45.13807" lon="4.32271">
        <ele>946</ele>
        <time>2024-05-23T13:32:56Z</time>
      </trkpt>
      <trkpt lat="45.1381" lon="4.32259">
        <ele>946</ele>
        <time>2024-05-23T13:33:03Z</time>
      </trkpt>
      <trkpt lat="45.13824" lon="4.32255">
        <ele>946</ele>
        <time>2024-05-23T13:33:14Z</time>
      </trkpt>
      <trkpt lat="45.13837" lon="4.32244">
        <ele>946</ele>
        <time>2024-05-23T13:33:27Z</time>
      </trkpt>
      <trkpt lat="45.13854" lon="4.32219">
        <ele>945</ele>
        <time>2024-05-23T13:33:49Z</time>
      </trkpt>
      <trkpt lat="45.1386" lon="4.32204">
        <ele>945</ele>
        <time>2024-05-23T13:34:01Z</time>
      </trkpt>
      <trkpt lat="45.13862" lon="4.32199">
        <ele>945</ele>
        <time>2024-05-23T13:34:05Z</time>
      </trkpt>
      <trkpt lat="45.13864" lon="4.32193">
        <ele>945</ele>
        <time>2024-05-23T13:34:09Z</time>
      </trkpt>
      <trkpt lat="45.13869" lon="4.32187">
        <ele>945</ele>
        <time>2024-05-23T13:34:15Z</time>
      </trkpt>
      <trkpt lat="45.13874" lon="4.32177">
        <ele>945</ele>
        <time>2024-05-23T13:34:23Z</time>
      </trkpt>
      <trkpt lat="45.13884" lon="4.32158">
        <ele>945</ele>
        <time>2024-05-23T13:34:39Z</time>
      </trkpt>
      <trkpt lat="45.13886" lon="4.32151">
        <ele>945</ele>
        <time>2024-05-23T13:34:48Z</time>
      </trkpt>
      <trkpt lat="45.13883" lon="4.32145">
        <ele>945</ele>
        <time>2024-05-23T13:35:07Z</time>
      </trkpt>
      <trkpt lat="45.13878" lon="4.32134">
        <ele>946</ele>
        <time>2024-05-23T13:35:17Z</time>
      </trkpt>
      <trkpt lat="45.13874" lon="4.32127">
        <ele>946</ele>
        <time>2024-05-23T13:35:36Z</time>
      </trkpt>
      <trkpt lat="45.13871" lon="4.3212">
        <ele>946</ele>
        <time>2024-05-23T13:35:41Z</time>
      </trkpt>
      <trkpt lat="45.13862" lon="4.32107">
        <ele>948</ele>
        <time>2024-05-23T13:35:56Z</time>
      </trkpt>
      <trkpt lat="45.13863" lon="4.32101">
        <ele>948</ele>
        <time>2024-05-23T13:35:59Z</time>
      </trkpt>
      <trkpt lat="45.13859" lon="4.32097">
        <ele>949</ele>
        <time>2024-05-23T13:36:04Z</time>
      </trkpt>
      <trkpt lat="45.13858" lon="4.3209">
        <ele>949</ele>
        <time>2024-05-23T13:36:08Z</time>
      </trkpt>
      <trkpt lat="45.13852" lon="4.32082">
        <ele>950</ele>
        <time>2024-05-23T13:36:18Z</time>
      </trkpt>
      <trkpt lat="45.13846" lon="4.3207">
        <ele>950</ele>
        <time>2024-05-23T13:36:25Z</time>
      </trkpt>
      <trkpt lat="45.13842" lon="4.32065">
        <ele>951</ele>
        <time>2024-05-23T13:36:33Z</time>
      </trkpt>
      <trkpt lat="45.13842" lon="4.32058">
        <ele>951</ele>
        <time>2024-05-23T13:36:36Z</time>
      </trkpt>
      <trkpt lat="45.13838" lon="4.32053">
        <ele>952</ele>
        <time>2024-05-23T13:36:43Z</time>
      </trkpt>
      <trkpt lat="45.13836" lon="4.32044">
        <ele>953</ele>
        <time>2024-05-23T13:36:49Z</time>
      </trkpt>
      <trkpt lat="45.13829" lon="4.32041">
        <ele>954</ele>
        <time>2024-05-23T13:36:58Z</time>
      </trkpt>
      <trkpt lat="45.13819" lon="4.32022">
        <ele>955</ele>
        <time>2024-05-23T13:37:13Z</time>
      </trkpt>
      <trkpt lat="45.13817" lon="4.32016">
        <ele>956</ele>
        <time>2024-05-23T13:37:17Z</time>
      </trkpt>
      <trkpt lat="45.1381" lon="4.32007">
        <ele>956</ele>
        <time>2024-05-23T13:37:26Z</time>
      </trkpt>
      <trkpt lat="45.13804" lon="4.31991">
        <ele>957</ele>
        <time>2024-05-23T13:37:39Z</time>
      </trkpt>
      <trkpt lat="45.13801" lon="4.31987">
        <ele>957</ele>
        <time>2024-05-23T13:37:43Z</time>
      </trkpt>
      <trkpt lat="45.13796" lon="4.31977">
        <ele>956</ele>
        <time>2024-05-23T13:37:51Z</time>
      </trkpt>
      <trkpt lat="45.13786" lon="4.31973">
        <ele>956</ele>
        <time>2024-05-23T13:38:02Z</time>
      </trkpt>
      <trkpt lat="45.13782" lon="4.31974">
        <ele>955</ele>
        <time>2024-05-23T13:38:06Z</time>
      </trkpt>
      <trkpt lat="45.1377" lon="4.31973">
        <ele>953</ele>
        <time>2024-05-23T13:38:19Z</time>
      </trkpt>
      <trkpt lat="45.13765" lon="4.31969">
        <ele>953</ele>
        <time>2024-05-23T13:38:23Z</time>
      </trkpt>
      <trkpt lat="45.1376" lon="4.31957">
        <ele>951</ele>
        <time>2024-05-23T13:38:30Z</time>
      </trkpt>
      <trkpt lat="45.13752" lon="4.31954">
        <ele>950</ele>
        <time>2024-05-23T13:38:38Z</time>
      </trkpt>
      <trkpt lat="45.1375" lon="4.3195">
        <ele>950</ele>
        <time>2024-05-23T13:38:41Z</time>
      </trkpt>
      <trkpt lat="45.13745" lon="4.31948">
        <ele>950</ele>
        <time>2024-05-23T13:38:46Z</time>
      </trkpt>
      <trkpt lat="45.1374" lon="4.31948">
        <ele>949</ele>
        <time>2024-05-23T13:38:50Z</time>
      </trkpt>
      <trkpt lat="45.13736" lon="4.31937">
        <ele>949</ele>
        <time>2024-05-23T13:38:55Z</time>
      </trkpt>
      <trkpt lat="45.13721" lon="4.31934">
        <ele>948</ele>
        <time>2024-05-23T13:39:09Z</time>
      </trkpt>
      <trkpt lat="45.13718" lon="4.31929">
        <ele>948</ele>
        <time>2024-05-23T13:39:12Z</time>
      </trkpt>
      <trkpt lat="45.13716" lon="4.31922">
        <ele>947</ele>
        <time>2024-05-23T13:39:17Z</time>
      </trkpt>
      <trkpt lat="45.13708" lon="4.3192">
        <ele>947</ele>
        <time>2024-05-23T13:39:24Z</time>
      </trkpt>
      <trkpt lat="45.13701" lon="4.31913">
        <ele>946</ele>
        <time>2024-05-23T13:39:31Z</time>
      </trkpt>
      <trkpt lat="45.137" lon="4.31906">
        <ele>946</ele>
        <time>2024-05-23T13:39:34Z</time>
      </trkpt>
      <trkpt lat="45.13698" lon="4.31901">
        <ele>945</ele>
        <time>2024-05-23T13:39:37Z</time>
      </trkpt>
      <trkpt lat="45.13692" lon="4.31903">
        <ele>945</ele>
        <time>2024-05-23T13:39:39Z</time>
      </trkpt>
      <trkpt lat="45.13689" lon="4.31895">
        <ele>945</ele>
        <time>2024-05-23T13:39:46Z</time>
      </trkpt>
      <trkpt lat="45.13689" lon="4.31888">
        <ele>945</ele>
        <time>2024-05-23T13:39:49Z</time>
      </trkpt>
      <trkpt lat="45.13686" lon="4.31882">
        <ele>944</ele>
        <time>2024-05-23T13:39:52Z</time>
      </trkpt>
      <trkpt lat="45.13688" lon="4.31865">
        <ele>944</ele>
        <time>2024-05-23T13:40:00Z</time>
      </trkpt>
      <trkpt lat="45.13685" lon="4.31857">
        <ele>944</ele>
        <time>2024-05-23T13:40:03Z</time>
      </trkpt>
      <trkpt lat="45.1369" lon="4.3184">
        <ele>943</ele>
        <time>2024-05-23T13:40:13Z</time>
      </trkpt>
      <trkpt lat="45.1369" lon="4.31833">
        <ele>943</ele>
        <time>2024-05-23T13:40:17Z</time>
      </trkpt>
      <trkpt lat="45.13701" lon="4.31812">
        <ele>942</ele>
        <time>2024-05-23T13:40:32Z</time>
      </trkpt>
      <trkpt lat="45.13703" lon="4.31806">
        <ele>942</ele>
        <time>2024-05-23T13:40:36Z</time>
      </trkpt>
      <trkpt lat="45.13697" lon="4.31794">
        <ele>941</ele>
        <time>2024-05-23T13:40:44Z</time>
      </trkpt>
      <trkpt lat="45.13694" lon="4.31789">
        <ele>940</ele>
        <time>2024-05-23T13:40:48Z</time>
      </trkpt>
      <trkpt lat="45.1369" lon="4.31778">
        <ele>940</ele>
        <time>2024-05-23T13:40:56Z</time>
      </trkpt>
      <trkpt lat="45.13686" lon="4.31773">
        <ele>939</ele>
        <time>2024-05-23T13:41:00Z</time>
      </trkpt>
      <trkpt lat="45.13683" lon="4.31762">
        <ele>939</ele>
        <time>2024-05-23T13:41:08Z</time>
      </trkpt>
      <trkpt lat="45.13676" lon="4.31745">
        <ele>939</ele>
        <time>2024-05-23T13:41:21Z</time>
      </trkpt>
      <trkpt lat="45.13674" lon="4.31739">
        <ele>939</ele>
        <time>2024-05-23T13:41:25Z</time>
      </trkpt>
      <trkpt lat="45.13672" lon="4.31733">
        <ele>939</ele>
        <time>2024-05-23T13:41:30Z</time>
      </trkpt>
      <trkpt lat="45.13668" lon="4.31727">
        <ele>939</ele>
        <time>2024-05-23T13:41:35Z</time>
      </trkpt>
      <trkpt lat="45.1366" lon="4.31706">
        <ele>940</ele>
        <time>2024-05-23T13:41:52Z</time>
      </trkpt>
      <trkpt lat="45.13655" lon="4.31703">
        <ele>941</ele>
        <time>2024-05-23T13:41:57Z</time>
      </trkpt>
      <trkpt lat="45.13651" lon="4.31701">
        <ele>941</ele>
        <time>2024-05-23T13:42:01Z</time>
      </trkpt>
      <trkpt lat="45.13646" lon="4.31703">
        <ele>941</ele>
        <time>2024-05-23T13:42:08Z</time>
      </trkpt>
      <trkpt lat="45.13641" lon="4.31706">
        <ele>941</ele>
        <time>2024-05-23T13:42:12Z</time>
      </trkpt>
      <trkpt lat="45.13637" lon="4.31707">
        <ele>941</ele>
        <time>2024-05-23T13:42:16Z</time>
      </trkpt>
      <trkpt lat="45.13633" lon="4.31709">
        <ele>941</ele>
        <time>2024-05-23T13:42:19Z</time>
      </trkpt>
      <trkpt lat="45.13629" lon="4.31709">
        <ele>941</ele>
        <time>2024-05-23T13:42:22Z</time>
      </trkpt>
      <trkpt lat="45.13622" lon="4.31699">
        <ele>940</ele>
        <time>2024-05-23T13:42:29Z</time>
      </trkpt>
      <trkpt lat="45.1362" lon="4.31693">
        <ele>939</ele>
        <time>2024-05-23T13:42:33Z</time>
      </trkpt>
      <trkpt lat="45.13603" lon="4.31671">
        <ele>937</ele>
        <time>2024-05-23T13:42:53Z</time>
      </trkpt>
      <trkpt lat="45.13598" lon="4.31669">
        <ele>937</ele>
        <time>2024-05-23T13:42:57Z</time>
      </trkpt>
      <trkpt lat="45.13594" lon="4.31665">
        <ele>936</ele>
        <time>2024-05-23T13:43:01Z</time>
      </trkpt>
      <trkpt lat="45.13591" lon="4.3166">
        <ele>936</ele>
        <time>2024-05-23T13:43:05Z</time>
      </trkpt>
      <trkpt lat="45.13589" lon="4.31654">
        <ele>936</ele>
        <time>2024-05-23T13:43:09Z</time>
      </trkpt>
      <trkpt lat="45.13563" lon="4.31625">
        <ele>935</ele>
        <time>2024-05-23T13:43:37Z</time>
      </trkpt>
      <trkpt lat="45.13561" lon="4.31619">
        <ele>934</ele>
        <time>2024-05-23T13:43:41Z</time>
      </trkpt>
      <trkpt lat="45.13558" lon="4.31614">
        <ele>934</ele>
        <time>2024-05-23T13:43:45Z</time>
      </trkpt>
      <trkpt lat="45.13554" lon="4.31611">
        <ele>934</ele>
        <time>2024-05-23T13:43:50Z</time>
      </trkpt>
      <trkpt lat="45.1355" lon="4.31609">
        <ele>934</ele>
        <time>2024-05-23T13:43:54Z</time>
      </trkpt>
      <trkpt lat="45.13538" lon="4.31567">
        <ele>934</ele>
        <time>2024-05-23T13:47:03Z</time>
      </trkpt>
      <trkpt lat="45.13531" lon="4.31549">
        <ele>933</ele>
        <time>2024-05-23T13:47:16Z</time>
      </trkpt>
      <trkpt lat="45.13511" lon="4.31502">
        <ele>932</ele>
        <time>2024-05-23T13:47:50Z</time>
      </trkpt>
      <trkpt lat="45.13492" lon="4.31459">
        <ele>931</ele>
        <time>2024-05-23T13:48:23Z</time>
      </trkpt>
      <trkpt lat="45.1348" lon="4.31428">
        <ele>930</ele>
        <time>2024-05-23T13:48:45Z</time>
      </trkpt>
      <trkpt lat="45.1348" lon="4.31421">
        <ele>930</ele>
        <time>2024-05-23T13:48:49Z</time>
      </trkpt>
      <trkpt lat="45.13479" lon="4.31415">
        <ele>930</ele>
        <time>2024-05-23T13:48:53Z</time>
      </trkpt>
      <trkpt lat="45.13463" lon="4.31375">
        <ele>929</ele>
        <time>2024-05-23T13:49:21Z</time>
      </trkpt>
      <trkpt lat="45.13459" lon="4.3137">
        <ele>928</ele>
        <time>2024-05-23T13:49:26Z</time>
      </trkpt>
      <trkpt lat="45.13444" lon="4.3133">
        <ele>926</ele>
        <time>2024-05-23T13:49:54Z</time>
      </trkpt>
      <trkpt lat="45.13443" lon="4.31323">
        <ele>926</ele>
        <time>2024-05-23T13:49:58Z</time>
      </trkpt>
      <trkpt lat="45.1344" lon="4.31317">
        <ele>926</ele>
        <time>2024-05-23T13:50:02Z</time>
      </trkpt>
      <trkpt lat="45.13437" lon="4.31312">
        <ele>926</ele>
        <time>2024-05-23T13:50:06Z</time>
      </trkpt>
      <trkpt lat="45.13433" lon="4.31309">
        <ele>925</ele>
        <time>2024-05-23T13:50:10Z</time>
      </trkpt>
      <trkpt lat="45.13429" lon="4.31311">
        <ele>925</ele>
        <time>2024-05-23T13:50:14Z</time>
      </trkpt>
      <trkpt lat="45.13421" lon="4.31316">
        <ele>926</ele>
        <time>2024-05-23T13:50:22Z</time>
      </trkpt>
      <trkpt lat="45.13416" lon="4.31318">
        <ele>926</ele>
        <time>2024-05-23T13:50:26Z</time>
      </trkpt>
      <trkpt lat="45.13411" lon="4.31318">
        <ele>926</ele>
        <time>2024-05-23T13:50:30Z</time>
      </trkpt>
      <trkpt lat="45.13403" lon="4.31316">
        <ele>927</ele>
        <time>2024-05-23T13:50:38Z</time>
      </trkpt>
      <trkpt lat="45.134" lon="4.31309">
        <ele>927</ele>
        <time>2024-05-23T13:50:48Z</time>
      </trkpt>
      <trkpt lat="45.13397" lon="4.31305">
        <ele>927</ele>
        <time>2024-05-23T13:50:52Z</time>
      </trkpt>
      <trkpt lat="45.13393" lon="4.313">
        <ele>927</ele>
        <time>2024-05-23T13:50:57Z</time>
      </trkpt>
      <trkpt lat="45.13389" lon="4.31293">
        <ele>928</ele>
        <time>2024-05-23T13:51:03Z</time>
      </trkpt>
      <trkpt lat="45.13383" lon="4.31288">
        <ele>928</ele>
        <time>2024-05-23T13:51:11Z</time>
      </trkpt>
      <trkpt lat="45.13381" lon="4.31283">
        <ele>929</ele>
        <time>2024-05-23T13:51:16Z</time>
      </trkpt>
      <trkpt lat="45.13376" lon="4.31281">
        <ele>929</ele>
        <time>2024-05-23T13:51:21Z</time>
      </trkpt>
      <trkpt lat="45.13372" lon="4.31274">
        <ele>930</ele>
        <time>2024-05-23T13:51:30Z</time>
      </trkpt>
      <trkpt lat="45.13367" lon="4.3127">
        <ele>930</ele>
        <time>2024-05-23T13:51:33Z</time>
      </trkpt>
      <trkpt lat="45.13363" lon="4.31269">
        <ele>930</ele>
        <time>2024-05-23T13:51:37Z</time>
      </trkpt>
      <trkpt lat="45.13359" lon="4.31268">
        <ele>930</ele>
        <time>2024-05-23T13:51:44Z</time>
      </trkpt>
      <trkpt lat="45.13348" lon="4.31253">
        <ele>933</ele>
        <time>2024-05-23T13:52:06Z</time>
      </trkpt>
      <trkpt lat="45.13348" lon="4.31243">
        <ele>935</ele>
        <time>2024-05-23T13:52:18Z</time>
      </trkpt>
      <trkpt lat="45.13344" lon="4.31238">
        <ele>935</ele>
        <time>2024-05-23T13:52:22Z</time>
      </trkpt>
      <trkpt lat="45.13339" lon="4.31233">
        <ele>936</ele>
        <time>2024-05-23T13:52:29Z</time>
      </trkpt>
      <trkpt lat="45.1334" lon="4.31226">
        <ele>938</ele>
        <time>2024-05-23T13:52:36Z</time>
      </trkpt>
      <trkpt lat="45.13338" lon="4.31219">
        <ele>938</ele>
        <time>2024-05-23T13:52:42Z</time>
      </trkpt>
      <trkpt lat="45.13334" lon="4.31209">
        <ele>938</ele>
        <time>2024-05-23T13:52:50Z</time>
      </trkpt>
      <trkpt lat="45.13335" lon="4.31183">
        <ele>939</ele>
        <time>2024-05-23T13:53:05Z</time>
      </trkpt>
      <trkpt lat="45.13331" lon="4.31179">
        <ele>940</ele>
        <time>2024-05-23T13:53:13Z</time>
      </trkpt>
      <trkpt lat="45.13333" lon="4.3117">
        <ele>941</ele>
        <time>2024-05-23T13:53:18Z</time>
      </trkpt>
      <trkpt lat="45.13332" lon="4.31162">
        <ele>941</ele>
        <time>2024-05-23T13:53:21Z</time>
      </trkpt>
      <trkpt lat="45.13331" lon="4.31156">
        <ele>942</ele>
        <time>2024-05-23T13:53:26Z</time>
      </trkpt>
      <trkpt lat="45.13329" lon="4.3115">
        <ele>943</ele>
        <time>2024-05-23T13:53:29Z</time>
      </trkpt>
      <trkpt lat="45.1333" lon="4.31143">
        <ele>943</ele>
        <time>2024-05-23T13:53:33Z</time>
      </trkpt>
      <trkpt lat="45.13332" lon="4.3113">
        <ele>945</ele>
        <time>2024-05-23T13:53:46Z</time>
      </trkpt>
      <trkpt lat="45.13334" lon="4.31123">
        <ele>945</ele>
        <time>2024-05-23T13:53:48Z</time>
      </trkpt>
      <trkpt lat="45.13336" lon="4.31118">
        <ele>946</ele>
        <time>2024-05-23T13:53:51Z</time>
      </trkpt>
      <trkpt lat="45.13338" lon="4.31108">
        <ele>947</ele>
        <time>2024-05-23T13:54:00Z</time>
      </trkpt>
      <trkpt lat="45.13334" lon="4.31094">
        <ele>949</ele>
        <time>2024-05-23T13:54:16Z</time>
      </trkpt>
      <trkpt lat="45.13329" lon="4.31092">
        <ele>950</ele>
        <time>2024-05-23T13:54:23Z</time>
      </trkpt>
      <trkpt lat="45.13323" lon="4.31085">
        <ele>951</ele>
        <time>2024-05-23T13:54:34Z</time>
      </trkpt>
      <trkpt lat="45.13318" lon="4.31079">
        <ele>954</ele>
        <time>2024-05-23T13:54:45Z</time>
      </trkpt>
      <trkpt lat="45.13314" lon="4.31073">
        <ele>955</ele>
        <time>2024-05-23T13:54:53Z</time>
      </trkpt>
      <trkpt lat="45.13304" lon="4.31049">
        <ele>959</ele>
        <time>2024-05-23T13:55:13Z</time>
      </trkpt>
      <trkpt lat="45.133" lon="4.31046">
        <ele>959</ele>
        <time>2024-05-23T13:55:17Z</time>
      </trkpt>
      <trkpt lat="45.13299" lon="4.31041">
        <ele>961</ele>
        <time>2024-05-23T13:55:21Z</time>
      </trkpt>
      <trkpt lat="45.13296" lon="4.31036">
        <ele>961</ele>
        <time>2024-05-23T13:55:27Z</time>
      </trkpt>
      <trkpt lat="45.13292" lon="4.31025">
        <ele>963</ele>
        <time>2024-05-23T13:55:38Z</time>
      </trkpt>
      <trkpt lat="45.1329" lon="4.31015">
        <ele>963</ele>
        <time>2024-05-23T13:55:42Z</time>
      </trkpt>
      <trkpt lat="45.13289" lon="4.31016">
        <ele>964</ele>
        <time>2024-05-23T13:56:06Z</time>
      </trkpt>
      <trkpt lat="45.13289" lon="4.31023">
        <ele>964</ele>
        <time>2024-05-23T13:56:10Z</time>
      </trkpt>
      <trkpt lat="45.13284" lon="4.31025">
        <ele>964</ele>
        <time>2024-05-23T13:56:18Z</time>
      </trkpt>
      <trkpt lat="45.1328" lon="4.31019">
        <ele>965</ele>
        <time>2024-05-23T13:56:21Z</time>
      </trkpt>
      <trkpt lat="45.13275" lon="4.31017">
        <ele>965</ele>
        <time>2024-05-23T13:56:26Z</time>
      </trkpt>
      <trkpt lat="45.13272" lon="4.3101">
        <ele>964</ele>
        <time>2024-05-23T13:57:16Z</time>
      </trkpt>
      <trkpt lat="45.13281" lon="4.31012">
        <ele>964</ele>
        <time>2024-05-23T13:57:25Z</time>
      </trkpt>
      <trkpt lat="45.13284" lon="4.31008">
        <ele>964</ele>
        <time>2024-05-23T13:57:30Z</time>
      </trkpt>
      <trkpt lat="45.13285" lon="4.31004">
        <ele>964</ele>
        <time>2024-05-23T13:58:30Z</time>
      </trkpt>
      <trkpt lat="45.13283" lon="4.30998">
        <ele>964</ele>
        <time>2024-05-23T13:59:20Z</time>
      </trkpt>
      <trkpt lat="45.1328" lon="4.30992">
        <ele>964</ele>
        <time>2024-05-23T13:59:26Z</time>
      </trkpt>
      <trkpt lat="45.13276" lon="4.30989">
        <ele>964</ele>
        <time>2024-05-23T13:59:32Z</time>
      </trkpt>
      <trkpt lat="45.1327" lon="4.30982">
        <ele>965</ele>
        <time>2024-05-23T13:59:42Z</time>
      </trkpt>
      <trkpt lat="45.13267" lon="4.30972">
        <ele>966</ele>
        <time>2024-05-23T13:59:52Z</time>
      </trkpt>
      <trkpt lat="45.13259" lon="4.30963">
        <ele>966</ele>
        <time>2024-05-23T14:00:02Z</time>
      </trkpt>
      <trkpt lat="45.13255" lon="4.3095">
        <ele>967</ele>
        <time>2024-05-23T14:00:11Z</time>
      </trkpt>
      <trkpt lat="45.13253" lon="4.30945">
        <ele>967</ele>
        <time>2024-05-23T14:00:14Z</time>
      </trkpt>
      <trkpt lat="45.1325" lon="4.30938">
        <ele>967</ele>
        <time>2024-05-23T14:00:20Z</time>
      </trkpt>
      <trkpt lat="45.13244" lon="4.30923">
        <ele>967</ele>
        <time>2024-05-23T14:00:32Z</time>
      </trkpt>
      <trkpt lat="45.13238" lon="4.30922">
        <ele>968</ele>
        <time>2024-05-23T14:00:41Z</time>
      </trkpt>
      <trkpt lat="45.13237" lon="4.30912">
        <ele>967</ele>
        <time>2024-05-23T14:00:50Z</time>
      </trkpt>
      <trkpt lat="45.13232" lon="4.30912">
        <ele>968</ele>
        <time>2024-05-23T14:00:55Z</time>
      </trkpt>
      <trkpt lat="45.13231" lon="4.30907">
        <ele>968</ele>
        <time>2024-05-23T14:01:00Z</time>
      </trkpt>
      <trkpt lat="45.13227" lon="4.30902">
        <ele>968</ele>
        <time>2024-05-23T14:01:07Z</time>
      </trkpt>
      <trkpt lat="45.13224" lon="4.30897">
        <ele>968</ele>
        <time>2024-05-23T14:01:10Z</time>
      </trkpt>
      <trkpt lat="45.13215" lon="4.3089">
        <ele>968</ele>
        <time>2024-05-23T14:01:20Z</time>
      </trkpt>
      <trkpt lat="45.13212" lon="4.30883">
        <ele>968</ele>
        <time>2024-05-23T14:01:24Z</time>
      </trkpt>
      <trkpt lat="45.13207" lon="4.30878">
        <ele>969</ele>
        <time>2024-05-23T14:01:31Z</time>
      </trkpt>
      <trkpt lat="45.13199" lon="4.30861">
        <ele>969</ele>
        <time>2024-05-23T14:01:43Z</time>
      </trkpt>
      <trkpt lat="45.13193" lon="4.30858">
        <ele>969</ele>
        <time>2024-05-23T14:01:49Z</time>
      </trkpt>
      <trkpt lat="45.13189" lon="4.30855">
        <ele>969</ele>
        <time>2024-05-23T14:01:54Z</time>
      </trkpt>
      <trkpt lat="45.13185" lon="4.30849">
        <ele>969</ele>
        <time>2024-05-23T14:01:59Z</time>
      </trkpt>
      <trkpt lat="45.13182" lon="4.30844">
        <ele>969</ele>
        <time>2024-05-23T14:02:03Z</time>
      </trkpt>
      <trkpt lat="45.1318" lon="4.30838">
        <ele>969</ele>
        <time>2024-05-23T14:02:08Z</time>
      </trkpt>
      <trkpt lat="45.13177" lon="4.30834">
        <ele>969</ele>
        <time>2024-05-23T14:02:12Z</time>
      </trkpt>
      <trkpt lat="45.13169" lon="4.30821">
        <ele>969</ele>
        <time>2024-05-23T14:02:21Z</time>
      </trkpt>
      <trkpt lat="45.13169" lon="4.30814">
        <ele>970</ele>
        <time>2024-05-23T14:02:25Z</time>
      </trkpt>
      <trkpt lat="45.13168" lon="4.30808">
        <ele>970</ele>
        <time>2024-05-23T14:02:29Z</time>
      </trkpt>
      <trkpt lat="45.13165" lon="4.30801">
        <ele>970</ele>
        <time>2024-05-23T14:02:34Z</time>
      </trkpt>
      <trkpt lat="45.13162" lon="4.30797">
        <ele>970</ele>
        <time>2024-05-23T14:02:37Z</time>
      </trkpt>
      <trkpt lat="45.13154" lon="4.30793">
        <ele>971</ele>
        <time>2024-05-23T14:02:44Z</time>
      </trkpt>
      <trkpt lat="45.13155" lon="4.30785">
        <ele>971</ele>
        <time>2024-05-23T14:02:48Z</time>
      </trkpt>
      <trkpt lat="45.13153" lon="4.30779">
        <ele>972</ele>
        <time>2024-05-23T14:02:53Z</time>
      </trkpt>
      <trkpt lat="45.13148" lon="4.30775">
        <ele>972</ele>
        <time>2024-05-23T14:03:00Z</time>
      </trkpt>
      <trkpt lat="45.13142" lon="4.30767">
        <ele>973</ele>
        <time>2024-05-23T14:03:08Z</time>
      </trkpt>
      <trkpt lat="45.1314" lon="4.3076">
        <ele>973</ele>
        <time>2024-05-23T14:03:12Z</time>
      </trkpt>
      <trkpt lat="45.13132" lon="4.30748">
        <ele>974</ele>
        <time>2024-05-23T14:03:25Z</time>
      </trkpt>
      <trkpt lat="45.13129" lon="4.30744">
        <ele>975</ele>
        <time>2024-05-23T14:03:29Z</time>
      </trkpt>
      <trkpt lat="45.13124" lon="4.30738">
        <ele>975</ele>
        <time>2024-05-23T14:03:34Z</time>
      </trkpt>
      <trkpt lat="45.13121" lon="4.30733">
        <ele>976</ele>
        <time>2024-05-23T14:03:39Z</time>
      </trkpt>
      <trkpt lat="45.13107" lon="4.30731">
        <ele>976</ele>
        <time>2024-05-23T14:03:51Z</time>
      </trkpt>
      <trkpt lat="45.13102" lon="4.30722">
        <ele>977</ele>
        <time>2024-05-23T14:04:00Z</time>
      </trkpt>
      <trkpt lat="45.13097" lon="4.30718">
        <ele>977</ele>
        <time>2024-05-23T14:04:04Z</time>
      </trkpt>
      <trkpt lat="45.13094" lon="4.30712">
        <ele>977</ele>
        <time>2024-05-23T14:04:10Z</time>
      </trkpt>
      <trkpt lat="45.13089" lon="4.30708">
        <ele>978</ele>
        <time>2024-05-23T14:04:13Z</time>
      </trkpt>
      <trkpt lat="45.13087" lon="4.30703">
        <ele>978</ele>
        <time>2024-05-23T14:04:17Z</time>
      </trkpt>
      <trkpt lat="45.13084" lon="4.30698">
        <ele>978</ele>
        <time>2024-05-23T14:04:21Z</time>
      </trkpt>
      <trkpt lat="45.13081" lon="4.30691">
        <ele>978</ele>
        <time>2024-05-23T14:04:26Z</time>
      </trkpt>
      <trkpt lat="45.13079" lon="4.30681">
        <ele>979</ele>
        <time>2024-05-23T14:04:33Z</time>
      </trkpt>
      <trkpt lat="45.13074" lon="4.3067">
        <ele>979</ele>
        <time>2024-05-23T14:04:40Z</time>
      </trkpt>
      <trkpt lat="45.1307" lon="4.30666">
        <ele>979</ele>
        <time>2024-05-23T14:04:46Z</time>
      </trkpt>
      <trkpt lat="45.13066" lon="4.30664">
        <ele>979</ele>
        <time>2024-05-23T14:04:50Z</time>
      </trkpt>
      <trkpt lat="45.13065" lon="4.30657">
        <ele>979</ele>
        <time>2024-05-23T14:04:54Z</time>
      </trkpt>
      <trkpt lat="45.13062" lon="4.30653">
        <ele>979</ele>
        <time>2024-05-23T14:04:58Z</time>
      </trkpt>
      <trkpt lat="45.13059" lon="4.30646">
        <ele>980</ele>
        <time>2024-05-23T14:05:02Z</time>
      </trkpt>
      <trkpt lat="45.13056" lon="4.30641">
        <ele>980</ele>
        <time>2024-05-23T14:05:07Z</time>
      </trkpt>
      <trkpt lat="45.13052" lon="4.30637">
        <ele>980</ele>
        <time>2024-05-23T14:05:11Z</time>
      </trkpt>
      <trkpt lat="45.1305" lon="4.3063">
        <ele>980</ele>
        <time>2024-05-23T14:05:15Z</time>
      </trkpt>
      <trkpt lat="45.13046" lon="4.30625">
        <ele>980</ele>
        <time>2024-05-23T14:05:20Z</time>
      </trkpt>
      <trkpt lat="45.13044" lon="4.30619">
        <ele>980</ele>
        <time>2024-05-23T14:05:25Z</time>
      </trkpt>
      <trkpt lat="45.13037" lon="4.30609">
        <ele>980</ele>
        <time>2024-05-23T14:05:33Z</time>
      </trkpt>
      <trkpt lat="45.13032" lon="4.30608">
        <ele>980</ele>
        <time>2024-05-23T14:05:36Z</time>
      </trkpt>
      <trkpt lat="45.13025" lon="4.30597">
        <ele>979</ele>
        <time>2024-05-23T14:05:47Z</time>
      </trkpt>
      <trkpt lat="45.13021" lon="4.30594">
        <ele>979</ele>
        <time>2024-05-23T14:05:51Z</time>
      </trkpt>
      <trkpt lat="45.13012" lon="4.30581">
        <ele>979</ele>
        <time>2024-05-23T14:06:03Z</time>
      </trkpt>
      <trkpt lat="45.13009" lon="4.30577">
        <ele>979</ele>
        <time>2024-05-23T14:06:07Z</time>
      </trkpt>
      <trkpt lat="45.13" lon="4.30579">
        <ele>979</ele>
        <time>2024-05-23T14:06:44Z</time>
      </trkpt>
      <trkpt lat="45.12997" lon="4.30574">
        <ele>979</ele>
        <time>2024-05-23T14:06:47Z</time>
      </trkpt>
      <trkpt lat="45.12989" lon="4.30569">
        <ele>979</ele>
        <time>2024-05-23T14:06:55Z</time>
      </trkpt>
      <trkpt lat="45.12986" lon="4.30562">
        <ele>979</ele>
        <time>2024-05-23T14:06:58Z</time>
      </trkpt>
      <trkpt lat="45.12979" lon="4.30554">
        <ele>979</ele>
        <time>2024-05-23T14:07:05Z</time>
      </trkpt>
      <trkpt lat="45.12976" lon="4.30549">
        <ele>979</ele>
        <time>2024-05-23T14:07:10Z</time>
      </trkpt>
      <trkpt lat="45.12965" lon="4.30538">
        <ele>979</ele>
        <time>2024-05-23T14:07:23Z</time>
      </trkpt>
      <trkpt lat="45.12961" lon="4.30531">
        <ele>979</ele>
        <time>2024-05-23T14:07:28Z</time>
      </trkpt>
      <trkpt lat="45.1296" lon="4.30525">
        <ele>979</ele>
        <time>2024-05-23T14:07:31Z</time>
      </trkpt>
      <trkpt lat="45.12955" lon="4.30521">
        <ele>979</ele>
        <time>2024-05-23T14:07:35Z</time>
      </trkpt>
      <trkpt lat="45.1295" lon="4.3052">
        <ele>978</ele>
        <time>2024-05-23T14:07:39Z</time>
      </trkpt>
      <trkpt lat="45.12947" lon="4.30516">
        <ele>978</ele>
        <time>2024-05-23T14:07:42Z</time>
      </trkpt>
      <trkpt lat="45.12941" lon="4.30506">
        <ele>978</ele>
        <time>2024-05-23T14:07:51Z</time>
      </trkpt>
      <trkpt lat="45.12933" lon="4.305">
        <ele>978</ele>
        <time>2024-05-23T14:07:57Z</time>
      </trkpt>
      <trkpt lat="45.12929" lon="4.30497">
        <ele>978</ele>
        <time>2024-05-23T14:08:00Z</time>
      </trkpt>
      <trkpt lat="45.12926" lon="4.30491">
        <ele>978</ele>
        <time>2024-05-23T14:08:03Z</time>
      </trkpt>
      <trkpt lat="45.12922" lon="4.30488">
        <ele>978</ele>
        <time>2024-05-23T14:08:07Z</time>
      </trkpt>
      <trkpt lat="45.1292" lon="4.30478">
        <ele>977</ele>
        <time>2024-05-23T14:08:16Z</time>
      </trkpt>
      <trkpt lat="45.12916" lon="4.30474">
        <ele>977</ele>
        <time>2024-05-23T14:08:20Z</time>
      </trkpt>
      <trkpt lat="45.12912" lon="4.30462">
        <ele>977</ele>
        <time>2024-05-23T14:08:27Z</time>
      </trkpt>
      <trkpt lat="45.12901" lon="4.30452">
        <ele>976</ele>
        <time>2024-05-23T14:08:38Z</time>
      </trkpt>
      <trkpt lat="45.12898" lon="4.30447">
        <ele>976</ele>
        <time>2024-05-23T14:08:41Z</time>
      </trkpt>
      <trkpt lat="45.12896" lon="4.3044">
        <ele>976</ele>
        <time>2024-05-23T14:08:44Z</time>
      </trkpt>
      <trkpt lat="45.1289" lon="4.3043">
        <ele>976</ele>
        <time>2024-05-23T14:08:51Z</time>
      </trkpt>
      <trkpt lat="45.12889" lon="4.30423">
        <ele>976</ele>
        <time>2024-05-23T14:08:55Z</time>
      </trkpt>
      <trkpt lat="45.12885" lon="4.30415">
        <ele>976</ele>
        <time>2024-05-23T14:09:04Z</time>
      </trkpt>
      <trkpt lat="45.1287" lon="4.30373">
        <ele>976</ele>
        <time>2024-05-23T14:09:35Z</time>
      </trkpt>
      <trkpt lat="45.12861" lon="4.30351">
        <ele>975</ele>
        <time>2024-05-23T14:09:53Z</time>
      </trkpt>
      <trkpt lat="45.12861" lon="4.30351">
        <ele>976</ele>
        <time>2024-05-23T14:10:37Z</time>
      </trkpt>
      <trkpt lat="45.12856" lon="4.30347">
        <ele>976</ele>
        <time>2024-05-23T14:10:55Z</time>
      </trkpt>
      <trkpt lat="45.12855" lon="4.30344">
        <ele>976</ele>
        <time>2024-05-23T14:11:31Z</time>
      </trkpt>
      <trkpt lat="45.12852" lon="4.3035">
        <ele>976</ele>
        <time>2024-05-23T14:11:41Z</time>
      </trkpt>
      <trkpt lat="45.12859" lon="4.30348">
        <ele>976</ele>
        <time>2024-05-23T14:11:56Z</time>
      </trkpt>
      <trkpt lat="45.12854" lon="4.3035">
        <ele>976</ele>
        <time>2024-05-23T14:13:29Z</time>
      </trkpt>
      <trkpt lat="45.1285" lon="4.30354">
        <ele>976</ele>
        <time>2024-05-23T14:13:33Z</time>
      </trkpt>
      <trkpt lat="45.12847" lon="4.3036">
        <ele>976</ele>
        <time>2024-05-23T14:13:37Z</time>
      </trkpt>
      <trkpt lat="45.12835" lon="4.3037">
        <ele>976</ele>
        <time>2024-05-23T14:13:52Z</time>
      </trkpt>
      <trkpt lat="45.1283" lon="4.30381">
        <ele>977</ele>
        <time>2024-05-23T14:14:00Z</time>
      </trkpt>
      <trkpt lat="45.12825" lon="4.30382">
        <ele>977</ele>
        <time>2024-05-23T14:14:03Z</time>
      </trkpt>
      <trkpt lat="45.12806" lon="4.3038">
        <ele>977</ele>
        <time>2024-05-23T14:14:20Z</time>
      </trkpt>
      <trkpt lat="45.128" lon="4.30376">
        <ele>978</ele>
        <time>2024-05-23T14:14:27Z</time>
      </trkpt>
      <trkpt lat="45.12797" lon="4.30371">
        <ele>978</ele>
        <time>2024-05-23T14:14:31Z</time>
      </trkpt>
      <trkpt lat="45.12794" lon="4.30371">
        <ele>978</ele>
        <time>2024-05-23T14:14:44Z</time>
      </trkpt>
      <trkpt lat="45.12784" lon="4.30366">
        <ele>979</ele>
        <time>2024-05-23T14:14:54Z</time>
      </trkpt>
      <trkpt lat="45.12781" lon="4.30362">
        <ele>979</ele>
        <time>2024-05-23T14:14:57Z</time>
      </trkpt>
      <trkpt lat="45.1277" lon="4.30361">
        <ele>978</ele>
        <time>2024-05-23T14:15:10Z</time>
      </trkpt>
      <trkpt lat="45.12768" lon="4.30354">
        <ele>978</ele>
        <time>2024-05-23T14:15:15Z</time>
      </trkpt>
      <trkpt lat="45.12764" lon="4.30352">
        <ele>978</ele>
        <time>2024-05-23T14:15:19Z</time>
      </trkpt>
      <trkpt lat="45.12796" lon="4.30358">
        <ele>977</ele>
        <time>2024-05-23T14:21:22Z</time>
      </trkpt>
      <trkpt lat="45.12798" lon="4.30359">
        <ele>976</ele>
        <time>2024-05-23T14:21:23Z</time>
      </trkpt>
      <trkpt lat="45.12806" lon="4.30354">
        <ele>976</ele>
        <time>2024-05-23T14:21:29Z</time>
      </trkpt>
      <trkpt lat="45.1281" lon="4.30349">
        <ele>975</ele>
        <time>2024-05-23T14:21:33Z</time>
      </trkpt>
      <trkpt lat="45.12809" lon="4.30341">
        <ele>975</ele>
        <time>2024-05-23T14:21:36Z</time>
      </trkpt>
      <trkpt lat="45.12818" lon="4.30333">
        <ele>974</ele>
        <time>2024-05-23T14:21:44Z</time>
      </trkpt>
      <trkpt lat="45.12822" lon="4.3033">
        <ele>973</ele>
        <time>2024-05-23T14:21:48Z</time>
      </trkpt>
      <trkpt lat="45.12828" lon="4.30304">
        <ele>970</ele>
        <time>2024-05-23T14:22:06Z</time>
      </trkpt>
      <trkpt lat="45.1283" lon="4.30299">
        <ele>970</ele>
        <time>2024-05-23T14:22:10Z</time>
      </trkpt>
      <trkpt lat="45.12832" lon="4.30293">
        <ele>970</ele>
        <time>2024-05-23T14:22:13Z</time>
      </trkpt>
      <trkpt lat="45.12834" lon="4.30287">
        <ele>969</ele>
        <time>2024-05-23T14:22:16Z</time>
      </trkpt>
      <trkpt lat="45.12838" lon="4.30285">
        <ele>968</ele>
        <time>2024-05-23T14:22:20Z</time>
      </trkpt>
      <trkpt lat="45.12837" lon="4.30272">
        <ele>968</ele>
        <time>2024-05-23T14:22:26Z</time>
      </trkpt>
      <trkpt lat="45.12841" lon="4.3026">
        <ele>966</ele>
        <time>2024-05-23T14:22:35Z</time>
      </trkpt>
      <trkpt lat="45.12841" lon="4.30254">
        <ele>966</ele>
        <time>2024-05-23T14:22:40Z</time>
      </trkpt>
      <trkpt lat="45.12846" lon="4.30247">
        <ele>965</ele>
        <time>2024-05-23T14:22:51Z</time>
      </trkpt>
      <trkpt lat="45.12844" lon="4.30237">
        <ele>964</ele>
        <time>2024-05-23T14:23:00Z</time>
      </trkpt>
      <trkpt lat="45.12837" lon="4.30224">
        <ele>962</ele>
        <time>2024-05-23T14:23:10Z</time>
      </trkpt>
      <trkpt lat="45.12837" lon="4.30217">
        <ele>962</ele>
        <time>2024-05-23T14:23:14Z</time>
      </trkpt>
      <trkpt lat="45.12832" lon="4.30211">
        <ele>960</ele>
        <time>2024-05-23T14:23:29Z</time>
      </trkpt>
      <trkpt lat="45.12828" lon="4.302">
        <ele>958</ele>
        <time>2024-05-23T14:23:41Z</time>
      </trkpt>
      <trkpt lat="45.12824" lon="4.30197">
        <ele>956</ele>
        <time>2024-05-23T14:23:55Z</time>
      </trkpt>
      <trkpt lat="45.12821" lon="4.30191">
        <ele>955</ele>
        <time>2024-05-23T14:24:01Z</time>
      </trkpt>
      <trkpt lat="45.12817" lon="4.30194">
        <ele>954</ele>
        <time>2024-05-23T14:24:05Z</time>
      </trkpt>
      <trkpt lat="45.12817" lon="4.30186">
        <ele>953</ele>
        <time>2024-05-23T14:24:11Z</time>
      </trkpt>
      <trkpt lat="45.12816" lon="4.3018">
        <ele>953</ele>
        <time>2024-05-23T14:24:14Z</time>
      </trkpt>
      <trkpt lat="45.12816" lon="4.30173">
        <ele>951</ele>
        <time>2024-05-23T14:24:21Z</time>
      </trkpt>
      <trkpt lat="45.12811" lon="4.30174">
        <ele>951</ele>
        <time>2024-05-23T14:24:25Z</time>
      </trkpt>
      <trkpt lat="45.12807" lon="4.30168">
        <ele>950</ele>
        <time>2024-05-23T14:24:28Z</time>
      </trkpt>
      <trkpt lat="45.12805" lon="4.30162">
        <ele>949</ele>
        <time>2024-05-23T14:24:32Z</time>
      </trkpt>
      <trkpt lat="45.12805" lon="4.30155">
        <ele>949</ele>
        <time>2024-05-23T14:24:40Z</time>
      </trkpt>
      <trkpt lat="45.12804" lon="4.30147">
        <ele>948</ele>
        <time>2024-05-23T14:24:46Z</time>
      </trkpt>
      <trkpt lat="45.12805" lon="4.30141">
        <ele>948</ele>
        <time>2024-05-23T14:24:51Z</time>
      </trkpt>
      <trkpt lat="45.12802" lon="4.30119">
        <ele>946</ele>
        <time>2024-05-23T14:25:06Z</time>
      </trkpt>
      <trkpt lat="45.128" lon="4.30107">
        <ele>945</ele>
        <time>2024-05-23T14:25:13Z</time>
      </trkpt>
      <trkpt lat="45.128" lon="4.30101">
        <ele>945</ele>
        <time>2024-05-23T14:25:17Z</time>
      </trkpt>
      <trkpt lat="45.12789" lon="4.30086">
        <ele>943</ele>
        <time>2024-05-23T14:25:32Z</time>
      </trkpt>
      <trkpt lat="45.12781" lon="4.30082">
        <ele>943</ele>
        <time>2024-05-23T14:25:40Z</time>
      </trkpt>
      <trkpt lat="45.1277" lon="4.30068">
        <ele>942</ele>
        <time>2024-05-23T14:25:51Z</time>
      </trkpt>
      <trkpt lat="45.12768" lon="4.30061">
        <ele>942</ele>
        <time>2024-05-23T14:25:55Z</time>
      </trkpt>
      <trkpt lat="45.12764" lon="4.30058">
        <ele>942</ele>
        <time>2024-05-23T14:25:59Z</time>
      </trkpt>
      <trkpt lat="45.12763" lon="4.30051">
        <ele>942</ele>
        <time>2024-05-23T14:26:03Z</time>
      </trkpt>
      <trkpt lat="45.12759" lon="4.30047">
        <ele>941</ele>
        <time>2024-05-23T14:26:07Z</time>
      </trkpt>
      <trkpt lat="45.12754" lon="4.30046">
        <ele>941</ele>
        <time>2024-05-23T14:26:11Z</time>
      </trkpt>
      <trkpt lat="45.1275" lon="4.3005">
        <ele>941</ele>
        <time>2024-05-23T14:26:16Z</time>
      </trkpt>
      <trkpt lat="45.12739" lon="4.30057">
        <ele>939</ele>
        <time>2024-05-23T14:26:32Z</time>
      </trkpt>
      <trkpt lat="45.12733" lon="4.30055">
        <ele>938</ele>
        <time>2024-05-23T14:26:40Z</time>
      </trkpt>
      <trkpt lat="45.1273" lon="4.3005">
        <ele>938</ele>
        <time>2024-05-23T14:26:44Z</time>
      </trkpt>
      <trkpt lat="45.12726" lon="4.30044">
        <ele>937</ele>
        <time>2024-05-23T14:26:50Z</time>
      </trkpt>
      <trkpt lat="45.12724" lon="4.30037">
        <ele>937</ele>
        <time>2024-05-23T14:26:55Z</time>
      </trkpt>
      <trkpt lat="45.1272" lon="4.30014">
        <ele>936</ele>
        <time>2024-05-23T14:27:12Z</time>
      </trkpt>
      <trkpt lat="45.12716" lon="4.29987">
        <ele>934</ele>
        <time>2024-05-23T14:27:35Z</time>
      </trkpt>
      <trkpt lat="45.12707" lon="4.29949">
        <ele>930</ele>
        <time>2024-05-23T14:28:02Z</time>
      </trkpt>
      <trkpt lat="45.12702" lon="4.29938">
        <ele>929</ele>
        <time>2024-05-23T14:28:11Z</time>
      </trkpt>
      <trkpt lat="45.12698" lon="4.29924">
        <ele>927</ele>
        <time>2024-05-23T14:28:21Z</time>
      </trkpt>
      <trkpt lat="45.1269" lon="4.29909">
        <ele>926</ele>
        <time>2024-05-23T14:28:34Z</time>
      </trkpt>
      <trkpt lat="45.12684" lon="4.29889">
        <ele>925</ele>
        <time>2024-05-23T14:28:49Z</time>
      </trkpt>
      <trkpt lat="45.12681" lon="4.29885">
        <ele>925</ele>
        <time>2024-05-23T14:28:54Z</time>
      </trkpt>
      <trkpt lat="45.12668" lon="4.29891">
        <ele>924</ele>
        <time>2024-05-23T14:29:10Z</time>
      </trkpt>
      <trkpt lat="45.12665" lon="4.29895">
        <ele>924</ele>
        <time>2024-05-23T14:29:14Z</time>
      </trkpt>
      <trkpt lat="45.1266" lon="4.29898">
        <ele>924</ele>
        <time>2024-05-23T14:29:19Z</time>
      </trkpt>
      <trkpt lat="45.12637" lon="4.29928">
        <ele>922</ele>
        <time>2024-05-23T14:29:49Z</time>
      </trkpt>
      <trkpt lat="45.12635" lon="4.29933">
        <ele>922</ele>
        <time>2024-05-23T14:29:54Z</time>
      </trkpt>
      <trkpt lat="45.12631" lon="4.29938">
        <ele>922</ele>
        <time>2024-05-23T14:29:58Z</time>
      </trkpt>
      <trkpt lat="45.12629" lon="4.29944">
        <ele>922</ele>
        <time>2024-05-23T14:30:01Z</time>
      </trkpt>
      <trkpt lat="45.12622" lon="4.29952">
        <ele>920</ele>
        <time>2024-05-23T14:30:10Z</time>
      </trkpt>
      <trkpt lat="45.12619" lon="4.29961">
        <ele>920</ele>
        <time>2024-05-23T14:30:17Z</time>
      </trkpt>
      <trkpt lat="45.1261" lon="4.29971">
        <ele>918</ele>
        <time>2024-05-23T14:30:28Z</time>
      </trkpt>
      <trkpt lat="45.12601" lon="4.29986">
        <ele>915</ele>
        <time>2024-05-23T14:30:42Z</time>
      </trkpt>
      <trkpt lat="45.12596" lon="4.29989">
        <ele>914</ele>
        <time>2024-05-23T14:30:47Z</time>
      </trkpt>
      <trkpt lat="45.12594" lon="4.29994">
        <ele>914</ele>
        <time>2024-05-23T14:30:51Z</time>
      </trkpt>
      <trkpt lat="45.12585" lon="4.3">
        <ele>913</ele>
        <time>2024-05-23T14:30:59Z</time>
      </trkpt>
      <trkpt lat="45.12587" lon="4.30006">
        <ele>912</ele>
        <time>2024-05-23T14:31:06Z</time>
      </trkpt>
      <trkpt lat="45.12587" lon="4.30013">
        <ele>911</ele>
        <time>2024-05-23T14:31:11Z</time>
      </trkpt>
      <trkpt lat="45.12581" lon="4.30028">
        <ele>908</ele>
        <time>2024-05-23T14:31:28Z</time>
      </trkpt>
      <trkpt lat="45.12574" lon="4.30039">
        <ele>907</ele>
        <time>2024-05-23T14:31:38Z</time>
      </trkpt>
      <trkpt lat="45.1257" lon="4.3005">
        <ele>905</ele>
        <time>2024-05-23T14:31:47Z</time>
      </trkpt>
      <trkpt lat="45.12565" lon="4.30053">
        <ele>904</ele>
        <time>2024-05-23T14:31:51Z</time>
      </trkpt>
      <trkpt lat="45.12558" lon="4.30065">
        <ele>902</ele>
        <time>2024-05-23T14:32:01Z</time>
      </trkpt>
      <trkpt lat="45.12557" lon="4.30074">
        <ele>900</ele>
        <time>2024-05-23T14:32:09Z</time>
      </trkpt>
      <trkpt lat="45.12552" lon="4.30077">
        <ele>900</ele>
        <time>2024-05-23T14:32:12Z</time>
      </trkpt>
      <trkpt lat="45.12546" lon="4.30085">
        <ele>899</ele>
        <time>2024-05-23T14:32:18Z</time>
      </trkpt>
      <trkpt lat="45.12541" lon="4.30095">
        <ele>897</ele>
        <time>2024-05-23T14:32:27Z</time>
      </trkpt>
      <trkpt lat="45.12538" lon="4.30109">
        <ele>895</ele>
        <time>2024-05-23T14:32:37Z</time>
      </trkpt>
      <trkpt lat="45.12533" lon="4.30112">
        <ele>894</ele>
        <time>2024-05-23T14:32:44Z</time>
      </trkpt>
      <trkpt lat="45.12529" lon="4.30122">
        <ele>894</ele>
        <time>2024-05-23T14:32:48Z</time>
      </trkpt>
      <trkpt lat="45.12532" lon="4.30128">
        <ele>893</ele>
        <time>2024-05-23T14:32:53Z</time>
      </trkpt>
      <trkpt lat="45.1253" lon="4.30134">
        <ele>893</ele>
        <time>2024-05-23T14:32:58Z</time>
      </trkpt>
      <trkpt lat="45.12533" lon="4.30147">
        <ele>892</ele>
        <time>2024-05-23T14:33:06Z</time>
      </trkpt>
      <trkpt lat="45.12533" lon="4.3016">
        <ele>892</ele>
        <time>2024-05-23T14:33:13Z</time>
      </trkpt>
      <trkpt lat="45.12533" lon="4.30166">
        <ele>891</ele>
        <time>2024-05-23T14:33:17Z</time>
      </trkpt>
      <trkpt lat="45.12531" lon="4.3018">
        <ele>891</ele>
        <time>2024-05-23T14:33:25Z</time>
      </trkpt>
      <trkpt lat="45.12529" lon="4.30186">
        <ele>891</ele>
        <time>2024-05-23T14:33:29Z</time>
      </trkpt>
      <trkpt lat="45.12519" lon="4.30203">
        <ele>891</ele>
        <time>2024-05-23T14:33:41Z</time>
      </trkpt>
      <trkpt lat="45.12516" lon="4.30207">
        <ele>891</ele>
        <time>2024-05-23T14:33:44Z</time>
      </trkpt>
      <trkpt lat="45.12514" lon="4.30214">
        <ele>891</ele>
        <time>2024-05-23T14:33:48Z</time>
      </trkpt>
      <trkpt lat="45.12503" lon="4.30234">
        <ele>891</ele>
        <time>2024-05-23T14:34:03Z</time>
      </trkpt>
      <trkpt lat="45.12499" lon="4.30246">
        <ele>890</ele>
        <time>2024-05-23T14:34:11Z</time>
      </trkpt>
      <trkpt lat="45.12485" lon="4.30267">
        <ele>891</ele>
        <time>2024-05-23T14:34:27Z</time>
      </trkpt>
      <trkpt lat="45.12481" lon="4.3027">
        <ele>891</ele>
        <time>2024-05-23T14:34:31Z</time>
      </trkpt>
      <trkpt lat="45.12458" lon="4.30309">
        <ele>892</ele>
        <time>2024-05-23T14:35:05Z</time>
      </trkpt>
      <trkpt lat="45.12455" lon="4.30315">
        <ele>892</ele>
        <time>2024-05-23T14:35:09Z</time>
      </trkpt>
      <trkpt lat="45.12436" lon="4.30347">
        <ele>893</ele>
        <time>2024-05-23T14:35:35Z</time>
      </trkpt>
      <trkpt lat="45.12432" lon="4.30351">
        <ele>893</ele>
        <time>2024-05-23T14:35:38Z</time>
      </trkpt>
      <trkpt lat="45.12411" lon="4.30393">
        <ele>893</ele>
        <time>2024-05-23T14:36:09Z</time>
      </trkpt>
      <trkpt lat="45.12407" lon="4.30396">
        <ele>893</ele>
        <time>2024-05-23T14:36:13Z</time>
      </trkpt>
      <trkpt lat="45.12402" lon="4.30406">
        <ele>893</ele>
        <time>2024-05-23T14:36:21Z</time>
      </trkpt>
      <trkpt lat="45.12398" lon="4.30411">
        <ele>893</ele>
        <time>2024-05-23T14:36:25Z</time>
      </trkpt>
      <trkpt lat="45.12377" lon="4.30451">
        <ele>893</ele>
        <time>2024-05-23T14:36:57Z</time>
      </trkpt>
      <trkpt lat="45.12368" lon="4.30467">
        <ele>892</ele>
        <time>2024-05-23T14:37:10Z</time>
      </trkpt>
      <trkpt lat="45.12363" lon="4.30471">
        <ele>893</ele>
        <time>2024-05-23T14:37:13Z</time>
      </trkpt>
      <trkpt lat="45.12357" lon="4.30476">
        <ele>893</ele>
        <time>2024-05-23T14:37:19Z</time>
      </trkpt>
      <trkpt lat="45.12352" lon="4.30486">
        <ele>893</ele>
        <time>2024-05-23T14:37:27Z</time>
      </trkpt>
      <trkpt lat="45.12349" lon="4.30489">
        <ele>893</ele>
        <time>2024-05-23T14:37:34Z</time>
      </trkpt>
      <trkpt lat="45.12346" lon="4.30484">
        <ele>894</ele>
        <time>2024-05-23T14:37:38Z</time>
      </trkpt>
      <trkpt lat="45.12338" lon="4.30478">
        <ele>894</ele>
        <time>2024-05-23T14:37:59Z</time>
      </trkpt>
      <trkpt lat="45.12329" lon="4.30455">
        <ele>893</ele>
        <time>2024-05-23T14:38:18Z</time>
      </trkpt>
      <trkpt lat="45.12319" lon="4.30443">
        <ele>892</ele>
        <time>2024-05-23T14:38:31Z</time>
      </trkpt>
      <trkpt lat="45.12316" lon="4.30437">
        <ele>891</ele>
        <time>2024-05-23T14:38:38Z</time>
      </trkpt>
      <trkpt lat="45.12311" lon="4.30437">
        <ele>891</ele>
        <time>2024-05-23T14:38:45Z</time>
      </trkpt>
      <trkpt lat="45.123" lon="4.30418">
        <ele>888</ele>
        <time>2024-05-23T14:39:03Z</time>
      </trkpt>
      <trkpt lat="45.12294" lon="4.30414">
        <ele>887</ele>
        <time>2024-05-23T14:39:09Z</time>
      </trkpt>
      <trkpt lat="45.12292" lon="4.30407">
        <ele>886</ele>
        <time>2024-05-23T14:39:13Z</time>
      </trkpt>
      <trkpt lat="45.1229" lon="4.30401">
        <ele>885</ele>
        <time>2024-05-23T14:39:18Z</time>
      </trkpt>
      <trkpt lat="45.12283" lon="4.30398">
        <ele>883</ele>
        <time>2024-05-23T14:39:26Z</time>
      </trkpt>
      <trkpt lat="45.12279" lon="4.30388">
        <ele>882</ele>
        <time>2024-05-23T14:39:34Z</time>
      </trkpt>
      <trkpt lat="45.12277" lon="4.30382">
        <ele>881</ele>
        <time>2024-05-23T14:39:38Z</time>
      </trkpt>
      <trkpt lat="45.12271" lon="4.30383">
        <ele>881</ele>
        <time>2024-05-23T14:39:41Z</time>
      </trkpt>
      <trkpt lat="45.12269" lon="4.30375">
        <ele>879</ele>
        <time>2024-05-23T14:39:51Z</time>
      </trkpt>
      <trkpt lat="45.12267" lon="4.30362">
        <ele>878</ele>
        <time>2024-05-23T14:39:58Z</time>
      </trkpt>
      <trkpt lat="45.12263" lon="4.30355">
        <ele>877</ele>
        <time>2024-05-23T14:40:05Z</time>
      </trkpt>
      <trkpt lat="45.12263" lon="4.30347">
        <ele>876</ele>
        <time>2024-05-23T14:40:09Z</time>
      </trkpt>
      <trkpt lat="45.12263" lon="4.30338">
        <ele>875</ele>
        <time>2024-05-23T14:40:14Z</time>
      </trkpt>
      <trkpt lat="45.12259" lon="4.30336">
        <ele>874</ele>
        <time>2024-05-23T14:40:18Z</time>
      </trkpt>
      <trkpt lat="45.12259" lon="4.30327">
        <ele>873</ele>
        <time>2024-05-23T14:40:22Z</time>
      </trkpt>
      <trkpt lat="45.1226" lon="4.3032">
        <ele>873</ele>
        <time>2024-05-23T14:40:26Z</time>
      </trkpt>
      <trkpt lat="45.12253" lon="4.30313">
        <ele>870</ele>
        <time>2024-05-23T14:40:35Z</time>
      </trkpt>
      <trkpt lat="45.12258" lon="4.30307">
        <ele>870</ele>
        <time>2024-05-23T14:40:39Z</time>
      </trkpt>
      <trkpt lat="45.12259" lon="4.30301">
        <ele>867</ele>
        <time>2024-05-23T14:40:49Z</time>
      </trkpt>
      <trkpt lat="45.12256" lon="4.30287">
        <ele>866</ele>
        <time>2024-05-23T14:40:55Z</time>
      </trkpt>
      <trkpt lat="45.12251" lon="4.30278">
        <ele>864</ele>
        <time>2024-05-23T14:41:03Z</time>
      </trkpt>
      <trkpt lat="45.12254" lon="4.30273">
        <ele>864</ele>
        <time>2024-05-23T14:41:08Z</time>
      </trkpt>
      <trkpt lat="45.12247" lon="4.30268">
        <ele>863</ele>
        <time>2024-05-23T14:41:18Z</time>
      </trkpt>
      <trkpt lat="45.12243" lon="4.30264">
        <ele>862</ele>
        <time>2024-05-23T14:41:22Z</time>
      </trkpt>
      <trkpt lat="45.12238" lon="4.3026">
        <ele>862</ele>
        <time>2024-05-23T14:41:28Z</time>
      </trkpt>
      <trkpt lat="45.12235" lon="4.30253">
        <ele>862</ele>
        <time>2024-05-23T14:41:37Z</time>
      </trkpt>
      <trkpt lat="45.12234" lon="4.30249">
        <ele>863</ele>
        <time>2024-05-23T14:43:00Z</time>
      </trkpt>
      <trkpt lat="45.12228" lon="4.30241">
        <ele>863</ele>
        <time>2024-05-23T14:43:23Z</time>
      </trkpt>
      <trkpt lat="45.12227" lon="4.30234">
        <ele>864</ele>
        <time>2024-05-23T14:43:29Z</time>
      </trkpt>
      <trkpt lat="45.12222" lon="4.30228">
        <ele>864</ele>
        <time>2024-05-23T14:43:36Z</time>
      </trkpt>
      <trkpt lat="45.12208" lon="4.30184">
        <ele>865</ele>
        <time>2024-05-23T14:44:08Z</time>
      </trkpt>
      <trkpt lat="45.12206" lon="4.30169">
        <ele>866</ele>
        <time>2024-05-23T14:44:19Z</time>
      </trkpt>
      <trkpt lat="45.12199" lon="4.30145">
        <ele>867</ele>
        <time>2024-05-23T14:44:37Z</time>
      </trkpt>
      <trkpt lat="45.12199" lon="4.30139">
        <ele>867</ele>
        <time>2024-05-23T14:44:42Z</time>
      </trkpt>
      <trkpt lat="45.12195" lon="4.3013">
        <ele>868</ele>
        <time>2024-05-23T14:44:49Z</time>
      </trkpt>
      <trkpt lat="45.12193" lon="4.30121">
        <ele>868</ele>
        <time>2024-05-23T14:44:56Z</time>
      </trkpt>
      <trkpt lat="45.12191" lon="4.30116">
        <ele>868</ele>
        <time>2024-05-23T14:45:00Z</time>
      </trkpt>
      <trkpt lat="45.1219" lon="4.3011">
        <ele>868</ele>
        <time>2024-05-23T14:45:03Z</time>
      </trkpt>
      <trkpt lat="45.12187" lon="4.30105">
        <ele>868</ele>
        <time>2024-05-23T14:45:07Z</time>
      </trkpt>
      <trkpt lat="45.12185" lon="4.30098">
        <ele>869</ele>
        <time>2024-05-23T14:45:14Z</time>
      </trkpt>
      <trkpt lat="45.12182" lon="4.30089">
        <ele>869</ele>
        <time>2024-05-23T14:45:20Z</time>
      </trkpt>
      <trkpt lat="45.12179" lon="4.30084">
        <ele>869</ele>
        <time>2024-05-23T14:45:24Z</time>
      </trkpt>
      <trkpt lat="45.12177" lon="4.30079">
        <ele>870</ele>
        <time>2024-05-23T14:45:28Z</time>
      </trkpt>
      <trkpt lat="45.12175" lon="4.30072">
        <ele>870</ele>
        <time>2024-05-23T14:45:32Z</time>
      </trkpt>
      <trkpt lat="45.12172" lon="4.30062">
        <ele>871</ele>
        <time>2024-05-23T14:45:40Z</time>
      </trkpt>
      <trkpt lat="45.1217" lon="4.30053">
        <ele>871</ele>
        <time>2024-05-23T14:45:47Z</time>
      </trkpt>
      <trkpt lat="45.12168" lon="4.30046">
        <ele>872</ele>
        <time>2024-05-23T14:45:53Z</time>
      </trkpt>
      <trkpt lat="45.12164" lon="4.30042">
        <ele>873</ele>
        <time>2024-05-23T14:46:01Z</time>
      </trkpt>
      <trkpt lat="45.12162" lon="4.30034">
        <ele>875</ele>
        <time>2024-05-23T14:46:07Z</time>
      </trkpt>
      <trkpt lat="45.12157" lon="4.30032">
        <ele>876</ele>
        <time>2024-05-23T14:46:12Z</time>
      </trkpt>
      <trkpt lat="45.12147" lon="4.3003">
        <ele>878</ele>
        <time>2024-05-23T14:46:26Z</time>
      </trkpt>
      <trkpt lat="45.12133" lon="4.30027">
        <ele>879</ele>
        <time>2024-05-23T14:46:42Z</time>
      </trkpt>
      <trkpt lat="45.12128" lon="4.30028">
        <ele>879</ele>
        <time>2024-05-23T14:46:50Z</time>
      </trkpt>
      <trkpt lat="45.12122" lon="4.30027">
        <ele>879</ele>
        <time>2024-05-23T14:48:01Z</time>
      </trkpt>
      <trkpt lat="45.12118" lon="4.30029">
        <ele>878</ele>
        <time>2024-05-23T14:48:06Z</time>
      </trkpt>
      <trkpt lat="45.12113" lon="4.30029">
        <ele>878</ele>
        <time>2024-05-23T14:48:11Z</time>
      </trkpt>
      <trkpt lat="45.12107" lon="4.3003">
        <ele>877</ele>
        <time>2024-05-23T14:48:21Z</time>
      </trkpt>
      <trkpt lat="45.12094" lon="4.30031">
        <ele>876</ele>
        <time>2024-05-23T14:48:32Z</time>
      </trkpt>
      <trkpt lat="45.12085" lon="4.30027">
        <ele>876</ele>
        <time>2024-05-23T14:48:40Z</time>
      </trkpt>
      <trkpt lat="45.12072" lon="4.3002">
        <ele>877</ele>
        <time>2024-05-23T14:48:52Z</time>
      </trkpt>
      <trkpt lat="45.1204" lon="4.30003">
        <ele>879</ele>
        <time>2024-05-23T14:49:25Z</time>
      </trkpt>
      <trkpt lat="45.12028" lon="4.29998">
        <ele>879</ele>
        <time>2024-05-23T14:49:37Z</time>
      </trkpt>
      <trkpt lat="45.1201" lon="4.29989">
        <ele>878</ele>
        <time>2024-05-23T14:49:54Z</time>
      </trkpt>
      <trkpt lat="45.11985" lon="4.29965">
        <ele>876</ele>
        <time>2024-05-23T14:50:21Z</time>
      </trkpt>
      <trkpt lat="45.11972" lon="4.29959">
        <ele>874</ele>
        <time>2024-05-23T14:50:34Z</time>
      </trkpt>
      <trkpt lat="45.11968" lon="4.29954">
        <ele>874</ele>
        <time>2024-05-23T14:50:38Z</time>
      </trkpt>
      <trkpt lat="45.11964" lon="4.29952">
        <ele>873</ele>
        <time>2024-05-23T14:50:42Z</time>
      </trkpt>
      <trkpt lat="45.11945" lon="4.29945">
        <ele>873</ele>
        <time>2024-05-23T14:50:58Z</time>
      </trkpt>
      <trkpt lat="45.1194" lon="4.29934">
        <ele>873</ele>
        <time>2024-05-23T14:51:06Z</time>
      </trkpt>
      <trkpt lat="45.11934" lon="4.29925">
        <ele>872</ele>
        <time>2024-05-23T14:51:14Z</time>
      </trkpt>
      <trkpt lat="45.11929" lon="4.29923">
        <ele>872</ele>
        <time>2024-05-23T14:51:18Z</time>
      </trkpt>
      <trkpt lat="45.1192" lon="4.29915">
        <ele>872</ele>
        <time>2024-05-23T14:51:28Z</time>
      </trkpt>
      <trkpt lat="45.11911" lon="4.29913">
        <ele>871</ele>
        <time>2024-05-23T14:51:36Z</time>
      </trkpt>
      <trkpt lat="45.11893" lon="4.29926">
        <ele>869</ele>
        <time>2024-05-23T14:51:52Z</time>
      </trkpt>
      <trkpt lat="45.11888" lon="4.29926">
        <ele>868</ele>
        <time>2024-05-23T14:51:56Z</time>
      </trkpt>
      <trkpt lat="45.11884" lon="4.29919">
        <ele>868</ele>
        <time>2024-05-23T14:52:09Z</time>
      </trkpt>
      <trkpt lat="45.11881" lon="4.29916">
        <ele>867</ele>
        <time>2024-05-23T14:52:13Z</time>
      </trkpt>
      <trkpt lat="45.11875" lon="4.29902">
        <ele>867</ele>
        <time>2024-05-23T14:52:23Z</time>
      </trkpt>
      <trkpt lat="45.11864" lon="4.29886">
        <ele>866</ele>
        <time>2024-05-23T14:52:35Z</time>
      </trkpt>
      <trkpt lat="45.1186" lon="4.29882">
        <ele>866</ele>
        <time>2024-05-23T14:52:39Z</time>
      </trkpt>
      <trkpt lat="45.11841" lon="4.29842">
        <ele>866</ele>
        <time>2024-05-23T14:53:10Z</time>
      </trkpt>
      <trkpt lat="45.1182" lon="4.29796">
        <ele>866</ele>
        <time>2024-05-23T14:53:43Z</time>
      </trkpt>
      <trkpt lat="45.1181" lon="4.29764">
        <ele>867</ele>
        <time>2024-05-23T14:54:05Z</time>
      </trkpt>
      <trkpt lat="45.11809" lon="4.29757">
        <ele>867</ele>
        <time>2024-05-23T14:54:10Z</time>
      </trkpt>
      <trkpt lat="45.11804" lon="4.29742">
        <ele>868</ele>
        <time>2024-05-23T14:54:21Z</time>
      </trkpt>
      <trkpt lat="45.11799" lon="4.29723">
        <ele>868</ele>
        <time>2024-05-23T14:54:33Z</time>
      </trkpt>
      <trkpt lat="45.11797" lon="4.29718">
        <ele>868</ele>
        <time>2024-05-23T14:54:37Z</time>
      </trkpt>
      <trkpt lat="45.11795" lon="4.29707">
        <ele>868</ele>
        <time>2024-05-23T14:54:46Z</time>
      </trkpt>
      <trkpt lat="45.11791" lon="4.29692">
        <ele>869</ele>
        <time>2024-05-23T14:54:57Z</time>
      </trkpt>
      <trkpt lat="45.11791" lon="4.29686">
        <ele>869</ele>
        <time>2024-05-23T14:55:01Z</time>
      </trkpt>
      <trkpt lat="45.11788" lon="4.2968">
        <ele>869</ele>
        <time>2024-05-23T14:55:05Z</time>
      </trkpt>
      <trkpt lat="45.11787" lon="4.29673">
        <ele>869</ele>
        <time>2024-05-23T14:55:09Z</time>
      </trkpt>
      <trkpt lat="45.11775" lon="4.29628">
        <ele>873</ele>
        <time>2024-05-23T14:55:41Z</time>
      </trkpt>
      <trkpt lat="45.11767" lon="4.29604">
        <ele>873</ele>
        <time>2024-05-23T14:55:57Z</time>
      </trkpt>
      <trkpt lat="45.11761" lon="4.29594">
        <ele>872</ele>
        <time>2024-05-23T14:56:06Z</time>
      </trkpt>
      <trkpt lat="45.11759" lon="4.29588">
        <ele>872</ele>
        <time>2024-05-23T14:56:10Z</time>
      </trkpt>
      <trkpt lat="45.11743" lon="4.29563">
        <ele>871</ele>
        <time>2024-05-23T14:56:31Z</time>
      </trkpt>
      <trkpt lat="45.1172" lon="4.29542">
        <ele>869</ele>
        <time>2024-05-23T14:56:56Z</time>
      </trkpt>
      <trkpt lat="45.11702" lon="4.29532">
        <ele>868</ele>
        <time>2024-05-23T14:57:13Z</time>
      </trkpt>
      <trkpt lat="45.1167" lon="4.29527">
        <ele>867</ele>
        <time>2024-05-23T14:57:42Z</time>
      </trkpt>
      <trkpt lat="45.11654" lon="4.29515">
        <ele>866</ele>
        <time>2024-05-23T14:57:58Z</time>
      </trkpt>
      <trkpt lat="45.11627" lon="4.29485">
        <ele>866</ele>
        <time>2024-05-23T14:58:28Z</time>
      </trkpt>
      <trkpt lat="45.11605" lon="4.29463">
        <ele>867</ele>
        <time>2024-05-23T14:58:52Z</time>
      </trkpt>
      <trkpt lat="45.116" lon="4.2946">
        <ele>866</ele>
        <time>2024-05-23T14:58:58Z</time>
      </trkpt>
      <trkpt lat="45.11592" lon="4.29458">
        <ele>866</ele>
        <time>2024-05-23T14:59:06Z</time>
      </trkpt>
      <trkpt lat="45.11574" lon="4.29446">
        <ele>864</ele>
        <time>2024-05-23T14:59:30Z</time>
      </trkpt>
      <trkpt lat="45.11547" lon="4.29413">
        <ele>859</ele>
        <time>2024-05-23T15:00:01Z</time>
      </trkpt>
      <trkpt lat="45.11535" lon="4.29404">
        <ele>856</ele>
        <time>2024-05-23T15:00:13Z</time>
      </trkpt>
      <trkpt lat="45.11525" lon="4.2939">
        <ele>853</ele>
        <time>2024-05-23T15:00:42Z</time>
      </trkpt>
      <trkpt lat="45.11511" lon="4.29382">
        <ele>852</ele>
        <time>2024-05-23T15:00:57Z</time>
      </trkpt>
      <trkpt lat="45.11507" lon="4.29376">
        <ele>851</ele>
        <time>2024-05-23T15:01:03Z</time>
      </trkpt>
      <trkpt lat="45.115" lon="4.29366">
        <ele>851</ele>
        <time>2024-05-23T15:01:13Z</time>
      </trkpt>
      <trkpt lat="45.11495" lon="4.29363">
        <ele>851</ele>
        <time>2024-05-23T15:01:17Z</time>
      </trkpt>
      <trkpt lat="45.11488" lon="4.29352">
        <ele>850</ele>
        <time>2024-05-23T15:01:25Z</time>
      </trkpt>
      <trkpt lat="45.11487" lon="4.29337">
        <ele>850</ele>
        <time>2024-05-23T15:01:33Z</time>
      </trkpt>
      <trkpt lat="45.11489" lon="4.29329">
        <ele>850</ele>
        <time>2024-05-23T15:01:40Z</time>
      </trkpt>
      <trkpt lat="45.11488" lon="4.29313">
        <ele>850</ele>
        <time>2024-05-23T15:02:02Z</time>
      </trkpt>
      <trkpt lat="45.11482" lon="4.2931">
        <ele>850</ele>
        <time>2024-05-23T15:02:11Z</time>
      </trkpt>
      <trkpt lat="45.11482" lon="4.29301">
        <ele>849</ele>
        <time>2024-05-23T15:02:18Z</time>
      </trkpt>
      <trkpt lat="45.1148" lon="4.29295">
        <ele>849</ele>
        <time>2024-05-23T15:02:22Z</time>
      </trkpt>
      <trkpt lat="45.11479" lon="4.29282">
        <ele>849</ele>
        <time>2024-05-23T15:02:31Z</time>
      </trkpt>
      <trkpt lat="45.11481" lon="4.29269">
        <ele>849</ele>
        <time>2024-05-23T15:02:40Z</time>
      </trkpt>
      <trkpt lat="45.11484" lon="4.29264">
        <ele>848</ele>
        <time>2024-05-23T15:02:50Z</time>
      </trkpt>
      <trkpt lat="45.1149" lon="4.29265">
        <ele>848</ele>
        <time>2024-05-23T15:02:55Z</time>
      </trkpt>
      <trkpt lat="45.11491" lon="4.29254">
        <ele>848</ele>
        <time>2024-05-23T15:03:03Z</time>
      </trkpt>
      <trkpt lat="45.11481" lon="4.29246">
        <ele>848</ele>
        <time>2024-05-23T15:03:20Z</time>
      </trkpt>
      <trkpt lat="45.11472" lon="4.29249">
        <ele>849</ele>
        <time>2024-05-23T15:03:27Z</time>
      </trkpt>
      <trkpt lat="45.11468" lon="4.29247">
        <ele>849</ele>
        <time>2024-05-23T15:03:30Z</time>
      </trkpt>
      <trkpt lat="45.11466" lon="4.29236">
        <ele>849</ele>
        <time>2024-05-23T15:03:40Z</time>
      </trkpt>
      <trkpt lat="45.11467" lon="4.2923">
        <ele>849</ele>
        <time>2024-05-23T15:03:43Z</time>
      </trkpt>
      <trkpt lat="45.11471" lon="4.29217">
        <ele>848</ele>
        <time>2024-05-23T15:03:51Z</time>
      </trkpt>
      <trkpt lat="45.11472" lon="4.29203">
        <ele>847</ele>
        <time>2024-05-23T15:04:00Z</time>
      </trkpt>
      <trkpt lat="45.11471" lon="4.29196">
        <ele>846</ele>
        <time>2024-05-23T15:04:04Z</time>
      </trkpt>
      <trkpt lat="45.11472" lon="4.29189">
        <ele>846</ele>
        <time>2024-05-23T15:04:08Z</time>
      </trkpt>
      <trkpt lat="45.11469" lon="4.2917">
        <ele>845</ele>
        <time>2024-05-23T15:04:19Z</time>
      </trkpt>
      <trkpt lat="45.11466" lon="4.29165">
        <ele>845</ele>
        <time>2024-05-23T15:04:23Z</time>
      </trkpt>
      <trkpt lat="45.11465" lon="4.29158">
        <ele>845</ele>
        <time>2024-05-23T15:04:27Z</time>
      </trkpt>
      <trkpt lat="45.11465" lon="4.29151">
        <ele>845</ele>
        <time>2024-05-23T15:04:31Z</time>
      </trkpt>
      <trkpt lat="45.11469" lon="4.29148">
        <ele>845</ele>
        <time>2024-05-23T15:04:38Z</time>
      </trkpt>
      <trkpt lat="45.11476" lon="4.2916">
        <ele>845</ele>
        <time>2024-05-23T15:04:51Z</time>
      </trkpt>
      <trkpt lat="45.11476" lon="4.2915">
        <ele>845</ele>
        <time>2024-05-23T15:04:53Z</time>
      </trkpt>
      <trkpt lat="45.11488" lon="4.29145">
        <ele>845</ele>
        <time>2024-05-23T15:05:03Z</time>
      </trkpt>
      <trkpt lat="45.11495" lon="4.29146">
        <ele>845</ele>
        <time>2024-05-23T15:05:10Z</time>
      </trkpt>
      <trkpt lat="45.11497" lon="4.29137">
        <ele>845</ele>
        <time>2024-05-23T15:05:36Z</time>
      </trkpt>
      <trkpt lat="45.11498" lon="4.29131">
        <ele>845</ele>
        <time>2024-05-23T15:05:40Z</time>
      </trkpt>
      <trkpt lat="45.11495" lon="4.29126">
        <ele>845</ele>
        <time>2024-05-23T15:05:46Z</time>
      </trkpt>
      <trkpt lat="45.11493" lon="4.29116">
        <ele>844</ele>
        <time>2024-05-23T15:05:55Z</time>
      </trkpt>
      <trkpt lat="45.11495" lon="4.2911">
        <ele>844</ele>
        <time>2024-05-23T15:05:59Z</time>
      </trkpt>
      <trkpt lat="45.11499" lon="4.29104">
        <ele>844</ele>
        <time>2024-05-23T15:06:04Z</time>
      </trkpt>
      <trkpt lat="45.11508" lon="4.29097">
        <ele>847</ele>
        <time>2024-05-23T15:06:17Z</time>
      </trkpt>
      <trkpt lat="45.11511" lon="4.29093">
        <ele>848</ele>
        <time>2024-05-23T15:06:21Z</time>
      </trkpt>
      <trkpt lat="45.11513" lon="4.29087">
        <ele>849</ele>
        <time>2024-05-23T15:06:26Z</time>
      </trkpt>
      <trkpt lat="45.1151" lon="4.29081">
        <ele>850</ele>
        <time>2024-05-23T15:06:35Z</time>
      </trkpt>
      <trkpt lat="45.11506" lon="4.29081">
        <ele>851</ele>
        <time>2024-05-23T15:06:39Z</time>
      </trkpt>
      <trkpt lat="45.11502" lon="4.29073">
        <ele>851</ele>
        <time>2024-05-23T15:06:47Z</time>
      </trkpt>
      <trkpt lat="45.11499" lon="4.29067">
        <ele>852</ele>
        <time>2024-05-23T15:06:59Z</time>
      </trkpt>
      <trkpt lat="45.11494" lon="4.29068">
        <ele>852</ele>
        <time>2024-05-23T15:07:04Z</time>
      </trkpt>
      <trkpt lat="45.11497" lon="4.29064">
        <ele>852</ele>
        <time>2024-05-23T15:07:43Z</time>
      </trkpt>
      <trkpt lat="45.11502" lon="4.2906">
        <ele>853</ele>
        <time>2024-05-23T15:07:48Z</time>
      </trkpt>
      <trkpt lat="45.11507" lon="4.29059">
        <ele>853</ele>
        <time>2024-05-23T15:07:52Z</time>
      </trkpt>
      <trkpt lat="45.11511" lon="4.29056">
        <ele>853</ele>
        <time>2024-05-23T15:07:56Z</time>
      </trkpt>
      <trkpt lat="45.11516" lon="4.29055">
        <ele>854</ele>
        <time>2024-05-23T15:08:00Z</time>
      </trkpt>
      <trkpt lat="45.11521" lon="4.29056">
        <ele>854</ele>
        <time>2024-05-23T15:08:14Z</time>
      </trkpt>
      <trkpt lat="45.11525" lon="4.29059">
        <ele>854</ele>
        <time>2024-05-23T15:08:20Z</time>
      </trkpt>
      <trkpt lat="45.1153" lon="4.29058">
        <ele>855</ele>
        <time>2024-05-23T15:08:24Z</time>
      </trkpt>
      <trkpt lat="45.11534" lon="4.29057">
        <ele>855</ele>
        <time>2024-05-23T15:08:28Z</time>
      </trkpt>
      <trkpt lat="45.11551" lon="4.29012">
        <ele>856</ele>
        <time>2024-05-23T15:08:58Z</time>
      </trkpt>
      <trkpt lat="45.11562" lon="4.28998">
        <ele>856</ele>
        <time>2024-05-23T15:09:12Z</time>
      </trkpt>
      <trkpt lat="45.1157" lon="4.28982">
        <ele>856</ele>
        <time>2024-05-23T15:09:23Z</time>
      </trkpt>
      <trkpt lat="45.11578" lon="4.28973">
        <ele>855</ele>
        <time>2024-05-23T15:09:30Z</time>
      </trkpt>
      <trkpt lat="45.11585" lon="4.28963">
        <ele>855</ele>
        <time>2024-05-23T15:09:37Z</time>
      </trkpt>
      <trkpt lat="45.11587" lon="4.28956">
        <ele>855</ele>
        <time>2024-05-23T15:09:41Z</time>
      </trkpt>
      <trkpt lat="45.11592" lon="4.28919">
        <ele>854</ele>
        <time>2024-05-23T15:10:08Z</time>
      </trkpt>
      <trkpt lat="45.11596" lon="4.28911">
        <ele>853</ele>
        <time>2024-05-23T15:10:15Z</time>
      </trkpt>
      <trkpt lat="45.11598" lon="4.28897">
        <ele>853</ele>
        <time>2024-05-23T15:10:23Z</time>
      </trkpt>
    </trkseg>
  </trk>
</gpx>